Wetterdaten: Dienstag, 31.01.2023
Datum Zeit Temp. 2m Temp +5 cm Feuchte A. Luftdruck Regen Wind Richtung Richtung Sonnenschein UV Solar Taupunkt Windchill Windben
31.01.2023 00:00 1,3 C 0,6 C 89 % 1028,4 hPa 0,0 l/m 11,3 km/h (2 Bft) W-SW 247 0 min 0,0 UV-I 0 W/m -0,3 C -3,0 C 19,3 km/h (3 Bft)
31.01.2023 00:01 1,3 C 0,6 C 89 % 1028,4 hPa 0,0 l/m 4,8 km/h (1 Bft) W-SW 247 0 min 0,0 UV-I 0 W/m -0,3 C 1,3 C 6,4 km/h (2 Bft)
31.01.2023 00:02 1,3 C 0,6 C 89 % 1028,5 hPa 0,0 l/m 6,4 km/h (2 Bft) W-SW 247 0 min 0,0 UV-I 0 W/m -0,3 C 1,3 C 9,7 km/h (2 Bft)
31.01.2023 00:03 1,3 C 0,6 C 89 % 1028,5 hPa 0,0 l/m 6,4 km/h (2 Bft) SW 225 0 min 0,0 UV-I 0 W/m -0,3 C 1,3 C 14,5 km/h (3 Bft)
31.01.2023 00:04 1,3 C 0,6 C 89 % 1028,5 hPa 0,0 l/m 4,8 km/h (1 Bft) W-SW 247 0 min 0,0 UV-I 0 W/m -0,3 C 1,3 C 9,7 km/h (2 Bft)
31.01.2023 00:05 1,3 C 0,6 C 89 % 1028,3 hPa 0,0 l/m 1,6 km/h (1 Bft) W-SW 247 0 min 0,0 UV-I 0 W/m -0,3 C 1,3 C 4,8 km/h (1 Bft)
31.01.2023 00:06 1,3 C 0,6 C 89 % 1028,3 hPa 0,0 l/m 4,8 km/h (1 Bft) W-SW 247 0 min 0,0 UV-I 0 W/m -0,3 C 1,3 C 8,0 km/h (2 Bft)
31.01.2023 00:07 1,3 C 0,6 C 89 % 1028,3 hPa 0,0 l/m 3,2 km/h (1 Bft) SW 225 0 min 0,0 UV-I 0 W/m -0,3 C 1,3 C 4,8 km/h (1 Bft)
31.01.2023 00:08 1,3 C 0,0 C 89 % 1028,3 hPa 0,0 l/m 4,8 km/h (1 Bft) SW 225 0 min 0,0 UV-I 0 W/m -0,3 C 1,3 C 9,7 km/h (2 Bft)
31.01.2023 00:09 1,3 C 0,6 C 88 % 1028,4 hPa 0,0 l/m 6,4 km/h (2 Bft) SW 225 0 min 0,0 UV-I 0 W/m -0,5 C 1,3 C 11,3 km/h (2 Bft)
31.01.2023 00:10 1,3 C 0,0 C 88 % 1028,3 hPa 0,0 l/m 8,0 km/h (2 Bft) W-SW 247 0 min 0,0 UV-I 0 W/m -0,5 C -0,3 C 14,5 km/h (3 Bft)
31.01.2023 00:11 1,3 C 0,0 C 88 % 1028,3 hPa 0,0 l/m 3,2 km/h (1 Bft) W-SW 247 0 min 0,0 UV-I 0 W/m -0,5 C 1,3 C 4,8 km/h (1 Bft)
31.01.2023 00:12 1,3 C 0,6 C 88 % 1028,3 hPa 0,0 l/m 8,0 km/h (2 Bft) SW 225 0 min 0,0 UV-I 0 W/m -0,5 C -0,3 C 12,9 km/h (3 Bft)
31.01.2023 00:13 1,3 C 0,6 C 88 % 1028,3 hPa 0,0 l/m 4,8 km/h (1 Bft) SW 225 0 min 0,0 UV-I 0 W/m -0,5 C 1,3 C 6,4 km/h (2 Bft)
31.01.2023 00:14 1,3 C 0,6 C 88 % 1028,3 hPa 0,0 l/m 3,2 km/h (1 Bft) SW 225 0 min 0,0 UV-I 0 W/m -0,5 C 1,3 C 6,4 km/h (2 Bft)
31.01.2023 00:15 1,3 C 0,6 C 88 % 1028,3 hPa 0,0 l/m 4,8 km/h (1 Bft) W-SW 247 0 min 0,0 UV-I 0 W/m -0,5 C 1,3 C 8,0 km/h (2 Bft)
31.01.2023 00:16 1,2 C 0,0 C 88 % 1028,3 hPa 0,0 l/m 3,2 km/h (1 Bft) SW 225 0 min 0,0 UV-I 0 W/m -0,6 C 1,2 C 6,4 km/h (2 Bft)
31.01.2023 00:17 1,2 C 0,0 C 88 % 1028,3 hPa 0,0 l/m 4,8 km/h (1 Bft) W-SW 247 0 min 0,0 UV-I 0 W/m -0,6 C 1,2 C 8,0 km/h (2 Bft)
31.01.2023 00:18 1,2 C 0,0 C 88 % 1028,3 hPa 0,0 l/m 1,6 km/h (1 Bft) W-SW 247 0 min 0,0 UV-I 0 W/m -0,6 C 1,2 C 3,2 km/h (1 Bft)
31.01.2023 00:19 1,2 C 0,0 C 88 % 1028,2 hPa 0,0 l/m 4,8 km/h (1 Bft) SW 225 0 min 0,0 UV-I 0 W/m -0,6 C 1,2 C 6,4 km/h (2 Bft)
31.01.2023 00:20 1,2 C 0,6 C 88 % 1028,1 hPa 0,0 l/m 3,2 km/h (1 Bft) SW 225 0 min 0,0 UV-I 0 W/m -0,6 C 1,2 C 6,4 km/h (2 Bft)
31.01.2023 00:21 1,2 C 0,6 C 89 % 1028,2 hPa 0,0 l/m 4,8 km/h (1 Bft) W-SW 247 0 min 0,0 UV-I 0 W/m -0,4 C 1,2 C 6,4 km/h (2 Bft)
31.01.2023 00:22 1,2 C 0,6 C 89 % 1028,2 hPa 0,0 l/m 6,4 km/h (2 Bft) W 270 0 min 0,0 UV-I 0 W/m -0,4 C 1,2 C 11,3 km/h (2 Bft)
31.01.2023 00:23 1,2 C 0,6 C 89 % 1028,3 hPa 0,0 l/m 6,4 km/h (2 Bft) W-SW 247 0 min 0,0 UV-I 0 W/m -0,4 C 1,2 C 11,3 km/h (2 Bft)
31.01.2023 00:24 1,2 C 0,6 C 89 % 1028,3 hPa 0,0 l/m 4,8 km/h (1 Bft) W-SW 247 0 min 0,0 UV-I 0 W/m -0,4 C 1,2 C 8,0 km/h (2 Bft)
31.01.2023 00:25 1,2 C 0,6 C 89 % 1028,2 hPa 0,0 l/m 6,4 km/h (2 Bft) W-SW 247 0 min 0,0 UV-I 0 W/m -0,4 C 1,2 C 12,9 km/h (3 Bft)
31.01.2023 00:26 1,2 C 0,6 C 89 % 1028,2 hPa 0,0 l/m 6,4 km/h (2 Bft) W-SW 247 0 min 0,0 UV-I 0 W/m -0,4 C 1,2 C 12,9 km/h (3 Bft)
31.01.2023 00:27 1,2 C 0,6 C 89 % 1028,1 hPa 0,0 l/m 3,2 km/h (1 Bft) W-SW 247 0 min 0,0 UV-I 0 W/m -0,4 C 1,2 C 4,8 km/h (1 Bft)
31.01.2023 00:28 1,2 C 0,6 C 89 % 1028,2 hPa 0,0 l/m 4,8 km/h (1 Bft) W-SW 247 0 min 0,0 UV-I 0 W/m -0,4 C 1,2 C 8,0 km/h (2 Bft)
31.01.2023 00:29 1,2 C 0,6 C 89 % 1028,3 hPa 0,0 l/m 4,8 km/h (1 Bft) SW 225 0 min 0,0 UV-I 0 W/m -0,4 C 1,2 C 8,0 km/h (2 Bft)
31.01.2023 00:30 1,3 C 0,6 C 89 % 1028,1 hPa 0,0 l/m 3,2 km/h (1 Bft) SW 225 0 min 0,0 UV-I 0 W/m -0,3 C 1,3 C 6,4 km/h (2 Bft)
31.01.2023 00:31 1,3 C 1,1 C 89 % 1028,1 hPa 0,0 l/m 8,0 km/h (2 Bft) W-SW 247 0 min 0,0 UV-I 0 W/m -0,3 C -0,3 C 12,9 km/h (3 Bft)
31.01.2023 00:32 1,3 C 1,1 C 89 % 1028,2 hPa 0,0 l/m 3,2 km/h (1 Bft) W-SW 247 0 min 0,0 UV-I 0 W/m -0,3 C 1,3 C 4,8 km/h (1 Bft)
31.01.2023 00:33 1,3 C 1,1 C 89 % 1028,1 hPa 0,0 l/m 3,2 km/h (1 Bft) SW 225 0 min 0,0 UV-I 0 W/m -0,3 C 1,3 C 6,4 km/h (2 Bft)
31.01.2023 00:34 1,3 C 0,6 C 89 % 1028,2 hPa 0,0 l/m 1,6 km/h (1 Bft) SW 225 0 min 0,0 UV-I 0 W/m -0,3 C 1,3 C 4,8 km/h (1 Bft)
31.01.2023 00:35 1,3 C 0,6 C 89 % 1028,1 hPa 0,0 l/m 3,2 km/h (1 Bft) SW 225 0 min 0,0 UV-I 0 W/m -0,3 C 1,3 C 4,8 km/h (1 Bft)
31.01.2023 00:36 1,3 C 0,6 C 89 % 1028,2 hPa 0,0 l/m 1,6 km/h (1 Bft) SW 225 0 min 0,0 UV-I 0 W/m -0,3 C 1,3 C 3,2 km/h (1 Bft)
31.01.2023 00:37 1,3 C 0,6 C 89 % 1028,2 hPa 0,0 l/m 1,6 km/h (1 Bft) SW 225 0 min 0,0 UV-I 0 W/m -0,3 C 1,3 C 3,2 km/h (1 Bft)
31.01.2023 00:38 1,3 C 0,6 C 89 % 1028,2 hPa 0,0 l/m 4,8 km/h (1 Bft) SW 225 0 min 0,0 UV-I 0 W/m -0,3 C 1,3 C 6,4 km/h (2 Bft)
31.01.2023 00:39 1,3 C 0,6 C 89 % 1028,3 hPa 0,0 l/m 3,2 km/h (1 Bft) SW 225 0 min 0,0 UV-I 0 W/m -0,3 C 1,3 C 4,8 km/h (1 Bft)
31.01.2023 00:40 1,3 C 0,6 C 89 % 1028,2 hPa 0,0 l/m 1,6 km/h (1 Bft) SW 225 0 min 0,0 UV-I 0 W/m -0,3 C 1,3 C 3,2 km/h (1 Bft)
31.01.2023 00:41 1,3 C 0,6 C 89 % 1028,2 hPa 0,0 l/m 1,6 km/h (1 Bft) SW 225 0 min 0,0 UV-I 0 W/m -0,3 C 1,3 C 3,2 km/h (1 Bft)
31.01.2023 00:42 1,3 C 0,6 C 89 % 1028,2 hPa 0,0 l/m 1,6 km/h (1 Bft) SW 225 0 min 0,0 UV-I 0 W/m -0,3 C 1,3 C 3,2 km/h (1 Bft)
31.01.2023 00:43 1,3 C 0,6 C 89 % 1028,2 hPa 0,0 l/m 3,2 km/h (1 Bft) SW 225 0 min 0,0 UV-I 0 W/m -0,3 C 1,3 C 4,8 km/h (1 Bft)
31.01.2023 00:44 1,3 C 0,6 C 89 % 1028,2 hPa 0,0 l/m 3,2 km/h (1 Bft) SW 225 0 min 0,0 UV-I 0 W/m -0,3 C 1,3 C 3,2 km/h (1 Bft)
31.01.2023 00:45 1,3 C 0,6 C 89 % 1028,2 hPa 0,0 l/m 1,6 km/h (1 Bft) SW 225 0 min 0,0 UV-I 0 W/m -0,3 C 1,3 C 3,2 km/h (1 Bft)
31.01.2023 00:46 1,3 C 0,6 C 89 % 1028,2 hPa 0,0 l/m 3,2 km/h (1 Bft) W-SW 247 0 min 0,0 UV-I 0 W/m -0,3 C 1,3 C 8,0 km/h (2 Bft)
31.01.2023 00:47 1,3 C 0,6 C 89 % 1028,0 hPa 0,0 l/m 4,8 km/h (1 Bft) W-SW 247 0 min 0,0 UV-I 0 W/m -0,3 C 1,3 C 11,3 km/h (2 Bft)
31.01.2023 00:48 1,3 C 0,6 C 89 % 1028,0 hPa 0,0 l/m 4,8 km/h (1 Bft) SW 225 0 min 0,0 UV-I 0 W/m -0,3 C 1,3 C 8,0 km/h (2 Bft)
31.01.2023 00:49 1,3 C 0,6 C 89 % 1028,0 hPa 0,0 l/m 1,6 km/h (1 Bft) W-SW 247 0 min 0,0 UV-I 0 W/m -0,3 C 1,3 C 4,8 km/h (1 Bft)
31.01.2023 00:50 1,3 C 0,6 C 89 % 1028,1 hPa 0,0 l/m 1,6 km/h (1 Bft) W-SW 247 0 min 0,0 UV-I 0 W/m -0,3 C 1,3 C 3,2 km/h (1 Bft)
31.01.2023 00:51 1,3 C 0,6 C 89 % 1028,1 hPa 0,0 l/m 4,8 km/h (1 Bft) SW 225 0 min 0,0 UV-I 0 W/m -0,3 C 1,3 C 8,0 km/h (2 Bft)
31.01.2023 00:52 1,3 C 0,6 C 89 % 1028,1 hPa 0,0 l/m 3,2 km/h (1 Bft) SW 225 0 min 0,0 UV-I 0 W/m -0,3 C 1,3 C 4,8 km/h (1 Bft)
31.01.2023 00:53 1,3 C 0,6 C 89 % 1028,0 hPa 0,0 l/m 3,2 km/h (1 Bft) W-SW 247 0 min 0,0 UV-I 0 W/m -0,3 C 1,3 C 4,8 km/h (1 Bft)
31.01.2023 00:54 1,2 C 0,6 C 89 % 1028,0 hPa 0,0 l/m 3,2 km/h (1 Bft) W-SW 247 0 min 0,0 UV-I 0 W/m -0,4 C 1,2 C 4,8 km/h (1 Bft)
31.01.2023 00:55 1,3 C 0,6 C 89 % 1028,0 hPa 0,0 l/m 3,2 km/h (1 Bft) W-SW 247 0 min 0,0 UV-I 0 W/m -0,3 C 1,3 C 4,8 km/h (1 Bft)
31.01.2023 00:56 1,3 C 0,6 C 89 % 1028,1 hPa 0,0 l/m 3,2 km/h (1 Bft) W-SW 247 0 min 0,0 UV-I 0 W/m -0,3 C 1,3 C 6,4 km/h (2 Bft)
31.01.2023 00:57 1,3 C 0,6 C 89 % 1028,0 hPa 0,0 l/m 1,6 km/h (1 Bft) W-SW 247 0 min 0,0 UV-I 0 W/m -0,3 C 1,3 C 4,8 km/h (1 Bft)
31.01.2023 00:58 1,2 C 0,0 C 89 % 1028,0 hPa 0,0 l/m 3,2 km/h (1 Bft) W 270 0 min 0,0 UV-I 0 W/m -0,4 C 1,2 C 6,4 km/h (2 Bft)
31.01.2023 00:59 1,2 C 0,0 C 89 % 1028,0 hPa 0,0 l/m 4,8 km/h (1 Bft) SW 225 0 min 0,0 UV-I 0 W/m -0,4 C 1,2 C 4,8 km/h (1 Bft)
31.01.2023 01:00 1,2 C 0,0 C 89 % 1028,1 hPa 0,0 l/m 1,6 km/h (1 Bft) SW 225 0 min 0,0 UV-I 0 W/m -0,4 C 1,2 C 3,2 km/h (1 Bft)
31.01.2023 01:01 1,2 C 0,0 C 89 % 1028,0 hPa 0,0 l/m 4,8 km/h (1 Bft) SW 225 0 min 0,0 UV-I 0 W/m -0,4 C 1,2 C 6,4 km/h (2 Bft)
31.01.2023 01:02 1,2 C 0,0 C 89 % 1028,0 hPa 0,0 l/m 3,2 km/h (1 Bft) SW 225 0 min 0,0 UV-I 0 W/m -0,4 C 1,2 C 4,8 km/h (1 Bft)
31.01.2023 01:03 1,2 C 0,0 C 89 % 1028,0 hPa 0,0 l/m 1,6 km/h (1 Bft) SW 225 0 min 0,0 UV-I 0 W/m -0,4 C 1,2 C 3,2 km/h (1 Bft)
31.01.2023 01:04 1,1 C 0,0 C 89 % 1028,0 hPa 0,0 l/m 1,6 km/h (1 Bft) SW 225 0 min 0,0 UV-I 0 W/m -0,5 C 1,1 C 3,2 km/h (1 Bft)
31.01.2023 01:05 1,2 C 0,0 C 89 % 1028,0 hPa 0,0 l/m 1,6 km/h (1 Bft) SW 225 0 min 0,0 UV-I 0 W/m -0,4 C 1,2 C 4,8 km/h (1 Bft)
31.01.2023 01:06 1,1 C 0,0 C 89 % 1028,0 hPa 0,0 l/m 3,2 km/h (1 Bft) SW 225 0 min 0,0 UV-I 0 W/m -0,5 C 1,1 C 4,8 km/h (1 Bft)
31.01.2023 01:07 1,1 C 0,0 C 89 % 1028,0 hPa 0,0 l/m 4,8 km/h (1 Bft) SW 225 0 min 0,0 UV-I 0 W/m -0,5 C 1,1 C 6,4 km/h (2 Bft)
31.01.2023 01:08 1,1 C 0,0 C 89 % 1028,1 hPa 0,0 l/m 3,2 km/h (1 Bft) W-SW 247 0 min 0,0 UV-I 0 W/m -0,5 C 1,1 C 6,4 km/h (2 Bft)
31.01.2023 01:09 1,1 C 0,0 C 89 % 1028,1 hPa 0,0 l/m 3,2 km/h (1 Bft) SW 225 0 min 0,0 UV-I 0 W/m -0,5 C 1,1 C 6,4 km/h (2 Bft)
31.01.2023 01:10 1,1 C 0,0 C 89 % 1028,0 hPa 0,0 l/m 4,8 km/h (1 Bft) SW 225 0 min 0,0 UV-I 0 W/m -0,5 C 1,1 C 9,7 km/h (2 Bft)
31.01.2023 01:11 1,1 C 0,0 C 89 % 1028,1 hPa 0,0 l/m 4,8 km/h (1 Bft) SW 225 0 min 0,0 UV-I 0 W/m -0,5 C 1,1 C 8,0 km/h (2 Bft)
31.01.2023 01:12 1,0 C 0,0 C 89 % 1028,1 hPa 0,0 l/m 3,2 km/h (1 Bft) SW 225 0 min 0,0 UV-I 0 W/m -0,6 C 1,0 C 4,8 km/h (1 Bft)
31.01.2023 01:13 1,1 C 0,0 C 89 % 1028,1 hPa 0,0 l/m 4,8 km/h (1 Bft) W-SW 247 0 min 0,0 UV-I 0 W/m -0,5 C 1,1 C 9,7 km/h (2 Bft)
31.01.2023 01:14 1,0 C 0,0 C 89 % 1028,2 hPa 0,0 l/m 4,8 km/h (1 Bft) S-SW 202 0 min 0,0 UV-I 0 W/m -0,6 C 1,0 C 6,4 km/h (2 Bft)
31.01.2023 01:15 1,0 C 0,0 C 89 % 1028,2 hPa 0,0 l/m 3,2 km/h (1 Bft) W-SW 247 0 min 0,0 UV-I 0 W/m -0,6 C 1,0 C 4,8 km/h (1 Bft)
31.01.2023 01:16 1,0 C 0,0 C 89 % 1028,2 hPa 0,0 l/m 4,8 km/h (1 Bft) SW 225 0 min 0,0 UV-I 0 W/m -0,6 C 1,0 C 6,4 km/h (2 Bft)
31.01.2023 01:17 1,0 C 0,0 C 89 % 1028,3 hPa 0,0 l/m 1,6 km/h (1 Bft) SW 225 0 min 0,0 UV-I 0 W/m -0,6 C 1,0 C 4,8 km/h (1 Bft)
31.01.2023 01:18 1,0 C 0,0 C 89 % 1028,2 hPa 0,0 l/m 3,2 km/h (1 Bft) SW 225 0 min 0,0 UV-I 0 W/m -0,6 C 1,0 C 4,8 km/h (1 Bft)
31.01.2023 01:19 0,9 C 0,0 C 89 % 1028,2 hPa 0,0 l/m 4,8 km/h (1 Bft) SW 225 0 min 0,0 UV-I 0 W/m -0,7 C 0,9 C 6,4 km/h (2 Bft)
31.01.2023 01:20 0,9 C 0,0 C 89 % 1028,2 hPa 0,0 l/m 3,2 km/h (1 Bft) SW 225 0 min 0,0 UV-I 0 W/m -0,7 C 0,9 C 6,4 km/h (2 Bft)
31.01.2023 01:21 0,9 C 0,0 C 89 % 1028,2 hPa 0,0 l/m 3,2 km/h (1 Bft) SW 225 0 min 0,0 UV-I 0 W/m -0,7 C 0,9 C 6,4 km/h (2 Bft)
31.01.2023 01:22 0,9 C -0,6 C 89 % 1028,2 hPa 0,0 l/m 4,8 km/h (1 Bft) W-SW 247 0 min 0,0 UV-I 0 W/m -0,7 C 0,9 C 8,0 km/h (2 Bft)
31.01.2023 01:23 0,9 C -0,6 C 89 % 1028,2 hPa 0,0 l/m 3,2 km/h (1 Bft) SW 225 0 min 0,0 UV-I 0 W/m -0,7 C 0,9 C 6,4 km/h (2 Bft)
31.01.2023 01:24 0,9 C -0,6 C 89 % 1028,2 hPa 0,0 l/m 3,2 km/h (1 Bft) SW 225 0 min 0,0 UV-I 0 W/m -0,7 C 0,9 C 6,4 km/h (2 Bft)
31.01.2023 01:25 0,9 C -0,6 C 89 % 1028,1 hPa 0,0 l/m 0,0 km/h (0 Bft) SW 225 0 min 0,0 UV-I 0 W/m -0,7 C 0,9 C 1,6 km/h (1 Bft)
31.01.2023 01:26 0,8 C -0,6 C 89 % 1028,2 hPa 0,0 l/m 1,6 km/h (1 Bft) SW 225 0 min 0,0 UV-I 0 W/m -0,8 C 0,8 C 3,2 km/h (1 Bft)
31.01.2023 01:27 0,8 C -0,6 C 89 % 1028,1 hPa 0,0 l/m 3,2 km/h (1 Bft) SW 225 0 min 0,0 UV-I 0 W/m -0,8 C 0,8 C 4,8 km/h (1 Bft)
31.01.2023 01:28 0,8 C -0,6 C 89 % 1028,1 hPa 0,0 l/m 3,2 km/h (1 Bft) SW 225 0 min 0,0 UV-I 0 W/m -0,8 C 0,8 C 6,4 km/h (2 Bft)
31.01.2023 01:29 0,8 C -0,6 C 89 % 1028,1 hPa 0,0 l/m 3,2 km/h (1 Bft) S-SW 202 0 min 0,0 UV-I 0 W/m -0,8 C 0,8 C 6,4 km/h (2 Bft)
31.01.2023 01:30 0,8 C -0,6 C 89 % 1028,2 hPa 0,0 l/m 1,6 km/h (1 Bft) S-SW 202 0 min 0,0 UV-I 0 W/m -0,8 C 0,8 C 4,8 km/h (1 Bft)
31.01.2023 01:31 0,8 C -0,6 C 89 % 1028,2 hPa 0,0 l/m 4,8 km/h (1 Bft) S-SW 202 0 min 0,0 UV-I 0 W/m -0,8 C 0,8 C 8,0 km/h (2 Bft)
31.01.2023 01:32 0,8 C -0,6 C 89 % 1028,2 hPa 0,0 l/m 4,8 km/h (1 Bft) SW 225 0 min 0,0 UV-I 0 W/m -0,8 C 0,8 C 8,0 km/h (2 Bft)
31.01.2023 01:33 0,7 C -0,6 C 89 % 1028,2 hPa 0,0 l/m 8,0 km/h (2 Bft) W-SW 247 0 min 0,0 UV-I 0 W/m -0,9 C -0,9 C 11,3 km/h (2 Bft)
31.01.2023 01:34 0,7 C -0,6 C 89 % 1028,2 hPa 0,0 l/m 4,8 km/h (1 Bft) SW 225 0 min 0,0 UV-I 0 W/m -0,9 C 0,7 C 6,4 km/h (2 Bft)
31.01.2023 01:35 0,7 C -0,6 C 89 % 1028,2 hPa 0,0 l/m 3,2 km/h (1 Bft) S-SW 202 0 min 0,0 UV-I 0 W/m -0,9 C 0,7 C 6,4 km/h (2 Bft)
31.01.2023 01:36 0,7 C -0,6 C 89 % 1028,3 hPa 0,0 l/m 3,2 km/h (1 Bft) S-SW 202 0 min 0,0 UV-I 0 W/m -0,9 C 0,7 C 6,4 km/h (2 Bft)
31.01.2023 01:37 0,7 C -0,6 C 89 % 1028,2 hPa 0,0 l/m 4,8 km/h (1 Bft) SW 225 0 min 0,0 UV-I 0 W/m -0,9 C 0,7 C 8,0 km/h (2 Bft)
31.01.2023 01:38 0,7 C -0,6 C 89 % 1028,3 hPa 0,0 l/m 3,2 km/h (1 Bft) SW 225 0 min 0,0 UV-I 0 W/m -0,9 C 0,7 C 4,8 km/h (1 Bft)
31.01.2023 01:39 0,6 C -0,6 C 89 % 1028,2 hPa 0,0 l/m 4,8 km/h (1 Bft) S-SW 202 0 min 0,0 UV-I 0 W/m -1,0 C 0,6 C 8,0 km/h (2 Bft)
31.01.2023 01:40 0,6 C -0,6 C 89 % 1028,2 hPa 0,0 l/m 4,8 km/h (1 Bft) S-SW 202 0 min 0,0 UV-I 0 W/m -1,0 C 0,6 C 6,4 km/h (2 Bft)
31.01.2023 01:41 0,6 C -0,6 C 89 % 1028,2 hPa 0,0 l/m 1,6 km/h (1 Bft) S-SW 202 0 min 0,0 UV-I 0 W/m -1,0 C 0,6 C 4,8 km/h (1 Bft)
31.01.2023 01:42 0,6 C -0,6 C 89 % 1028,2 hPa 0,0 l/m 6,4 km/h (2 Bft) SW 225 0 min 0,0 UV-I 0 W/m -1,0 C 0,6 C 11,3 km/h (2 Bft)
31.01.2023 01:43 0,6 C -0,6 C 89 % 1028,3 hPa 0,0 l/m 4,8 km/h (1 Bft) SW 225 0 min 0,0 UV-I 0 W/m -1,0 C 0,6 C 6,4 km/h (2 Bft)
31.01.2023 01:44 0,6 C -0,6 C 89 % 1028,2 hPa 0,0 l/m 3,2 km/h (1 Bft) SW 225 0 min 0,0 UV-I 0 W/m -1,0 C 0,6 C 4,8 km/h (1 Bft)
31.01.2023 01:45 0,6 C -0,6 C 89 % 1028,2 hPa 0,0 l/m 3,2 km/h (1 Bft) SW 225 0 min 0,0 UV-I 0 W/m -1,0 C 0,6 C 6,4 km/h (2 Bft)
31.01.2023 01:46 0,6 C -0,6 C 89 % 1028,3 hPa 0,0 l/m 3,2 km/h (1 Bft) SW 225 0 min 0,0 UV-I 0 W/m -1,0 C 0,6 C 4,8 km/h (1 Bft)
31.01.2023 01:47 0,6 C -0,6 C 89 % 1028,2 hPa 0,0 l/m 3,2 km/h (1 Bft) SW 225 0 min 0,0 UV-I 0 W/m -1,0 C 0,6 C 8,0 km/h (2 Bft)
31.01.2023 01:48 0,5 C -0,6 C 89 % 1028,2 hPa 0,0 l/m 4,8 km/h (1 Bft) W-SW 247 0 min 0,0 UV-I 0 W/m -1,1 C 0,5 C 8,0 km/h (2 Bft)
31.01.2023 01:49 0,6 C -0,6 C 89 % 1028,2 hPa 0,0 l/m 4,8 km/h (1 Bft) SW 225 0 min 0,0 UV-I 0 W/m -1,0 C 0,6 C 8,0 km/h (2 Bft)
31.01.2023 01:50 0,5 C -0,6 C 89 % 1028,2 hPa 0,0 l/m 6,4 km/h (2 Bft) SW 225 0 min 0,0 UV-I 0 W/m -1,1 C 0,5 C 8,0 km/h (2 Bft)
31.01.2023 01:51 0,5 C -0,6 C 89 % 1028,2 hPa 0,0 l/m 4,8 km/h (1 Bft) SW 225 0 min 0,0 UV-I 0 W/m -1,1 C 0,5 C 6,4 km/h (2 Bft)
31.01.2023 01:52 0,4 C -0,6 C 89 % 1028,2 hPa 0,0 l/m 4,8 km/h (1 Bft) S-SW 202 0 min 0,0 UV-I 0 W/m -1,2 C 0,4 C 8,0 km/h (2 Bft)
31.01.2023 01:53 0,5 C -0,6 C 89 % 1028,1 hPa 0,0 l/m 3,2 km/h (1 Bft) S-SW 202 0 min 0,0 UV-I 0 W/m -1,1 C 0,5 C 4,8 km/h (1 Bft)
31.01.2023 01:54 0,5 C -1,1 C 89 % 1028,1 hPa 0,0 l/m 1,6 km/h (1 Bft) SW 225 0 min 0,0 UV-I 0 W/m -1,1 C 0,5 C 4,8 km/h (1 Bft)
31.01.2023 01:55 0,5 C -1,1 C 89 % 1028,1 hPa 0,0 l/m 4,8 km/h (1 Bft) W-SW 247 0 min 0,0 UV-I 0 W/m -1,1 C 0,5 C 9,7 km/h (2 Bft)
31.01.2023 01:56 0,4 C -1,1 C 89 % 1028,2 hPa 0,0 l/m 4,8 km/h (1 Bft) SW 225 0 min 0,0 UV-I 0 W/m -1,2 C 0,4 C 8,0 km/h (2 Bft)
31.01.2023 01:57 0,4 C -1,1 C 89 % 1028,2 hPa 0,0 l/m 4,8 km/h (1 Bft) SW 225 0 min 0,0 UV-I 0 W/m -1,2 C 0,4 C 6,4 km/h (2 Bft)
31.01.2023 01:58 0,4 C -1,1 C 89 % 1028,1 hPa 0,0 l/m 6,4 km/h (2 Bft) SW 225 0 min 0,0 UV-I 0 W/m -1,2 C 0,4 C 9,7 km/h (2 Bft)
31.01.2023 01:59 0,4 C -1,1 C 89 % 1028,1 hPa 0,0 l/m 6,4 km/h (2 Bft) SW 225 0 min 0,0 UV-I 0 W/m -1,2 C 0,4 C 9,7 km/h (2 Bft)
31.01.2023 02:00 0,4 C -1,1 C 89 % 1028,1 hPa 0,0 l/m 3,2 km/h (1 Bft) SW 225 0 min 0,0 UV-I 0 W/m -1,2 C 0,4 C 6,4 km/h (2 Bft)
31.01.2023 02:01 0,3 C -1,1 C 89 % 1028,1 hPa 0,0 l/m 4,8 km/h (1 Bft) SW 225 0 min 0,0 UV-I 0 W/m -1,3 C 0,3 C 6,4 km/h (2 Bft)
31.01.2023 02:02 0,4 C -1,1 C 90 % 1028,1 hPa 0,0 l/m 3,2 km/h (1 Bft) W-SW 247 0 min 0,0 UV-I 0 W/m -1,0 C 0,4 C 4,8 km/h (1 Bft)
31.01.2023 02:03 0,3 C -1,1 C 90 % 1028,1 hPa 0,0 l/m 4,8 km/h (1 Bft) W-SW 247 0 min 0,0 UV-I 0 W/m -1,1 C 0,3 C 6,4 km/h (2 Bft)
31.01.2023 02:04 0,3 C -1,1 C 90 % 1027,9 hPa 0,0 l/m 3,2 km/h (1 Bft) SW 225 0 min 0,0 UV-I 0 W/m -1,1 C 0,3 C 8,0 km/h (2 Bft)
31.01.2023 02:05 0,3 C -1,1 C 90 % 1028,1 hPa 0,0 l/m 4,8 km/h (1 Bft) W-SW 247 0 min 0,0 UV-I 0 W/m -1,1 C 0,3 C 8,0 km/h (2 Bft)
31.01.2023 02:06 0,3 C -1,1 C 90 % 1028,0 hPa 0,0 l/m 4,8 km/h (1 Bft) W-SW 247 0 min 0,0 UV-I 0 W/m -1,1 C 0,3 C 6,4 km/h (2 Bft)
31.01.2023 02:07 0,3 C -1,1 C 90 % 1028,1 hPa 0,0 l/m 3,2 km/h (1 Bft) SW 225 0 min 0,0 UV-I 0 W/m -1,1 C 0,3 C 6,4 km/h (2 Bft)
31.01.2023 02:08 0,3 C -1,1 C 90 % 1028,2 hPa 0,0 l/m 4,8 km/h (1 Bft) W-SW 247 0 min 0,0 UV-I 0 W/m -1,1 C 0,3 C 8,0 km/h (2 Bft)
31.01.2023 02:09 0,3 C -1,1 C 90 % 1028,1 hPa 0,0 l/m 4,8 km/h (1 Bft) SW 225 0 min 0,0 UV-I 0 W/m -1,1 C 0,3 C 6,4 km/h (2 Bft)
31.01.2023 02:10 0,3 C -1,1 C 90 % 1028,3 hPa 0,0 l/m 3,2 km/h (1 Bft) W-SW 247 0 min 0,0 UV-I 0 W/m -1,1 C 0,3 C 4,8 km/h (1 Bft)
31.01.2023 02:11 0,3 C -1,1 C 90 % 1028,3 hPa 0,0 l/m 4,8 km/h (1 Bft) W-SW 247 0 min 0,0 UV-I 0 W/m -1,1 C 0,3 C 9,7 km/h (2 Bft)
31.01.2023 02:12 0,3 C -1,1 C 90 % 1028,3 hPa 0,0 l/m 4,8 km/h (1 Bft) W-SW 247 0 min 0,0 UV-I 0 W/m -1,1 C 0,3 C 8,0 km/h (2 Bft)
31.01.2023 02:13 0,2 C -1,1 C 89 % 1028,2 hPa 0,0 l/m 6,4 km/h (2 Bft) W-SW 247 0 min 0,0 UV-I 0 W/m -1,4 C 0,2 C 11,3 km/h (2 Bft)
31.01.2023 02:14 0,2 C -1,1 C 90 % 1028,2 hPa 0,0 l/m 4,8 km/h (1 Bft) SW 225 0 min 0,0 UV-I 0 W/m -1,2 C 0,2 C 8,0 km/h (2 Bft)
31.01.2023 02:15 0,3 C -1,1 C 90 % 1028,2 hPa 0,0 l/m 4,8 km/h (1 Bft) W-SW 247 0 min 0,0 UV-I 0 W/m -1,1 C 0,3 C 12,9 km/h (3 Bft)
31.01.2023 02:16 0,2 C -0,6 C 90 % 1028,1 hPa 0,0 l/m 4,8 km/h (1 Bft) SW 225 0 min 0,0 UV-I 0 W/m -1,2 C 0,2 C 8,0 km/h (2 Bft)
31.01.2023 02:17 0,2 C -0,6 C 90 % 1028,3 hPa 0,0 l/m 4,8 km/h (1 Bft) SW 225 0 min 0,0 UV-I 0 W/m -1,2 C 0,2 C 8,0 km/h (2 Bft)
31.01.2023 02:18 0,2 C -0,6 C 90 % 1028,3 hPa 0,0 l/m 4,8 km/h (1 Bft) SW 225 0 min 0,0 UV-I 0 W/m -1,2 C 0,2 C 11,3 km/h (2 Bft)
31.01.2023 02:19 0,2 C -0,6 C 90 % 1028,3 hPa 0,0 l/m 4,8 km/h (1 Bft) SW 225 0 min 0,0 UV-I 0 W/m -1,2 C 0,2 C 8,0 km/h (2 Bft)
31.01.2023 02:20 0,2 C -0,6 C 90 % 1028,2 hPa 0,0 l/m 4,8 km/h (1 Bft) SW 225 0 min 0,0 UV-I 0 W/m -1,2 C 0,2 C 8,0 km/h (2 Bft)
31.01.2023 02:21 0,2 C -0,6 C 90 % 1028,2 hPa 0,0 l/m 3,2 km/h (1 Bft) SW 225 0 min 0,0 UV-I 0 W/m -1,2 C 0,2 C 8,0 km/h (2 Bft)
31.01.2023 02:22 0,2 C -0,6 C 90 % 1028,3 hPa 0,0 l/m 4,8 km/h (1 Bft) S-SW 202 0 min 0,0 UV-I 0 W/m -1,2 C 0,2 C 6,4 km/h (2 Bft)
31.01.2023 02:23 0,2 C -0,6 C 90 % 1028,3 hPa 0,0 l/m 6,4 km/h (2 Bft) SW 225 0 min 0,0 UV-I 0 W/m -1,2 C 0,2 C 8,0 km/h (2 Bft)
31.01.2023 02:24 0,2 C -0,6 C 90 % 1028,3 hPa 0,0 l/m 4,8 km/h (1 Bft) W-SW 247 0 min 0,0 UV-I 0 W/m -1,2 C 0,2 C 9,7 km/h (2 Bft)
31.01.2023 02:25 0,2 C -0,6 C 90 % 1028,3 hPa 0,0 l/m 4,8 km/h (1 Bft) W-SW 247 0 min 0,0 UV-I 0 W/m -1,2 C 0,2 C 11,3 km/h (2 Bft)
31.01.2023 02:26 0,2 C -0,6 C 90 % 1028,3 hPa 0,0 l/m 4,8 km/h (1 Bft) SW 225 0 min 0,0 UV-I 0 W/m -1,2 C 0,2 C 8,0 km/h (2 Bft)
31.01.2023 02:27 0,2 C -0,6 C 90 % 1028,3 hPa 0,0 l/m 4,8 km/h (1 Bft) W-SW 247 0 min 0,0 UV-I 0 W/m -1,2 C 0,2 C 9,7 km/h (2 Bft)
31.01.2023 02:28 0,2 C -0,6 C 90 % 1028,3 hPa 0,0 l/m 3,2 km/h (1 Bft) W 270 0 min 0,0 UV-I 0 W/m -1,2 C 0,2 C 6,4 km/h (2 Bft)
31.01.2023 02:29 0,2 C -0,6 C 90 % 1028,4 hPa 0,0 l/m 4,8 km/h (1 Bft) SW 225 0 min 0,0 UV-I 0 W/m -1,2 C 0,2 C 8,0 km/h (2 Bft)
31.01.2023 02:30 0,2 C -0,6 C 90 % 1028,4 hPa 0,0 l/m 4,8 km/h (1 Bft) SW 225 0 min 0,0 UV-I 0 W/m -1,2 C 0,2 C 8,0 km/h (2 Bft)
31.01.2023 02:31 0,2 C -0,6 C 90 % 1028,3 hPa 0,0 l/m 3,2 km/h (1 Bft) SW 225 0 min 0,0 UV-I 0 W/m -1,2 C 0,2 C 6,4 km/h (2 Bft)
31.01.2023 02:32 0,2 C -0,6 C 90 % 1028,3 hPa 0,0 l/m 6,4 km/h (2 Bft) SW 225 0 min 0,0 UV-I 0 W/m -1,2 C 0,2 C 9,7 km/h (2 Bft)
31.01.2023 02:33 0,2 C -1,1 C 90 % 1028,4 hPa 0,0 l/m 4,8 km/h (1 Bft) W-SW 247 0 min 0,0 UV-I 0 W/m -1,2 C 0,2 C 9,7 km/h (2 Bft)
31.01.2023 02:34 0,2 C -1,1 C 90 % 1028,3 hPa 0,0 l/m 3,2 km/h (1 Bft) W-SW 247 0 min 0,0 UV-I 0 W/m -1,2 C 0,2 C 6,4 km/h (2 Bft)
31.01.2023 02:35 0,2 C -1,1 C 90 % 1028,2 hPa 0,0 l/m 4,8 km/h (1 Bft) W-SW 247 0 min 0,0 UV-I 0 W/m -1,2 C 0,2 C 6,4 km/h (2 Bft)
31.01.2023 02:36 0,2 C -1,1 C 90 % 1028,2 hPa 0,0 l/m 3,2 km/h (1 Bft) SW 225 0 min 0,0 UV-I 0 W/m -1,2 C 0,2 C 4,8 km/h (1 Bft)
31.01.2023 02:37 0,2 C -1,1 C 90 % 1028,1 hPa 0,0 l/m 3,2 km/h (1 Bft) W-SW 247 0 min 0,0 UV-I 0 W/m -1,2 C 0,2 C 4,8 km/h (1 Bft)
31.01.2023 02:38 0,2 C -1,1 C 90 % 1028,2 hPa 0,0 l/m 3,2 km/h (1 Bft) W-SW 247 0 min 0,0 UV-I 0 W/m -1,2 C 0,2 C 8,0 km/h (2 Bft)
31.01.2023 02:39 0,2 C -1,1 C 90 % 1028,1 hPa 0,0 l/m 3,2 km/h (1 Bft) SW 225 0 min 0,0 UV-I 0 W/m -1,2 C 0,2 C 4,8 km/h (1 Bft)
31.01.2023 02:40 0,2 C -1,1 C 90 % 1028,1 hPa 0,0 l/m 3,2 km/h (1 Bft) SW 225 0 min 0,0 UV-I 0 W/m -1,2 C 0,2 C 4,8 km/h (1 Bft)
31.01.2023 02:41 0,1 C -1,1 C 90 % 1028,1 hPa 0,0 l/m 4,8 km/h (1 Bft) SW 225 0 min 0,0 UV-I 0 W/m -1,3 C 0,1 C 8,0 km/h (2 Bft)
31.01.2023 02:42 0,2 C -1,1 C 90 % 1028,3 hPa 0,0 l/m 4,8 km/h (1 Bft) W-SW 247 0 min 0,0 UV-I 0 W/m -1,2 C 0,2 C 8,0 km/h (2 Bft)
31.01.2023 02:43 0,2 C -1,1 C 90 % 1028,2 hPa 0,0 l/m 6,4 km/h (2 Bft) W-SW 247 0 min 0,0 UV-I 0 W/m -1,2 C 0,2 C 11,3 km/h (2 Bft)
31.01.2023 02:44 0,1 C -1,1 C 90 % 1028,1 hPa 0,0 l/m 4,8 km/h (1 Bft) W-SW 247 0 min 0,0 UV-I 0 W/m -1,3 C 0,1 C 6,4 km/h (2 Bft)
31.01.2023 02:45 0,1 C -1,1 C 90 % 1028,0 hPa 0,0 l/m 3,2 km/h (1 Bft) W-SW 247 0 min 0,0 UV-I 0 W/m -1,3 C 0,1 C 6,4 km/h (2 Bft)
31.01.2023 02:46 0,1 C -1,1 C 90 % 1028,1 hPa 0,0 l/m 4,8 km/h (1 Bft) SW 225 0 min 0,0 UV-I 0 W/m -1,3 C 0,1 C 8,0 km/h (2 Bft)
31.01.2023 02:47 0,1 C -1,1 C 90 % 1028,0 hPa 0,0 l/m 4,8 km/h (1 Bft) W-SW 247 0 min 0,0 UV-I 0 W/m -1,3 C 0,1 C 9,7 km/h (2 Bft)
31.01.2023 02:48 0,1 C -1,1 C 90 % 1028,1 hPa 0,0 l/m 4,8 km/h (1 Bft) W-SW 247 0 min 0,0 UV-I 0 W/m -1,3 C 0,1 C 12,9 km/h (3 Bft)
31.01.2023 02:49 0,1 C -1,1 C 90 % 1028,1 hPa 0,0 l/m 6,4 km/h (2 Bft) SW 225 0 min 0,0 UV-I 0 W/m -1,3 C 0,1 C 12,9 km/h (3 Bft)
31.01.2023 02:50 0,1 C -1,1 C 90 % 1028,1 hPa 0,0 l/m 3,2 km/h (1 Bft) SW 225 0 min 0,0 UV-I 0 W/m -1,3 C 0,1 C 9,7 km/h (2 Bft)
31.01.2023 02:51 0,1 C -1,1 C 90 % 1028,2 hPa 0,0 l/m 6,4 km/h (2 Bft) SW 225 0 min 0,0 UV-I 0 W/m -1,3 C 0,1 C 11,3 km/h (2 Bft)
31.01.2023 02:52 0,1 C -1,1 C 90 % 1028,1 hPa 0,0 l/m 4,8 km/h (1 Bft) SW 225 0 min 0,0 UV-I 0 W/m -1,3 C 0,1 C 8,0 km/h (2 Bft)
31.01.2023 02:53 0,1 C -1,1 C 90 % 1028,1 hPa 0,0 l/m 4,8 km/h (1 Bft) W-SW 247 0 min 0,0 UV-I 0 W/m -1,3 C 0,1 C 6,4 km/h (2 Bft)
31.01.2023 02:54 0,1 C -1,1 C 90 % 1028,1 hPa 0,0 l/m 4,8 km/h (1 Bft) SW 225 0 min 0,0 UV-I 0 W/m -1,3 C 0,1 C 9,7 km/h (2 Bft)
31.01.2023 02:55 0,1 C -1,1 C 90 % 1028,1 hPa 0,0 l/m 3,2 km/h (1 Bft) SW 225 0 min 0,0 UV-I 0 W/m -1,3 C 0,1 C 4,8 km/h (1 Bft)
31.01.2023 02:56 0,1 C -1,1 C 90 % 1028,1 hPa 0,0 l/m 1,6 km/h (1 Bft) SW 225 0 min 0,0 UV-I 0 W/m -1,3 C 0,1 C 3,2 km/h (1 Bft)
31.01.2023 02:57 0,1 C -1,1 C 90 % 1028,1 hPa 0,0 l/m 3,2 km/h (1 Bft) SW 225 0 min 0,0 UV-I 0 W/m -1,3 C 0,1 C 4,8 km/h (1 Bft)
31.01.2023 02:58 0,1 C -1,7 C 90 % 1028,1 hPa 0,0 l/m 1,6 km/h (1 Bft) W-SW 247 0 min 0,0 UV-I 0 W/m -1,3 C 0,1 C 4,8 km/h (1 Bft)
31.01.2023 02:59 0,1 C -1,7 C 90 % 1028,1 hPa 0,0 l/m 3,2 km/h (1 Bft) W-SW 247 0 min 0,0 UV-I 0 W/m -1,3 C 0,1 C 4,8 km/h (1 Bft)
31.01.2023 03:00 0,0 C -1,7 C 90 % 1028,1 hPa 0,0 l/m 3,2 km/h (1 Bft) W-SW 247 0 min 0,0 UV-I 0 W/m -1,4 C 0,0 C 4,8 km/h (1 Bft)
31.01.2023 03:01 0,0 C -1,7 C 90 % 1028,1 hPa 0,0 l/m 3,2 km/h (1 Bft) W-SW 247 0 min 0,0 UV-I 0 W/m -1,4 C 0,0 C 6,4 km/h (2 Bft)
31.01.2023 03:02 0,0 C -1,7 C 90 % 1028,1 hPa 0,0 l/m 3,2 km/h (1 Bft) W-SW 247 0 min 0,0 UV-I 0 W/m -1,4 C 0,0 C 4,8 km/h (1 Bft)
31.01.2023 03:03 -0,1 C -1,7 C 90 % 1028,0 hPa 0,0 l/m 3,2 km/h (1 Bft) W-SW 247 0 min 0,0 UV-I 0 W/m -1,5 C -0,1 C 4,8 km/h (1 Bft)
31.01.2023 03:04 -0,1 C -1,7 C 90 % 1028,1 hPa 0,0 l/m 3,2 km/h (1 Bft) SW 225 0 min 0,0 UV-I 0 W/m -1,5 C -0,1 C 4,8 km/h (1 Bft)
31.01.2023 03:05 -0,1 C -1,7 C 90 % 1028,1 hPa 0,0 l/m 4,8 km/h (1 Bft) W-SW 247 0 min 0,0 UV-I 0 W/m -1,5 C -0,1 C 6,4 km/h (2 Bft)
31.01.2023 03:06 -0,1 C -1,7 C 90 % 1028,1 hPa 0,0 l/m 3,2 km/h (1 Bft) SW 225 0 min 0,0 UV-I 0 W/m -1,5 C -0,1 C 6,4 km/h (2 Bft)
31.01.2023 03:07 -0,1 C -1,7 C 90 % 1028,1 hPa 0,0 l/m 3,2 km/h (1 Bft) SW 225 0 min 0,0 UV-I 0 W/m -1,5 C -0,1 C 3,2 km/h (1 Bft)
31.01.2023 03:08 -0,1 C -2,2 C 90 % 1028,0 hPa 0,0 l/m 1,6 km/h (1 Bft) SW 225 0 min 0,0 UV-I 0 W/m -1,5 C -0,1 C 3,2 km/h (1 Bft)
31.01.2023 03:09 -0,1 C -2,2 C 90 % 1028,0 hPa 0,0 l/m 3,2 km/h (1 Bft) SW 225 0 min 0,0 UV-I 0 W/m -1,5 C -0,1 C 6,4 km/h (2 Bft)
31.01.2023 03:10 -0,2 C -2,2 C 90 % 1028,1 hPa 0,0 l/m 3,2 km/h (1 Bft) W-SW 247 0 min 0,0 UV-I 0 W/m -1,6 C -0,2 C 6,4 km/h (2 Bft)
31.01.2023 03:11 -0,2 C -2,2 C 90 % 1028,0 hPa 0,0 l/m 3,2 km/h (1 Bft) W-SW 247 0 min 0,0 UV-I 0 W/m -1,6 C -0,2 C 4,8 km/h (1 Bft)
31.01.2023 03:12 -0,2 C -2,2 C 90 % 1028,1 hPa 0,0 l/m 3,2 km/h (1 Bft) W-SW 247 0 min 0,0 UV-I 0 W/m -1,6 C -0,2 C 4,8 km/h (1 Bft)
31.01.2023 03:13 -0,2 C -2,2 C 90 % 1028,1 hPa 0,0 l/m 3,2 km/h (1 Bft) W-SW 247 0 min 0,0 UV-I 0 W/m -1,6 C -0,2 C 6,4 km/h (2 Bft)
31.01.2023 03:14 -0,2 C -2,2 C 90 % 1028,1 hPa 0,0 l/m 3,2 km/h (1 Bft) SW 225 0 min 0,0 UV-I 0 W/m -1,6 C -0,2 C 3,2 km/h (1 Bft)
31.01.2023 03:15 -0,2 C -2,2 C 90 % 1028,1 hPa 0,0 l/m 3,2 km/h (1 Bft) SW 225 0 min 0,0 UV-I 0 W/m -1,6 C -0,2 C 6,4 km/h (2 Bft)
31.01.2023 03:16 -0,3 C -1,7 C 90 % 1028,1 hPa 0,0 l/m 4,8 km/h (1 Bft) W-SW 247 0 min 0,0 UV-I 0 W/m -1,7 C -0,3 C 6,4 km/h (2 Bft)
31.01.2023 03:17 -0,3 C -1,7 C 90 % 1028,0 hPa 0,0 l/m 3,2 km/h (1 Bft) W-SW 247 0 min 0,0 UV-I 0 W/m -1,7 C -0,3 C 6,4 km/h (2 Bft)
31.01.2023 03:18 -0,3 C -1,7 C 90 % 1028,1 hPa 0,0 l/m 3,2 km/h (1 Bft) SW 225 0 min 0,0 UV-I 0 W/m -1,7 C -0,3 C 4,8 km/h (1 Bft)
31.01.2023 03:19 -0,3 C -1,7 C 90 % 1028,0 hPa 0,0 l/m 3,2 km/h (1 Bft) W-SW 247 0 min 0,0 UV-I 0 W/m -1,7 C -0,3 C 4,8 km/h (1 Bft)
31.01.2023 03:20 -0,3 C -1,7 C 90 % 1028,0 hPa 0,0 l/m 1,6 km/h (1 Bft) W-SW 247 0 min 0,0 UV-I 0 W/m -1,7 C -0,3 C 6,4 km/h (2 Bft)
31.01.2023 03:21 -0,3 C -1,7 C 90 % 1028,1 hPa 0,0 l/m 3,2 km/h (1 Bft) W-SW 247 0 min 0,0 UV-I 0 W/m -1,7 C -0,3 C 6,4 km/h (2 Bft)
31.01.2023 03:22 -0,3 C -1,7 C 90 % 1028,0 hPa 0,0 l/m 4,8 km/h (1 Bft) S-SW 202 0 min 0,0 UV-I 0 W/m -1,7 C -0,3 C 8,0 km/h (2 Bft)
31.01.2023 03:23 -0,3 C -2,2 C 90 % 1028,1 hPa 0,0 l/m 1,6 km/h (1 Bft) S-SW 202 0 min 0,0 UV-I 0 W/m -1,7 C -0,3 C 4,8 km/h (1 Bft)
31.01.2023 03:24 -0,3 C -2,2 C 90 % 1028,0 hPa 0,0 l/m 3,2 km/h (1 Bft) SW 225 0 min 0,0 UV-I 0 W/m -1,7 C -0,3 C 3,2 km/h (1 Bft)
31.01.2023 03:25 -0,3 C -2,2 C 90 % 1028,0 hPa 0,0 l/m 3,2 km/h (1 Bft) SW 225 0 min 0,0 UV-I 0 W/m -1,7 C -0,3 C 4,8 km/h (1 Bft)
31.01.2023 03:26 -0,3 C -2,2 C 90 % 1027,9 hPa 0,0 l/m 3,2 km/h (1 Bft) W-SW 247 0 min 0,0 UV-I 0 W/m -1,7 C -0,3 C 4,8 km/h (1 Bft)
31.01.2023 03:27 -0,3 C -2,2 C 90 % 1027,9 hPa 0,0 l/m 3,2 km/h (1 Bft) SW 225 0 min 0,0 UV-I 0 W/m -1,7 C -0,3 C 6,4 km/h (2 Bft)
31.01.2023 03:28 -0,4 C -2,2 C 90 % 1027,8 hPa 0,0 l/m 3,2 km/h (1 Bft) SW 225 0 min 0,0 UV-I 0 W/m -1,8 C -0,4 C 6,4 km/h (2 Bft)
31.01.2023 03:29 -0,4 C -2,2 C 90 % 1027,9 hPa 0,0 l/m 3,2 km/h (1 Bft) SW 225 0 min 0,0 UV-I 0 W/m -1,8 C -0,4 C 6,4 km/h (2 Bft)
31.01.2023 03:30 -0,4 C -2,2 C 90 % 1027,8 hPa 0,0 l/m 4,8 km/h (1 Bft) SW 225 0 min 0,0 UV-I 0 W/m -1,8 C -0,4 C 6,4 km/h (2 Bft)
31.01.2023 03:31 -0,4 C -2,2 C 90 % 1027,8 hPa 0,0 l/m 1,6 km/h (1 Bft) SW 225 0 min 0,0 UV-I 0 W/m -1,8 C -0,4 C 3,2 km/h (1 Bft)
31.01.2023 03:32 -0,4 C -2,2 C 90 % 1027,8 hPa 0,0 l/m 3,2 km/h (1 Bft) SW 225 0 min 0,0 UV-I 0 W/m -1,8 C -0,4 C 6,4 km/h (2 Bft)
31.01.2023 03:33 -0,5 C -2,2 C 90 % 1027,8 hPa 0,0 l/m 4,8 km/h (1 Bft) W 270 0 min 0,0 UV-I 0 W/m -1,9 C -0,5 C 8,0 km/h (2 Bft)
31.01.2023 03:34 -0,5 C -2,2 C 90 % 1027,9 hPa 0,0 l/m 3,2 km/h (1 Bft) W-SW 247 0 min 0,0 UV-I 0 W/m -1,9 C -0,5 C 4,8 km/h (1 Bft)
31.01.2023 03:35 -0,6 C -2,2 C 90 % 1027,8 hPa 0,0 l/m 3,2 km/h (1 Bft) W-SW 247 0 min 0,0 UV-I 0 W/m -2,0 C -0,6 C 6,4 km/h (2 Bft)
31.01.2023 03:36 -0,6 C -2,2 C 90 % 1027,7 hPa 0,0 l/m 1,6 km/h (1 Bft) W-SW 247 0 min 0,0 UV-I 0 W/m -2,0 C -0,6 C 4,8 km/h (1 Bft)
31.01.2023 03:37 -0,6 C -2,2 C 90 % 1027,7 hPa 0,0 l/m 3,2 km/h (1 Bft) W-SW 247 0 min 0,0 UV-I 0 W/m -2,0 C -0,6 C 4,8 km/h (1 Bft)
31.01.2023 03:38 -0,6 C -2,2 C 90 % 1027,7 hPa 0,0 l/m 1,6 km/h (1 Bft) W-SW 247 0 min 0,0 UV-I 0 W/m -2,0 C -0,6 C 4,8 km/h (1 Bft)
31.01.2023 03:39 -0,6 C -2,2 C 90 % 1027,8 hPa 0,0 l/m 1,6 km/h (1 Bft) W-SW 247 0 min 0,0 UV-I 0 W/m -2,0 C -0,6 C 4,8 km/h (1 Bft)
31.01.2023 03:40 -0,6 C -2,2 C 90 % 1027,8 hPa 0,0 l/m 3,2 km/h (1 Bft) W-SW 247 0 min 0,0 UV-I 0 W/m -2,0 C -0,6 C 4,8 km/h (1 Bft)
31.01.2023 03:41 -0,6 C -2,2 C 90 % 1027,7 hPa 0,0 l/m 1,6 km/h (1 Bft) W-SW 247 0 min 0,0 UV-I 0 W/m -2,0 C -0,6 C 3,2 km/h (1 Bft)
31.01.2023 03:42 -0,6 C -2,2 C 90 % 1027,7 hPa 0,0 l/m 1,6 km/h (1 Bft) W-SW 247 0 min 0,0 UV-I 0 W/m -2,0 C -0,6 C 3,2 km/h (1 Bft)
31.01.2023 03:43 -0,7 C -2,2 C 90 % 1027,7 hPa 0,0 l/m 3,2 km/h (1 Bft) W-SW 247 0 min 0,0 UV-I 0 W/m -2,1 C -0,7 C 6,4 km/h (2 Bft)
31.01.2023 03:44 -0,7 C -2,2 C 90 % 1027,7 hPa 0,0 l/m 3,2 km/h (1 Bft) W-SW 247 0 min 0,0 UV-I 0 W/m -2,1 C -0,7 C 4,8 km/h (1 Bft)
31.01.2023 03:45 -0,6 C -2,2 C 90 % 1027,8 hPa 0,0 l/m 1,6 km/h (1 Bft) W-SW 247 0 min 0,0 UV-I 0 W/m -2,0 C -0,6 C 3,2 km/h (1 Bft)
31.01.2023 03:46 -0,7 C -2,2 C 90 % 1027,7 hPa 0,0 l/m 3,2 km/h (1 Bft) W-SW 247 0 min 0,0 UV-I 0 W/m -2,1 C -0,7 C 4,8 km/h (1 Bft)
31.01.2023 03:47 -0,7 C -2,2 C 90 % 1027,7 hPa 0,0 l/m 1,6 km/h (1 Bft) W-SW 247 0 min 0,0 UV-I 0 W/m -2,1 C -0,7 C 3,2 km/h (1 Bft)
31.01.2023 03:48 -0,7 C -2,2 C 90 % 1027,7 hPa 0,0 l/m 1,6 km/h (1 Bft) W-SW 247 0 min 0,0 UV-I 0 W/m -2,1 C -0,7 C 3,2 km/h (1 Bft)
31.01.2023 03:49 -0,7 C -2,2 C 90 % 1027,7 hPa 0,0 l/m 1,6 km/h (1 Bft) W-SW 247 0 min 0,0 UV-I 0 W/m -2,1 C -0,7 C 4,8 km/h (1 Bft)
31.01.2023 03:50 -0,7 C -2,2 C 90 % 1027,8 hPa 0,0 l/m 1,6 km/h (1 Bft) W-SW 247 0 min 0,0 UV-I 0 W/m -2,1 C -0,7 C 3,2 km/h (1 Bft)
31.01.2023 03:51 -0,7 C -2,2 C 90 % 1027,7 hPa 0,0 l/m 1,6 km/h (1 Bft) W-SW 247 0 min 0,0 UV-I 0 W/m -2,1 C -0,7 C 3,2 km/h (1 Bft)
31.01.2023 03:52 -0,7 C -1,7 C 90 % 1027,8 hPa 0,0 l/m 1,6 km/h (1 Bft) W-SW 247 0 min 0,0 UV-I 0 W/m -2,1 C -0,7 C 3,2 km/h (1 Bft)
31.01.2023 03:53 -0,7 C -1,7 C 91 % 1027,8 hPa 0,0 l/m 1,6 km/h (1 Bft) W-SW 247 0 min 0,0 UV-I 0 W/m -2,0 C -0,7 C 3,2 km/h (1 Bft)
31.01.2023 03:54 -0,7 C -1,7 C 91 % 1027,8 hPa 0,0 l/m 1,6 km/h (1 Bft) W-SW 247 0 min 0,0 UV-I 0 W/m -2,0 C -0,7 C 3,2 km/h (1 Bft)
31.01.2023 03:55 -0,7 C -1,7 C 91 % 1027,8 hPa 0,0 l/m 1,6 km/h (1 Bft) W-SW 247 0 min 0,0 UV-I 0 W/m -2,0 C -0,7 C 4,8 km/h (1 Bft)
31.01.2023 03:56 -0,7 C -1,7 C 91 % 1027,8 hPa 0,0 l/m 3,2 km/h (1 Bft) SW 225 0 min 0,0 UV-I 0 W/m -2,0 C -0,7 C 6,4 km/h (2 Bft)
31.01.2023 03:57 -0,7 C -1,1 C 91 % 1027,9 hPa 0,0 l/m 4,8 km/h (1 Bft) SW 225 0 min 0,0 UV-I 0 W/m -2,0 C -0,7 C 8,0 km/h (2 Bft)
31.01.2023 03:58 -0,7 C -1,1 C 91 % 1028,0 hPa 0,0 l/m 4,8 km/h (1 Bft) SW 225 0 min 0,0 UV-I 0 W/m -2,0 C -0,7 C 8,0 km/h (2 Bft)
31.01.2023 03:59 -0,6 C -1,1 C 91 % 1028,0 hPa 0,0 l/m 4,8 km/h (1 Bft) S-SW 202 0 min 0,0 UV-I 0 W/m -1,9 C -0,6 C 6,4 km/h (2 Bft)
31.01.2023 04:00 -0,6 C -1,1 C 91 % 1028,0 hPa 0,0 l/m 6,4 km/h (2 Bft) SW 225 0 min 0,0 UV-I 0 W/m -1,9 C -0,6 C 9,7 km/h (2 Bft)
31.01.2023 04:01 -0,5 C -0,6 C 91 % 1028,0 hPa 0,0 l/m 9,7 km/h (2 Bft) S-SW 202 0 min 0,0 UV-I 0 W/m -1,8 C -3,7 C 12,9 km/h (3 Bft)
31.01.2023 04:02 -0,4 C -0,6 C 91 % 1028,1 hPa 0,0 l/m 8,0 km/h (2 Bft) S-SW 202 0 min 0,0 UV-I 0 W/m -1,7 C -2,1 C 11,3 km/h (2 Bft)
31.01.2023 04:03 -0,3 C -0,6 C 91 % 1028,0 hPa 0,0 l/m 6,4 km/h (2 Bft) SW 225 0 min 0,0 UV-I 0 W/m -1,6 C -0,3 C 11,3 km/h (2 Bft)
31.01.2023 04:04 -0,3 C -0,6 C 91 % 1028,0 hPa 0,0 l/m 6,4 km/h (2 Bft) S-SW 202 0 min 0,0 UV-I 0 W/m -1,6 C -0,3 C 11,3 km/h (2 Bft)
31.01.2023 04:05 -0,3 C -0,6 C 91 % 1028,1 hPa 0,0 l/m 4,8 km/h (1 Bft) SW 225 0 min 0,0 UV-I 0 W/m -1,6 C -0,3 C 9,7 km/h (2 Bft)
31.01.2023 04:06 -0,2 C -0,6 C 91 % 1028,1 hPa 0,0 l/m 6,4 km/h (2 Bft) SW 225 0 min 0,0 UV-I 0 W/m -1,5 C -0,2 C 14,5 km/h (3 Bft)
31.01.2023 04:07 -0,1 C -0,6 C 91 % 1028,1 hPa 0,0 l/m 4,8 km/h (1 Bft) SW 225 0 min 0,0 UV-I 0 W/m -1,4 C -0,1 C 11,3 km/h (2 Bft)
31.01.2023 04:08 -0,1 C -0,6 C 91 % 1028,1 hPa 0,0 l/m 4,8 km/h (1 Bft) SW 225 0 min 0,0 UV-I 0 W/m -1,4 C -0,1 C 8,0 km/h (2 Bft)
31.01.2023 04:09 -0,1 C -0,6 C 91 % 1028,1 hPa 0,0 l/m 4,8 km/h (1 Bft) S-SW 202 0 min 0,0 UV-I 0 W/m -1,4 C -0,1 C 8,0 km/h (2 Bft)
31.01.2023 04:10 -0,1 C -0,6 C 91 % 1028,1 hPa 0,0 l/m 3,2 km/h (1 Bft) W-SW 247 0 min 0,0 UV-I 0 W/m -1,4 C -0,1 C 4,8 km/h (1 Bft)
31.01.2023 04:11 -0,1 C -0,6 C 91 % 1028,0 hPa 0,0 l/m 3,2 km/h (1 Bft) W-SW 247 0 min 0,0 UV-I 0 W/m -1,4 C -0,1 C 6,4 km/h (2 Bft)
31.01.2023 04:12 -0,1 C -0,6 C 91 % 1028,0 hPa 0,0 l/m 4,8 km/h (1 Bft) S-SW 202 0 min 0,0 UV-I 0 W/m -1,4 C -0,1 C 8,0 km/h (2 Bft)
31.01.2023 04:13 -0,1 C -0,6 C 91 % 1027,9 hPa 0,0 l/m 3,2 km/h (1 Bft) S-SW 202 0 min 0,0 UV-I 0 W/m -1,4 C -0,1 C 6,4 km/h (2 Bft)
31.01.2023 04:14 -0,1 C -0,6 C 91 % 1028,0 hPa 0,0 l/m 3,2 km/h (1 Bft) SW 225 0 min 0,0 UV-I 0 W/m -1,4 C -0,1 C 6,4 km/h (2 Bft)
31.01.2023 04:15 -0,1 C -0,6 C 91 % 1027,8 hPa 0,0 l/m 1,6 km/h (1 Bft) SW 225 0 min 0,0 UV-I 0 W/m -1,4 C -0,1 C 3,2 km/h (1 Bft)
31.01.2023 04:16 -0,1 C -0,6 C 91 % 1027,8 hPa 0,0 l/m 4,8 km/h (1 Bft) W-SW 247 0 min 0,0 UV-I 0 W/m -1,4 C -0,1 C 11,3 km/h (2 Bft)
31.01.2023 04:17 0,0 C -0,6 C 91 % 1027,8 hPa 0,0 l/m 4,8 km/h (1 Bft) SW 225 0 min 0,0 UV-I 0 W/m -1,3 C 0,0 C 9,7 km/h (2 Bft)
31.01.2023 04:18 0,0 C -0,6 C 91 % 1027,8 hPa 0,0 l/m 4,8 km/h (1 Bft) W-SW 247 0 min 0,0 UV-I 0 W/m -1,3 C 0,0 C 8,0 km/h (2 Bft)
31.01.2023 04:19 0,0 C -0,6 C 91 % 1027,7 hPa 0,0 l/m 3,2 km/h (1 Bft) W-SW 247 0 min 0,0 UV-I 0 W/m -1,3 C 0,0 C 6,4 km/h (2 Bft)
31.01.2023 04:20 0,0 C -0,6 C 91 % 1027,8 hPa 0,0 l/m 3,2 km/h (1 Bft) W-SW 247 0 min 0,0 UV-I 0 W/m -1,3 C 0,0 C 6,4 km/h (2 Bft)
31.01.2023 04:21 0,1 C -0,6 C 91 % 1027,8 hPa 0,0 l/m 4,8 km/h (1 Bft) SW 225 0 min 0,0 UV-I 0 W/m -1,2 C 0,1 C 8,0 km/h (2 Bft)
31.01.2023 04:22 0,1 C -0,6 C 91 % 1027,7 hPa 0,0 l/m 3,2 km/h (1 Bft) SW 225 0 min 0,0 UV-I 0 W/m -1,2 C 0,1 C 6,4 km/h (2 Bft)
31.01.2023 04:23 0,1 C -0,6 C 91 % 1027,7 hPa 0,0 l/m 4,8 km/h (1 Bft) SW 225 0 min 0,0 UV-I 0 W/m -1,2 C 0,1 C 11,3 km/h (2 Bft)
31.01.2023 04:24 0,1 C -0,6 C 91 % 1027,7 hPa 0,0 l/m 1,6 km/h (1 Bft) SW 225 0 min 0,0 UV-I 0 W/m -1,2 C 0,1 C 4,8 km/h (1 Bft)
31.01.2023 04:25 0,2 C 0,0 C 92 % 1027,7 hPa 0,0 l/m 8,0 km/h (2 Bft) S-SW 202 0 min 0,0 UV-I 0 W/m -0,9 C -1,4 C 11,3 km/h (2 Bft)
31.01.2023 04:26 0,2 C 0,0 C 91 % 1027,7 hPa 0,0 l/m 3,2 km/h (1 Bft) S-SW 202 0 min 0,0 UV-I 0 W/m -1,1 C 0,2 C 6,4 km/h (2 Bft)
31.01.2023 04:27 0,2 C 0,0 C 91 % 1027,7 hPa 0,0 l/m 6,4 km/h (2 Bft) SW 225 0 min 0,0 UV-I 0 W/m -1,1 C 0,2 C 12,9 km/h (3 Bft)
31.01.2023 04:28 0,3 C 0,0 C 92 % 1027,7 hPa 0,0 l/m 4,8 km/h (1 Bft) SW 225 0 min 0,0 UV-I 0 W/m -0,8 C 0,3 C 9,7 km/h (2 Bft)
31.01.2023 04:29 0,3 C 0,0 C 92 % 1027,8 hPa 0,0 l/m 3,2 km/h (1 Bft) SW 225 0 min 0,0 UV-I 0 W/m -0,8 C 0,3 C 8,0 km/h (2 Bft)
31.01.2023 04:30 0,3 C 0,0 C 92 % 1027,7 hPa 0,0 l/m 9,7 km/h (2 Bft) S-SW 202 0 min 0,0 UV-I 0 W/m -0,8 C -2,9 C 11,3 km/h (2 Bft)
31.01.2023 04:31 0,3 C 0,0 C 92 % 1027,7 hPa 0,0 l/m 6,4 km/h (2 Bft) S-SW 202 0 min 0,0 UV-I 0 W/m -0,8 C 0,3 C 12,9 km/h (3 Bft)
31.01.2023 04:32 0,4 C 0,0 C 92 % 1027,7 hPa 0,0 l/m 4,8 km/h (1 Bft) S-SW 202 0 min 0,0 UV-I 0 W/m -0,7 C 0,4 C 8,0 km/h (2 Bft)
31.01.2023 04:33 0,4 C 0,0 C 92 % 1027,7 hPa 0,0 l/m 4,8 km/h (1 Bft) S-SW 202 0 min 0,0 UV-I 0 W/m -0,7 C 0,4 C 8,0 km/h (2 Bft)
31.01.2023 04:34 0,4 C 0,0 C 92 % 1027,7 hPa 0,0 l/m 8,0 km/h (2 Bft) S-SW 202 0 min 0,0 UV-I 0 W/m -0,7 C -1,2 C 11,3 km/h (2 Bft)
31.01.2023 04:35 0,4 C 0,0 C 92 % 1027,8 hPa 0,0 l/m 9,7 km/h (2 Bft) S-SW 202 0 min 0,0 UV-I 0 W/m -0,7 C -2,8 C 11,3 km/h (2 Bft)
31.01.2023 04:36 0,4 C 0,0 C 92 % 1027,7 hPa 0,0 l/m 9,7 km/h (2 Bft) S-SW 202 0 min 0,0 UV-I 0 W/m -0,7 C -2,8 C 14,5 km/h (3 Bft)
31.01.2023 04:37 0,5 C 0,0 C 92 % 1027,7 hPa 0,0 l/m 9,7 km/h (2 Bft) S-SW 202 0 min 0,0 UV-I 0 W/m -0,6 C -2,6 C 12,9 km/h (3 Bft)
31.01.2023 04:38 0,5 C 0,0 C 92 % 1027,7 hPa 0,0 l/m 8,0 km/h (2 Bft) S-SW 202 0 min 0,0 UV-I 0 W/m -0,6 C -1,1 C 14,5 km/h (3 Bft)
31.01.2023 04:39 0,6 C 0,0 C 92 % 1027,6 hPa 0,0 l/m 8,0 km/h (2 Bft) S-SW 202 0 min 0,0 UV-I 0 W/m -0,5 C -1,0 C 12,9 km/h (3 Bft)
31.01.2023 04:40 0,5 C 0,0 C 92 % 1027,6 hPa 0,0 l/m 4,8 km/h (1 Bft) S 180 0 min 0,0 UV-I 0 W/m -0,6 C 0,5 C 6,4 km/h (2 Bft)
31.01.2023 04:41 0,6 C 0,0 C 92 % 1027,7 hPa 0,0 l/m 8,0 km/h (2 Bft) S-SW 202 0 min 0,0 UV-I 0 W/m -0,5 C -1,0 C 11,3 km/h (2 Bft)
31.01.2023 04:42 0,6 C 0,0 C 92 % 1027,7 hPa 0,0 l/m 6,4 km/h (2 Bft) S 180 0 min 0,0 UV-I 0 W/m -0,5 C 0,6 C 11,3 km/h (2 Bft)
31.01.2023 04:43 0,6 C 0,0 C 92 % 1027,6 hPa 0,0 l/m 8,0 km/h (2 Bft) S-SW 202 0 min 0,0 UV-I 0 W/m -0,5 C -1,0 C 11,3 km/h (2 Bft)
31.01.2023 04:44 0,6 C 0,0 C 92 % 1027,7 hPa 0,0 l/m 8,0 km/h (2 Bft) SW 225 0 min 0,0 UV-I 0 W/m -0,5 C -1,0 C 9,7 km/h (2 Bft)
31.01.2023 04:45 0,5 C 0,0 C 92 % 1027,6 hPa 0,0 l/m 3,2 km/h (1 Bft) SW 225 0 min 0,0 UV-I 0 W/m -0,6 C 0,5 C 6,4 km/h (2 Bft)
31.01.2023 04:46 0,5 C 0,0 C 92 % 1027,7 hPa 0,0 l/m 4,8 km/h (1 Bft) SW 225 0 min 0,0 UV-I 0 W/m -0,6 C 0,5 C 9,7 km/h (2 Bft)
31.01.2023 04:47 0,5 C 0,0 C 92 % 1027,6 hPa 0,0 l/m 8,0 km/h (2 Bft) SW 225 0 min 0,0 UV-I 0 W/m -0,6 C -1,1 C 11,3 km/h (2 Bft)
31.01.2023 04:48 0,5 C 0,0 C 92 % 1027,7 hPa 0,0 l/m 9,7 km/h (2 Bft) S-SW 202 0 min 0,0 UV-I 0 W/m -0,6 C -2,6 C 14,5 km/h (3 Bft)
31.01.2023 04:49 0,6 C 0,0 C 92 % 1027,7 hPa 0,0 l/m 6,4 km/h (2 Bft) SW 225 0 min 0,0 UV-I 0 W/m -0,5 C 0,6 C 11,3 km/h (2 Bft)
31.01.2023 04:50 0,6 C 0,0 C 92 % 1027,7 hPa 0,0 l/m 6,4 km/h (2 Bft) SW 225 0 min 0,0 UV-I 0 W/m -0,5 C 0,6 C 14,5 km/h (3 Bft)
31.01.2023 04:51 0,6 C 0,0 C 92 % 1027,7 hPa 0,0 l/m 8,0 km/h (2 Bft) S-SW 202 0 min 0,0 UV-I 0 W/m -0,5 C -1,0 C 12,9 km/h (3 Bft)
31.01.2023 04:52 0,6 C 0,0 C 92 % 1027,7 hPa 0,0 l/m 8,0 km/h (2 Bft) SW 225 0 min 0,0 UV-I 0 W/m -0,5 C -1,0 C 9,7 km/h (2 Bft)
31.01.2023 04:53 0,5 C 0,0 C 92 % 1027,8 hPa 0,0 l/m 6,4 km/h (2 Bft) S-SW 202 0 min 0,0 UV-I 0 W/m -0,6 C 0,5 C 9,7 km/h (2 Bft)
31.01.2023 04:54 0,6 C 0,0 C 92 % 1027,8 hPa 0,0 l/m 6,4 km/h (2 Bft) S-SW 202 0 min 0,0 UV-I 0 W/m -0,5 C 0,6 C 11,3 km/h (2 Bft)
31.01.2023 04:55 0,6 C 0,0 C 92 % 1027,9 hPa 0,0 l/m 3,2 km/h (1 Bft) SW 225 0 min 0,0 UV-I 0 W/m -0,5 C 0,6 C 6,4 km/h (2 Bft)
31.01.2023 04:56 0,6 C 0,0 C 92 % 1027,8 hPa 0,0 l/m 3,2 km/h (1 Bft) SW 225 0 min 0,0 UV-I 0 W/m -0,5 C 0,6 C 6,4 km/h (2 Bft)
31.01.2023 04:57 0,5 C 0,0 C 92 % 1027,7 hPa 0,0 l/m 9,7 km/h (2 Bft) S-SW 202 0 min 0,0 UV-I 0 W/m -0,6 C -2,6 C 12,9 km/h (3 Bft)
31.01.2023 04:58 0,5 C 0,0 C 92 % 1027,7 hPa 0,0 l/m 6,4 km/h (2 Bft) S-SW 202 0 min 0,0 UV-I 0 W/m -0,6 C 0,5 C 9,7 km/h (2 Bft)
31.01.2023 04:59 0,5 C 0,0 C 92 % 1027,7 hPa 0,0 l/m 9,7 km/h (2 Bft) S-SW 202 0 min 0,0 UV-I 0 W/m -0,6 C -2,6 C 14,5 km/h (3 Bft)
31.01.2023 05:00 0,4 C 0,0 C 92 % 1027,8 hPa 0,0 l/m 11,3 km/h (2 Bft) S-SW 202 0 min 0,0 UV-I 0 W/m -0,7 C -4,0 C 16,1 km/h (3 Bft)
31.01.2023 05:01 0,4 C 0,0 C 92 % 1027,8 hPa 0,0 l/m 6,4 km/h (2 Bft) SW 225 0 min 0,0 UV-I 0 W/m -0,7 C 0,4 C 11,3 km/h (2 Bft)
31.01.2023 05:02 0,4 C 0,0 C 92 % 1027,9 hPa 0,0 l/m 4,8 km/h (1 Bft) S-SW 202 0 min 0,0 UV-I 0 W/m -0,7 C 0,4 C 11,3 km/h (2 Bft)
31.01.2023 05:03 0,4 C 0,0 C 92 % 1027,7 hPa 0,0 l/m 9,7 km/h (2 Bft) S 180 0 min 0,0 UV-I 0 W/m -0,7 C -2,8 C 12,9 km/h (3 Bft)
31.01.2023 05:04 0,4 C 0,0 C 92 % 1027,8 hPa 0,0 l/m 9,7 km/h (2 Bft) S-SW 202 0 min 0,0 UV-I 0 W/m -0,7 C -2,8 C 12,9 km/h (3 Bft)
31.01.2023 05:05 0,4 C 0,0 C 92 % 1027,9 hPa 0,0 l/m 9,7 km/h (2 Bft) S-SW 202 0 min 0,0 UV-I 0 W/m -0,7 C -2,8 C 12,9 km/h (3 Bft)
31.01.2023 05:06 0,4 C 0,0 C 92 % 1027,8 hPa 0,0 l/m 12,9 km/h (3 Bft) S-SW 202 0 min 0,0 UV-I 0 W/m -0,7 C -5,2 C 17,7 km/h (3 Bft)
31.01.2023 05:07 0,4 C 0,0 C 92 % 1027,8 hPa 0,0 l/m 11,3 km/h (2 Bft) S-SW 202 0 min 0,0 UV-I 0 W/m -0,7 C -4,0 C 14,5 km/h (3 Bft)
31.01.2023 05:08 0,4 C 0,0 C 92 % 1027,8 hPa 0,0 l/m 8,0 km/h (2 Bft) SW 225 0 min 0,0 UV-I 0 W/m -0,7 C -1,2 C 12,9 km/h (3 Bft)
31.01.2023 05:09 0,4 C 0,0 C 92 % 1027,8 hPa 0,0 l/m 6,4 km/h (2 Bft) SW 225 0 min 0,0 UV-I 0 W/m -0,7 C 0,4 C 9,7 km/h (2 Bft)
31.01.2023 05:10 0,3 C 0,0 C 92 % 1027,8 hPa 0,0 l/m 9,7 km/h (2 Bft) S-SW 202 0 min 0,0 UV-I 0 W/m -0,8 C -2,9 C 16,1 km/h (3 Bft)
31.01.2023 05:11 0,3 C 0,0 C 92 % 1027,9 hPa 0,0 l/m 6,4 km/h (2 Bft) SW 225 0 min 0,0 UV-I 0 W/m -0,8 C 0,3 C 11,3 km/h (2 Bft)
31.01.2023 05:12 0,3 C 0,0 C 92 % 1027,8 hPa 0,0 l/m 4,8 km/h (1 Bft) SW 225 0 min 0,0 UV-I 0 W/m -0,8 C 0,3 C 11,3 km/h (2 Bft)
31.01.2023 05:13 0,3 C 0,0 C 92 % 1027,8 hPa 0,0 l/m 11,3 km/h (2 Bft) S-SW 202 0 min 0,0 UV-I 0 W/m -0,8 C -4,1 C 16,1 km/h (3 Bft)
31.01.2023 05:14 0,3 C 0,0 C 92 % 1027,7 hPa 0,0 l/m 12,9 km/h (3 Bft) S-SW 202 0 min 0,0 UV-I 0 W/m -0,8 C -5,3 C 17,7 km/h (3 Bft)
31.01.2023 05:15 0,3 C 0,0 C 92 % 1027,7 hPa 0,0 l/m 11,3 km/h (2 Bft) S-SW 202 0 min 0,0 UV-I 0 W/m -0,8 C -4,1 C 12,9 km/h (3 Bft)
31.01.2023 05:16 0,3 C 0,0 C 92 % 1027,7 hPa 0,0 l/m 9,7 km/h (2 Bft) S-SW 202 0 min 0,0 UV-I 0 W/m -0,8 C -2,9 C 14,5 km/h (3 Bft)
31.01.2023 05:17 0,3 C 0,0 C 92 % 1027,8 hPa 0,0 l/m 11,3 km/h (2 Bft) S-SW 202 0 min 0,0 UV-I 0 W/m -0,8 C -4,1 C 17,7 km/h (3 Bft)
31.01.2023 05:18 0,3 C 0,0 C 92 % 1027,8 hPa 0,0 l/m 8,0 km/h (2 Bft) S 180 0 min 0,0 UV-I 0 W/m -0,8 C -1,3 C 12,9 km/h (3 Bft)
31.01.2023 05:19 0,3 C 0,0 C 92 % 1027,7 hPa 0,0 l/m 11,3 km/h (2 Bft) S-SW 202 0 min 0,0 UV-I 0 W/m -0,8 C -4,1 C 16,1 km/h (3 Bft)
31.01.2023 05:20 0,3 C 0,0 C 92 % 1027,7 hPa 0,0 l/m 14,5 km/h (3 Bft) S-SW 202 0 min 0,0 UV-I 0 W/m -0,8 C -6,3 C 17,7 km/h (3 Bft)
31.01.2023 05:21 0,3 C -0,6 C 92 % 1027,7 hPa 0,0 l/m 11,3 km/h (2 Bft) S-SW 202 0 min 0,0 UV-I 0 W/m -0,8 C -4,1 C 14,5 km/h (3 Bft)
31.01.2023 05:22 0,2 C -0,6 C 92 % 1027,7 hPa 0,0 l/m 9,7 km/h (2 Bft) S-SW 202 0 min 0,0 UV-I 0 W/m -0,9 C -3,0 C 12,9 km/h (3 Bft)
31.01.2023 05:23 0,2 C -0,6 C 92 % 1027,7 hPa 0,0 l/m 11,3 km/h (2 Bft) S-SW 202 0 min 0,0 UV-I 0 W/m -0,9 C -4,3 C 16,1 km/h (3 Bft)
31.01.2023 05:24 0,2 C -0,6 C 92 % 1027,6 hPa 0,0 l/m 11,3 km/h (2 Bft) S-SW 202 0 min 0,0 UV-I 0 W/m -0,9 C -4,3 C 16,1 km/h (3 Bft)
31.01.2023 05:25 0,2 C -0,6 C 92 % 1027,6 hPa 0,0 l/m 14,5 km/h (3 Bft) S-SW 202 0 min 0,0 UV-I 0 W/m -0,9 C -6,4 C 19,3 km/h (3 Bft)
31.01.2023 05:26 0,2 C -0,6 C 92 % 1027,7 hPa 0,0 l/m 12,9 km/h (3 Bft) S-SW 202 0 min 0,0 UV-I 0 W/m -0,9 C -5,4 C 17,7 km/h (3 Bft)
31.01.2023 05:27 0,1 C -0,6 C 92 % 1027,6 hPa 0,0 l/m 16,1 km/h (3 Bft) S-SW 202 0 min 0,0 UV-I 0 W/m -1,0 C -7,5 C 17,7 km/h (3 Bft)
31.01.2023 05:28 0,2 C -0,6 C 92 % 1027,7 hPa 0,0 l/m 11,3 km/h (2 Bft) S-SW 202 0 min 0,0 UV-I 0 W/m -0,9 C -4,3 C 16,1 km/h (3 Bft)
31.01.2023 05:29 0,1 C -0,6 C 92 % 1027,7 hPa 0,0 l/m 12,9 km/h (3 Bft) S-SW 202 0 min 0,0 UV-I 0 W/m -1,0 C -5,5 C 17,7 km/h (3 Bft)
31.01.2023 05:30 0,1 C -0,6 C 92 % 1027,8 hPa 0,0 l/m 12,9 km/h (3 Bft) S-SW 202 0 min 0,0 UV-I 0 W/m -1,0 C -5,5 C 17,7 km/h (3 Bft)
31.01.2023 05:31 0,1 C -0,6 C 92 % 1027,8 hPa 0,0 l/m 12,9 km/h (3 Bft) S-SW 202 0 min 0,0 UV-I 0 W/m -1,0 C -5,5 C 17,7 km/h (3 Bft)
31.01.2023 05:32 0,1 C -0,6 C 92 % 1027,7 hPa 0,0 l/m 12,9 km/h (3 Bft) S-SW 202 0 min 0,0 UV-I 0 W/m -1,0 C -5,5 C 17,7 km/h (3 Bft)
31.01.2023 05:33 0,1 C -0,6 C 92 % 1027,7 hPa 0,0 l/m 11,3 km/h (2 Bft) S-SW 202 0 min 0,0 UV-I 0 W/m -1,0 C -4,4 C 14,5 km/h (3 Bft)
31.01.2023 05:34 0,1 C -0,6 C 92 % 1027,7 hPa 0,0 l/m 9,7 km/h (2 Bft) S-SW 202 0 min 0,0 UV-I 0 W/m -1,0 C -3,1 C 12,9 km/h (3 Bft)
31.01.2023 05:35 0,1 C -0,6 C 92 % 1027,7 hPa 0,0 l/m 9,7 km/h (2 Bft) S-SW 202 0 min 0,0 UV-I 0 W/m -1,0 C -3,1 C 14,5 km/h (3 Bft)
31.01.2023 05:36 0,1 C -0,6 C 92 % 1027,8 hPa 0,0 l/m 8,0 km/h (2 Bft) S-SW 202 0 min 0,0 UV-I 0 W/m -1,0 C -1,5 C 14,5 km/h (3 Bft)
31.01.2023 05:37 0,1 C -0,6 C 92 % 1027,7 hPa 0,0 l/m 11,3 km/h (2 Bft) S-SW 202 0 min 0,0 UV-I 0 W/m -1,0 C -4,4 C 16,1 km/h (3 Bft)
31.01.2023 05:38 0,1 C -0,6 C 92 % 1027,8 hPa 0,0 l/m 11,3 km/h (2 Bft) S-SW 202 0 min 0,0 UV-I 0 W/m -1,0 C -4,4 C 14,5 km/h (3 Bft)
31.01.2023 05:39 0,1 C -0,6 C 92 % 1027,7 hPa 0,0 l/m 11,3 km/h (2 Bft) S-SW 202 0 min 0,0 UV-I 0 W/m -1,0 C -4,4 C 14,5 km/h (3 Bft)
31.01.2023 05:40 0,1 C -0,6 C 92 % 1027,6 hPa 0,0 l/m 9,7 km/h (2 Bft) S-SW 202 0 min 0,0 UV-I 0 W/m -1,0 C -3,1 C 14,5 km/h (3 Bft)
31.01.2023 05:41 0,1 C -0,6 C 92 % 1027,6 hPa 0,0 l/m 11,3 km/h (2 Bft) S-SW 202 0 min 0,0 UV-I 0 W/m -1,0 C -4,4 C 14,5 km/h (3 Bft)
31.01.2023 05:42 0,1 C -0,6 C 92 % 1027,6 hPa 0,0 l/m 8,0 km/h (2 Bft) S-SW 202 0 min 0,0 UV-I 0 W/m -1,0 C -1,5 C 12,9 km/h (3 Bft)
31.01.2023 05:43 0,1 C -0,6 C 92 % 1027,7 hPa 0,0 l/m 9,7 km/h (2 Bft) S-SW 202 0 min 0,0 UV-I 0 W/m -1,0 C -3,1 C 16,1 km/h (3 Bft)
31.01.2023 05:44 0,1 C 0,0 C 92 % 1027,6 hPa 0,0 l/m 8,0 km/h (2 Bft) S-SW 202 0 min 0,0 UV-I 0 W/m -1,0 C -1,5 C 12,9 km/h (3 Bft)
31.01.2023 05:45 0,2 C 0,0 C 92 % 1027,6 hPa 0,0 l/m 11,3 km/h (2 Bft) S-SW 202 0 min 0,0 UV-I 0 W/m -0,9 C -4,3 C 14,5 km/h (3 Bft)
31.01.2023 05:46 0,2 C 0,0 C 92 % 1027,6 hPa 0,0 l/m 6,4 km/h (2 Bft) S 180 0 min 0,0 UV-I 0 W/m -0,9 C 0,2 C 12,9 km/h (3 Bft)
31.01.2023 05:47 0,2 C 0,0 C 92 % 1027,5 hPa 0,0 l/m 8,0 km/h (2 Bft) SW 225 0 min 0,0 UV-I 0 W/m -0,9 C -1,4 C 12,9 km/h (3 Bft)
31.01.2023 05:48 0,2 C 0,0 C 92 % 1027,5 hPa 0,0 l/m 11,3 km/h (2 Bft) S-SW 202 0 min 0,0 UV-I 0 W/m -0,9 C -4,3 C 16,1 km/h (3 Bft)
31.01.2023 05:49 0,2 C 0,0 C 92 % 1027,5 hPa 0,0 l/m 8,0 km/h (2 Bft) SW 225 0 min 0,0 UV-I 0 W/m -0,9 C -1,4 C 14,5 km/h (3 Bft)
31.01.2023 05:50 0,2 C 0,0 C 92 % 1027,4 hPa 0,0 l/m 6,4 km/h (2 Bft) S-SW 202 0 min 0,0 UV-I 0 W/m -0,9 C 0,2 C 8,0 km/h (2 Bft)
31.01.2023 05:51 0,2 C 0,0 C 92 % 1027,3 hPa 0,0 l/m 8,0 km/h (2 Bft) SW 225 0 min 0,0 UV-I 0 W/m -0,9 C -1,4 C 11,3 km/h (2 Bft)
31.01.2023 05:52 0,2 C 0,0 C 92 % 1027,4 hPa 0,0 l/m 6,4 km/h (2 Bft) S-SW 202 0 min 0,0 UV-I 0 W/m -0,9 C 0,2 C 9,7 km/h (2 Bft)
31.01.2023 05:53 0,2 C 0,0 C 92 % 1027,4 hPa 0,0 l/m 4,8 km/h (1 Bft) S-SW 202 0 min 0,0 UV-I 0 W/m -0,9 C 0,2 C 8,0 km/h (2 Bft)
31.01.2023 05:54 0,2 C 0,0 C 92 % 1027,3 hPa 0,0 l/m 4,8 km/h (1 Bft) SW 225 0 min 0,0 UV-I 0 W/m -0,9 C 0,2 C 11,3 km/h (2 Bft)
31.01.2023 05:55 0,2 C 0,0 C 92 % 1027,4 hPa 0,0 l/m 9,7 km/h (2 Bft) S-SW 202 0 min 0,0 UV-I 0 W/m -0,9 C -3,0 C 12,9 km/h (3 Bft)
31.01.2023 05:56 0,3 C 0,0 C 92 % 1027,4 hPa 0,0 l/m 8,0 km/h (2 Bft) SW 225 0 min 0,0 UV-I 0 W/m -0,8 C -1,3 C 11,3 km/h (2 Bft)
31.01.2023 05:57 0,3 C 0,0 C 93 % 1027,3 hPa 0,0 l/m 9,7 km/h (2 Bft) S-SW 202 0 min 0,0 UV-I 0 W/m -0,7 C -2,9 C 16,1 km/h (3 Bft)
31.01.2023 05:58 0,3 C 0,0 C 93 % 1027,4 hPa 0,0 l/m 8,0 km/h (2 Bft) S-SW 202 0 min 0,0 UV-I 0 W/m -0,7 C -1,3 C 11,3 km/h (2 Bft)
31.01.2023 05:59 0,3 C 0,0 C 93 % 1027,5 hPa 0,0 l/m 8,0 km/h (2 Bft) S-SW 202 0 min 0,0 UV-I 0 W/m -0,7 C -1,3 C 11,3 km/h (2 Bft)
31.01.2023 06:00 0,3 C 0,0 C 93 % 1027,3 hPa 0,0 l/m 9,7 km/h (2 Bft) S-SW 202 0 min 0,0 UV-I 0 W/m -0,7 C -2,9 C 14,5 km/h (3 Bft)
31.01.2023 06:01 0,3 C 0,0 C 92 % 1027,3 hPa 0,0 l/m 9,7 km/h (2 Bft) S-SW 202 0 min 0,0 UV-I 0 W/m -0,8 C -2,9 C 12,9 km/h (3 Bft)
31.01.2023 06:02 0,3 C 0,0 C 93 % 1027,3 hPa 0,0 l/m 9,7 km/h (2 Bft) SW 225 0 min 0,0 UV-I 0 W/m -0,7 C -2,9 C 11,3 km/h (2 Bft)
31.01.2023 06:03 0,3 C 0,0 C 93 % 1027,4 hPa 0,0 l/m 9,7 km/h (2 Bft) S-SW 202 0 min 0,0 UV-I 0 W/m -0,7 C -2,9 C 14,5 km/h (3 Bft)
31.01.2023 06:04 0,3 C 0,0 C 92 % 1027,4 hPa 0,0 l/m 11,3 km/h (2 Bft) S-SW 202 0 min 0,0 UV-I 0 W/m -0,8 C -4,1 C 16,1 km/h (3 Bft)
31.01.2023 06:05 0,3 C 0,0 C 93 % 1027,3 hPa 0,0 l/m 9,7 km/h (2 Bft) S-SW 202 0 min 0,0 UV-I 0 W/m -0,7 C -2,9 C 14,5 km/h (3 Bft)
31.01.2023 06:06 0,3 C 0,0 C 93 % 1027,3 hPa 0,0 l/m 8,0 km/h (2 Bft) S-SW 202 0 min 0,0 UV-I 0 W/m -0,7 C -1,3 C 9,7 km/h (2 Bft)
31.01.2023 06:07 0,3 C 0,0 C 93 % 1027,3 hPa 0,0 l/m 8,0 km/h (2 Bft) S 180 0 min 0,0 UV-I 0 W/m -0,7 C -1,3 C 9,7 km/h (2 Bft)
31.01.2023 06:08 0,3 C 0,0 C 93 % 1027,3 hPa 0,0 l/m 9,7 km/h (2 Bft) S 180 0 min 0,0 UV-I 0 W/m -0,7 C -2,9 C 12,9 km/h (3 Bft)
31.01.2023 06:09 0,3 C 0,0 C 93 % 1027,3 hPa 0,0 l/m 9,7 km/h (2 Bft) SW 225 0 min 0,0 UV-I 0 W/m -0,7 C -2,9 C 14,5 km/h (3 Bft)
31.01.2023 06:10 0,3 C 0,0 C 93 % 1027,4 hPa 0,0 l/m 9,7 km/h (2 Bft) S 180 0 min 0,0 UV-I 0 W/m -0,7 C -2,9 C 14,5 km/h (3 Bft)
31.01.2023 06:11 0,3 C 0,0 C 93 % 1027,3 hPa 0,0 l/m 9,7 km/h (2 Bft) S-SW 202 0 min 0,0 UV-I 0 W/m -0,7 C -2,9 C 14,5 km/h (3 Bft)
31.01.2023 06:12 0,3 C 0,0 C 93 % 1027,4 hPa 0,0 l/m 9,7 km/h (2 Bft) S-SW 202 0 min 0,0 UV-I 0 W/m -0,7 C -2,9 C 14,5 km/h (3 Bft)
31.01.2023 06:13 0,3 C 0,0 C 93 % 1027,4 hPa 0,0 l/m 11,3 km/h (2 Bft) S-SW 202 0 min 0,0 UV-I 0 W/m -0,7 C -4,1 C 16,1 km/h (3 Bft)
31.01.2023 06:14 0,3 C 0,0 C 93 % 1027,4 hPa 0,0 l/m 12,9 km/h (3 Bft) S-SW 202 0 min 0,0 UV-I 0 W/m -0,7 C -5,3 C 16,1 km/h (3 Bft)
31.01.2023 06:15 0,3 C 0,0 C 93 % 1027,3 hPa 0,0 l/m 9,7 km/h (2 Bft) S 180 0 min 0,0 UV-I 0 W/m -0,7 C -2,9 C 16,1 km/h (3 Bft)
31.01.2023 06:16 0,3 C 0,0 C 93 % 1027,4 hPa 0,0 l/m 14,5 km/h (3 Bft) S 180 0 min 0,0 UV-I 0 W/m -0,7 C -6,3 C 22,5 km/h (4 Bft)
31.01.2023 06:17 0,3 C 0,0 C 93 % 1027,5 hPa 0,0 l/m 11,3 km/h (2 Bft) S-SW 202 0 min 0,0 UV-I 0 W/m -0,7 C -4,1 C 17,7 km/h (3 Bft)
31.01.2023 06:18 0,3 C 0,0 C 93 % 1027,3 hPa 0,0 l/m 12,9 km/h (3 Bft) S-SW 202 0 min 0,0 UV-I 0 W/m -0,7 C -5,3 C 19,3 km/h (3 Bft)
31.01.2023 06:19 0,3 C 0,0 C 93 % 1027,4 hPa 0,0 l/m 12,9 km/h (3 Bft) S 180 0 min 0,0 UV-I 0 W/m -0,7 C -5,3 C 19,3 km/h (3 Bft)
31.01.2023 06:20 0,3 C 0,0 C 93 % 1027,4 hPa 0,0 l/m 14,5 km/h (3 Bft) S-SW 202 0 min 0,0 UV-I 0 W/m -0,7 C -6,3 C 17,7 km/h (3 Bft)
31.01.2023 06:21 0,3 C 0,0 C 93 % 1027,4 hPa 0,0 l/m 12,9 km/h (3 Bft) S-SW 202 0 min 0,0 UV-I 0 W/m -0,7 C -5,3 C 17,7 km/h (3 Bft)
31.01.2023 06:22 0,3 C 0,0 C 93 % 1027,3 hPa 0,0 l/m 14,5 km/h (3 Bft) S-SW 202 0 min 0,0 UV-I 0 W/m -0,7 C -6,3 C 20,9 km/h (4 Bft)
31.01.2023 06:23 0,2 C 0,0 C 93 % 1027,4 hPa 0,0 l/m 12,9 km/h (3 Bft) SW 225 0 min 0,0 UV-I 0 W/m -0,8 C -5,4 C 22,5 km/h (4 Bft)
31.01.2023 06:24 0,2 C 0,0 C 93 % 1027,5 hPa 0,0 l/m 17,7 km/h (3 Bft) S-SW 202 0 min 0,0 UV-I 0 W/m -0,8 C -8,2 C 24,1 km/h (4 Bft)
31.01.2023 06:25 0,2 C 0,0 C 93 % 1027,4 hPa 0,0 l/m 14,5 km/h (3 Bft) S-SW 202 0 min 0,0 UV-I 0 W/m -0,8 C -6,4 C 25,7 km/h (4 Bft)
31.01.2023 06:26 0,2 C 0,0 C 93 % 1027,4 hPa 0,0 l/m 14,5 km/h (3 Bft) SW 225 0 min 0,0 UV-I 0 W/m -0,8 C -6,4 C 19,3 km/h (3 Bft)
31.01.2023 06:27 0,2 C 0,0 C 93 % 1027,4 hPa 0,0 l/m 12,9 km/h (3 Bft) S-SW 202 0 min 0,0 UV-I 0 W/m -0,8 C -5,4 C 17,7 km/h (3 Bft)
31.01.2023 06:28 0,2 C 0,0 C 93 % 1027,4 hPa 0,0 l/m 14,5 km/h (3 Bft) S-SW 202 0 min 0,0 UV-I 0 W/m -0,8 C -6,4 C 20,9 km/h (4 Bft)
31.01.2023 06:29 0,2 C 0,0 C 92 % 1027,4 hPa 0,0 l/m 12,9 km/h (3 Bft) S-SW 202 0 min 0,0 UV-I 0 W/m -0,9 C -5,4 C 17,7 km/h (3 Bft)
31.01.2023 06:30 0,2 C 0,0 C 92 % 1027,3 hPa 0,0 l/m 14,5 km/h (3 Bft) S-SW 202 0 min 0,0 UV-I 0 W/m -0,9 C -6,4 C 20,9 km/h (4 Bft)
31.01.2023 06:31 0,2 C 0,0 C 92 % 1027,4 hPa 0,0 l/m 14,5 km/h (3 Bft) S-SW 202 0 min 0,0 UV-I 0 W/m -0,9 C -6,4 C 20,9 km/h (4 Bft)
31.01.2023 06:32 0,2 C 0,0 C 93 % 1027,3 hPa 0,0 l/m 14,5 km/h (3 Bft) S-SW 202 0 min 0,0 UV-I 0 W/m -0,8 C -6,4 C 17,7 km/h (3 Bft)
31.01.2023 06:33 0,2 C 0,0 C 93 % 1027,3 hPa 0,0 l/m 12,9 km/h (3 Bft) S-SW 202 0 min 0,0 UV-I 0 W/m -0,8 C -5,4 C 19,3 km/h (3 Bft)
31.01.2023 06:34 0,2 C 0,0 C 93 % 1027,3 hPa 0,0 l/m 12,9 km/h (3 Bft) S-SW 202 0 min 0,0 UV-I 0 W/m -0,8 C -5,4 C 19,3 km/h (3 Bft)
31.01.2023 06:35 0,2 C 0,0 C 93 % 1027,4 hPa 0,0 l/m 16,1 km/h (3 Bft) S-SW 202 0 min 0,0 UV-I 0 W/m -0,8 C -7,4 C 22,5 km/h (4 Bft)
31.01.2023 06:36 0,2 C 0,0 C 93 % 1027,3 hPa 0,0 l/m 14,5 km/h (3 Bft) S-SW 202 0 min 0,0 UV-I 0 W/m -0,8 C -6,4 C 17,7 km/h (3 Bft)
31.01.2023 06:37 0,2 C 0,0 C 93 % 1027,2 hPa 0,0 l/m 14,5 km/h (3 Bft) S-SW 202 0 min 0,0 UV-I 0 W/m -0,8 C -6,4 C 19,3 km/h (3 Bft)
31.01.2023 06:38 0,2 C 0,0 C 93 % 1027,3 hPa 0,0 l/m 16,1 km/h (3 Bft) S-SW 202 0 min 0,0 UV-I 0 W/m -0,8 C -7,4 C 22,5 km/h (4 Bft)
31.01.2023 06:39 0,2 C 0,0 C 93 % 1027,2 hPa 0,0 l/m 17,7 km/h (3 Bft) S-SW 202 0 min 0,0 UV-I 0 W/m -0,8 C -8,2 C 22,5 km/h (4 Bft)
31.01.2023 06:40 0,3 C 0,0 C 93 % 1027,2 hPa 0,0 l/m 14,5 km/h (3 Bft) S-SW 202 0 min 0,0 UV-I 0 W/m -0,7 C -6,3 C 17,7 km/h (3 Bft)
31.01.2023 06:41 0,2 C 0,0 C 93 % 1027,2 hPa 0,0 l/m 12,9 km/h (3 Bft) S-SW 202 0 min 0,0 UV-I 0 W/m -0,8 C -5,4 C 16,1 km/h (3 Bft)
31.01.2023 06:42 0,2 C 0,0 C 93 % 1027,2 hPa 0,0 l/m 14,5 km/h (3 Bft) S-SW 202 0 min 0,0 UV-I 0 W/m -0,8 C -6,4 C 17,7 km/h (3 Bft)
31.01.2023 06:43 0,2 C 0,0 C 93 % 1027,3 hPa 0,0 l/m 16,1 km/h (3 Bft) S-SW 202 0 min 0,0 UV-I 0 W/m -0,8 C -7,4 C 20,9 km/h (4 Bft)
31.01.2023 06:44 0,3 C 0,0 C 93 % 1027,3 hPa 0,0 l/m 16,1 km/h (3 Bft) S-SW 202 0 min 0,0 UV-I 0 W/m -0,7 C -7,3 C 19,3 km/h (3 Bft)
31.01.2023 06:45 0,3 C 0,0 C 93 % 1027,4 hPa 0,0 l/m 14,5 km/h (3 Bft) S-SW 202 0 min 0,0 UV-I 0 W/m -0,7 C -6,3 C 20,9 km/h (4 Bft)
31.01.2023 06:46 0,3 C 0,0 C 93 % 1027,2 hPa 0,0 l/m 12,9 km/h (3 Bft) SW 225 0 min 0,0 UV-I 0 W/m -0,7 C -5,3 C 19,3 km/h (3 Bft)
31.01.2023 06:47 0,3 C 0,0 C 93 % 1027,2 hPa 0,0 l/m 12,9 km/h (3 Bft) S-SW 202 0 min 0,0 UV-I 0 W/m -0,7 C -5,3 C 17,7 km/h (3 Bft)
31.01.2023 06:48 0,3 C 0,0 C 93 % 1027,2 hPa 0,0 l/m 12,9 km/h (3 Bft) S-SW 202 0 min 0,0 UV-I 0 W/m -0,7 C -5,3 C 19,3 km/h (3 Bft)
31.01.2023 06:49 0,3 C 0,0 C 93 % 1027,2 hPa 0,0 l/m 14,5 km/h (3 Bft) SW 225 0 min 0,0 UV-I 0 W/m -0,7 C -6,3 C 20,9 km/h (4 Bft)
31.01.2023 06:50 0,3 C 0,0 C 93 % 1027,4 hPa 0,0 l/m 16,1 km/h (3 Bft) S-SW 202 0 min 0,0 UV-I 0 W/m -0,7 C -7,3 C 20,9 km/h (4 Bft)
31.01.2023 06:51 0,3 C 0,0 C 93 % 1027,4 hPa 0,0 l/m 12,9 km/h (3 Bft) S-SW 202 0 min 0,0 UV-I 0 W/m -0,7 C -5,3 C 17,7 km/h (3 Bft)
31.01.2023 06:52 0,3 C 0,0 C 93 % 1027,3 hPa 0,0 l/m 11,3 km/h (2 Bft) SW 225 0 min 0,0 UV-I 0 W/m -0,7 C -4,1 C 19,3 km/h (3 Bft)
31.01.2023 06:53 0,3 C 0,0 C 93 % 1027,4 hPa 0,0 l/m 12,9 km/h (3 Bft) S-SW 202 0 min 0,0 UV-I 0 W/m -0,7 C -5,3 C 17,7 km/h (3 Bft)
31.01.2023 06:54 0,3 C 0,0 C 93 % 1027,4 hPa 0,0 l/m 14,5 km/h (3 Bft) S-SW 202 0 min 0,0 UV-I 0 W/m -0,7 C -6,3 C 22,5 km/h (4 Bft)
31.01.2023 06:55 0,3 C 0,0 C 93 % 1027,3 hPa 0,0 l/m 12,9 km/h (3 Bft) S-SW 202 0 min 0,0 UV-I 0 W/m -0,7 C -5,3 C 19,3 km/h (3 Bft)
31.01.2023 06:56 0,2 C 0,0 C 93 % 1027,3 hPa 0,0 l/m 17,7 km/h (3 Bft) S-SW 202 0 min 0,0 UV-I 0 W/m -0,8 C -8,2 C 25,7 km/h (4 Bft)
31.01.2023 06:57 0,2 C 0,0 C 93 % 1027,2 hPa 0,0 l/m 17,7 km/h (3 Bft) S-SW 202 0 min 0,0 UV-I 0 W/m -0,8 C -8,2 C 27,4 km/h (4 Bft)
31.01.2023 06:58 0,2 C 0,0 C 93 % 1027,3 hPa 0,0 l/m 12,9 km/h (3 Bft) S-SW 202 0 min 0,0 UV-I 0 W/m -0,8 C -5,4 C 19,3 km/h (3 Bft)
31.01.2023 06:59 0,2 C 0,0 C 93 % 1027,2 hPa 0,0 l/m 12,9 km/h (3 Bft) S-SW 202 0 min 0,0 UV-I 0 W/m -0,8 C -5,4 C 17,7 km/h (3 Bft)
31.01.2023 07:00 0,2 C 0,0 C 93 % 1027,2 hPa 0,0 l/m 16,1 km/h (3 Bft) S-SW 202 0 min 0,0 UV-I 0 W/m -0,8 C -7,4 C 20,9 km/h (4 Bft)
31.01.2023 07:01 0,2 C 0,0 C 93 % 1027,2 hPa 0,0 l/m 11,3 km/h (2 Bft) S-SW 202 0 min 0,0 UV-I 0 W/m -0,8 C -4,3 C 17,7 km/h (3 Bft)
31.01.2023 07:02 0,2 C 0,0 C 93 % 1027,2 hPa 0,0 l/m 8,0 km/h (2 Bft) SW 225 0 min 0,0 UV-I 0 W/m -0,8 C -1,4 C 14,5 km/h (3 Bft)
31.01.2023 07:03 0,2 C 0,0 C 93 % 1027,2 hPa 0,0 l/m 17,7 km/h (3 Bft) S-SW 202 0 min 0,0 UV-I 0 W/m -0,8 C -8,2 C 24,1 km/h (4 Bft)
31.01.2023 07:04 0,2 C 0,0 C 93 % 1027,2 hPa 0,0 l/m 12,9 km/h (3 Bft) S-SW 202 0 min 0,0 UV-I 0 W/m -0,8 C -5,4 C 19,3 km/h (3 Bft)
31.01.2023 07:05 0,2 C 0,0 C 93 % 1027,2 hPa 0,0 l/m 11,3 km/h (2 Bft) S-SW 202 0 min 0,0 UV-I 0 W/m -0,8 C -4,3 C 17,7 km/h (3 Bft)
31.01.2023 07:06 0,2 C 0,0 C 93 % 1027,2 hPa 0,0 l/m 12,9 km/h (3 Bft) S-SW 202 0 min 0,0 UV-I 0 W/m -0,8 C -5,4 C 19,3 km/h (3 Bft)
31.01.2023 07:07 0,2 C 0,0 C 93 % 1027,2 hPa 0,0 l/m 11,3 km/h (2 Bft) S 180 0 min 0,0 UV-I 0 W/m -0,8 C -4,3 C 17,7 km/h (3 Bft)
31.01.2023 07:08 0,2 C 0,0 C 93 % 1027,2 hPa 0,0 l/m 11,3 km/h (2 Bft) SW 225 0 min 0,0 UV-I 0 W/m -0,8 C -4,3 C 16,1 km/h (3 Bft)
31.01.2023 07:09 0,2 C 0,0 C 93 % 1027,2 hPa 0,0 l/m 11,3 km/h (2 Bft) SW 225 0 min 0,0 UV-I 0 W/m -0,8 C -4,3 C 14,5 km/h (3 Bft)
31.01.2023 07:10 0,2 C 0,0 C 93 % 1027,2 hPa 0,0 l/m 11,3 km/h (2 Bft) S-SW 202 0 min 0,0 UV-I 0 W/m -0,8 C -4,3 C 16,1 km/h (3 Bft)
31.01.2023 07:11 0,2 C 0,0 C 93 % 1027,2 hPa 0,0 l/m 9,7 km/h (2 Bft) S-SW 202 0 min 0,0 UV-I 0 W/m -0,8 C -3,0 C 17,7 km/h (3 Bft)
31.01.2023 07:12 0,2 C 0,0 C 93 % 1027,2 hPa 0,0 l/m 17,7 km/h (3 Bft) S-SW 202 0 min 0,0 UV-I 0 W/m -0,8 C -8,2 C 27,4 km/h (4 Bft)
31.01.2023 07:13 0,2 C 0,0 C 93 % 1027,2 hPa 0,0 l/m 14,5 km/h (3 Bft) SW 225 0 min 0,0 UV-I 0 W/m -0,8 C -6,4 C 29,0 km/h (5 Bft)
31.01.2023 07:14 0,2 C 0,0 C 93 % 1027,1 hPa 0,0 l/m 17,7 km/h (3 Bft) SW 225 0 min 0,0 UV-I 0 W/m -0,8 C -8,2 C 24,1 km/h (4 Bft)
31.01.2023 07:15 0,2 C 0,0 C 93 % 1027,1 hPa 0,0 l/m 16,1 km/h (3 Bft) SW 225 0 min 0,0 UV-I 0 W/m -0,8 C -7,4 C 20,9 km/h (4 Bft)
31.01.2023 07:16 0,2 C 0,0 C 93 % 1027,1 hPa 0,0 l/m 12,9 km/h (3 Bft) S-SW 202 0 min 0,0 UV-I 0 W/m -0,8 C -5,4 C 19,3 km/h (3 Bft)
31.01.2023 07:17 0,2 C 0,0 C 93 % 1027,0 hPa 0,0 l/m 14,5 km/h (3 Bft) S-SW 202 0 min 0,0 UV-I 0 W/m -0,8 C -6,4 C 17,7 km/h (3 Bft)
31.01.2023 07:18 0,2 C 0,0 C 93 % 1027,0 hPa 0,0 l/m 12,9 km/h (3 Bft) S-SW 202 0 min 0,0 UV-I 0 W/m -0,8 C -5,4 C 17,7 km/h (3 Bft)
31.01.2023 07:19 0,2 C -0,6 C 93 % 1027,0 hPa 0,0 l/m 14,5 km/h (3 Bft) SW 225 0 min 0,0 UV-I 0 W/m -0,8 C -6,4 C 20,9 km/h (4 Bft)
31.01.2023 07:20 0,2 C -0,6 C 93 % 1027,0 hPa 0,0 l/m 9,7 km/h (2 Bft) S-SW 202 0 min 0,0 UV-I 0 W/m -0,8 C -3,0 C 12,9 km/h (3 Bft)
31.01.2023 07:21 0,2 C -0,6 C 93 % 1027,1 hPa 0,0 l/m 12,9 km/h (3 Bft) S-SW 202 0 min 0,0 UV-I 0 W/m -0,8 C -5,4 C 20,9 km/h (4 Bft)
31.01.2023 07:22 0,2 C -0,6 C 93 % 1027,1 hPa 0,0 l/m 11,3 km/h (2 Bft) S-SW 202 0 min 0,0 UV-I 0 W/m -0,8 C -4,3 C 16,1 km/h (3 Bft)
31.01.2023 07:23 0,2 C -0,6 C 93 % 1027,1 hPa 0,0 l/m 12,9 km/h (3 Bft) S-SW 202 0 min 0,0 UV-I 0 W/m -0,8 C -5,4 C 19,3 km/h (3 Bft)
31.01.2023 07:24 0,2 C 0,0 C 93 % 1027,0 hPa 0,0 l/m 12,9 km/h (3 Bft) S-SW 202 0 min 0,0 UV-I 0 W/m -0,8 C -5,4 C 17,7 km/h (3 Bft)
31.01.2023 07:25 0,2 C 0,0 C 93 % 1027,0 hPa 0,0 l/m 12,9 km/h (3 Bft) S-SW 202 0 min 0,0 UV-I 0 W/m -0,8 C -5,4 C 16,1 km/h (3 Bft)
31.01.2023 07:26 0,2 C 0,0 C 93 % 1027,1 hPa 0,0 l/m 11,3 km/h (2 Bft) S-SW 202 0 min 0,0 UV-I 0 W/m -0,8 C -4,3 C 14,5 km/h (3 Bft)
31.01.2023 07:27 0,2 C 0,0 C 93 % 1027,0 hPa 0,0 l/m 14,5 km/h (3 Bft) S-SW 202 0 min 0,0 UV-I 0 W/m -0,8 C -6,4 C 19,3 km/h (3 Bft)
31.01.2023 07:28 0,2 C -0,6 C 93 % 1027,1 hPa 0,0 l/m 14,5 km/h (3 Bft) S-SW 202 0 min 0,0 UV-I 0 W/m -0,8 C -6,4 C 17,7 km/h (3 Bft)
31.01.2023 07:29 0,2 C -0,6 C 93 % 1027,0 hPa 0,0 l/m 16,1 km/h (3 Bft) S-SW 202 0 min 0,0 UV-I 0 W/m -0,8 C -7,4 C 20,9 km/h (4 Bft)
31.01.2023 07:30 0,2 C 0,0 C 93 % 1027,0 hPa 0,0 l/m 11,3 km/h (2 Bft) S-SW 202 0 min 0,0 UV-I 0 W/m -0,8 C -4,3 C 17,7 km/h (3 Bft)
31.01.2023 07:31 0,2 C 0,0 C 93 % 1027,0 hPa 0,0 l/m 11,3 km/h (2 Bft) S-SW 202 0 min 0,0 UV-I 0 W/m -0,8 C -4,3 C 16,1 km/h (3 Bft)
31.01.2023 07:32 0,2 C 0,0 C 93 % 1026,9 hPa 0,0 l/m 12,9 km/h (3 Bft) S-SW 202 0 min 0,0 UV-I 0 W/m -0,8 C -5,4 C 16,1 km/h (3 Bft)
31.01.2023 07:33 0,2 C 0,0 C 93 % 1026,9 hPa 0,0 l/m 14,5 km/h (3 Bft) S-SW 202 0 min 0,0 UV-I 0 W/m -0,8 C -6,4 C 19,3 km/h (3 Bft)
31.01.2023 07:34 0,2 C 0,0 C 93 % 1026,9 hPa 0,0 l/m 11,3 km/h (2 Bft) S-SW 202 0 min 0,0 UV-I 0 W/m -0,8 C -4,3 C 14,5 km/h (3 Bft)
31.01.2023 07:35 0,2 C 0,0 C 93 % 1026,9 hPa 0,0 l/m 12,9 km/h (3 Bft) S-SW 202 0 min 0,0 UV-I 0 W/m -0,8 C -5,4 C 17,7 km/h (3 Bft)
31.01.2023 07:36 0,2 C 0,0 C 93 % 1026,9 hPa 0,0 l/m 8,0 km/h (2 Bft) S-SW 202 0 min 0,0 UV-I 0 W/m -0,8 C -1,4 C 12,9 km/h (3 Bft)
31.01.2023 07:37 0,2 C 0,0 C 93 % 1026,9 hPa 0,0 l/m 11,3 km/h (2 Bft) SW 225 0 min 0,0 UV-I 0 W/m -0,8 C -4,3 C 14,5 km/h (3 Bft)
31.01.2023 07:38 0,2 C 0,0 C 93 % 1027,0 hPa 0,0 l/m 9,7 km/h (2 Bft) S 180 0 min 0,0 UV-I 0 W/m -0,8 C -3,0 C 16,1 km/h (3 Bft)
31.01.2023 07:39 0,2 C 0,0 C 93 % 1026,8 hPa 0,0 l/m 8,0 km/h (2 Bft) S-SW 202 0 min 0,0 UV-I 0 W/m -0,8 C -1,4 C 12,9 km/h (3 Bft)
31.01.2023 07:40 0,2 C 0,0 C 93 % 1027,0 hPa 0,0 l/m 11,3 km/h (2 Bft) S-SW 202 0 min 0,0 UV-I 0 W/m -0,8 C -4,3 C 16,1 km/h (3 Bft)
31.01.2023 07:41 0,2 C 0,0 C 93 % 1026,8 hPa 0,0 l/m 14,5 km/h (3 Bft) S 180 0 min 0,0 UV-I 0 W/m -0,8 C -6,4 C 22,5 km/h (4 Bft)
31.01.2023 07:42 0,2 C 0,0 C 93 % 1026,9 hPa 0,0 l/m 11,3 km/h (2 Bft) S-SW 202 0 min 0,0 UV-I 0 W/m -0,8 C -4,3 C 16,1 km/h (3 Bft)
31.01.2023 07:43 0,2 C -0,6 C 93 % 1026,9 hPa 0,0 l/m 8,0 km/h (2 Bft) S-SW 202 0 min 0,0 UV-I 0 W/m -0,8 C -1,4 C 14,5 km/h (3 Bft)
31.01.2023 07:44 0,2 C -0,6 C 93 % 1026,9 hPa 0,0 l/m 9,7 km/h (2 Bft) S-SW 202 0 min 0,0 UV-I 0 W/m -0,8 C -3,0 C 17,7 km/h (3 Bft)
31.01.2023 07:45 0,1 C -0,6 C 93 % 1026,9 hPa 0,0 l/m 12,9 km/h (3 Bft) S-SW 202 0 min 0,0 UV-I 0 W/m -0,9 C -5,5 C 19,3 km/h (3 Bft)
31.01.2023 07:46 0,1 C -0,6 C 93 % 1026,9 hPa 0,0 l/m 11,3 km/h (2 Bft) S-SW 202 0 min 0,0 UV-I 0 W/m -0,9 C -4,4 C 16,1 km/h (3 Bft)
31.01.2023 07:47 0,1 C -0,6 C 93 % 1026,8 hPa 0,0 l/m 12,9 km/h (3 Bft) S-SW 202 0 min 0,0 UV-I 0 W/m -0,9 C -5,5 C 17,7 km/h (3 Bft)
31.01.2023 07:48 0,1 C -0,6 C 93 % 1026,7 hPa 0,0 l/m 12,9 km/h (3 Bft) S-SW 202 0 min 0,0 UV-I 0 W/m -0,9 C -5,5 C 17,7 km/h (3 Bft)
31.01.2023 07:49 0,1 C -0,6 C 93 % 1026,7 hPa 0,0 l/m 14,5 km/h (3 Bft) S-SW 202 0 min 0,0 UV-I 0 W/m -0,9 C -6,6 C 17,7 km/h (3 Bft)
31.01.2023 07:50 0,1 C -0,6 C 93 % 1026,7 hPa 0,0 l/m 11,3 km/h (2 Bft) S-SW 202 0 min 0,0 UV-I 0 W/m -0,9 C -4,4 C 16,1 km/h (3 Bft)
31.01.2023 07:51 0,1 C -0,6 C 93 % 1026,6 hPa 0,0 l/m 8,0 km/h (2 Bft) S-SW 202 0 min 0,0 UV-I 0 W/m -0,9 C -1,5 C 11,3 km/h (2 Bft)
31.01.2023 07:52 0,1 C -0,6 C 93 % 1026,6 hPa 0,0 l/m 12,9 km/h (3 Bft) S-SW 202 0 min 0,0 UV-I 0 W/m -0,9 C -5,5 C 20,9 km/h (4 Bft)
31.01.2023 07:53 0,1 C -0,6 C 93 % 1026,6 hPa 0,0 l/m 9,7 km/h (2 Bft) S-SW 202 0 min 0,0 UV-I 0 W/m -0,9 C -3,1 C 12,9 km/h (3 Bft)
31.01.2023 07:57 0,0 C -0,6 C 93 % 1026,7 hPa 0,0 l/m 12,8 km/h (3 Bft) S 182 0 min 0,0 UV-I 0 W/m -1,0 C -5,6 C 17,7 km/h (3 Bft)
31.01.2023 08:00 0,0 C -0,6 C 93 % 1026,7 hPa 0,0 l/m 9,9 km/h (2 Bft) S-SW 209 0 min 0,0 UV-I 0 W/m -1,0 C -3,4 C 16,1 km/h (3 Bft)
31.01.2023 08:03 0,0 C -0,6 C 93 % 1026,6 hPa 0,0 l/m 10,5 km/h (2 Bft) S 186 0 min 0,0 UV-I 0 W/m -1,0 C -3,9 C 24,1 km/h (4 Bft)
31.01.2023 08:06 0,0 C -0,6 C 93 % 1026,8 hPa 0,0 l/m 13,6 km/h (3 Bft) S-SW 205 0 min 0,0 UV-I 0 W/m -1,0 C -6,1 C 24,1 km/h (4 Bft)
31.01.2023 08:09 0,0 C -0,6 C 93 % 1026,8 hPa 0,0 l/m 12,4 km/h (3 Bft) SW 214 0 min 0,0 UV-I 0 W/m -1,0 C -5,3 C 19,3 km/h (3 Bft)
31.01.2023 08:12 0,0 C -0,6 C 93 % 1026,7 hPa 0,0 l/m 16,4 km/h (3 Bft) S-SW 209 0 min 0,0 UV-I 4 W/m -1,0 C -7,8 C 24,1 km/h (4 Bft)
31.01.2023 08:15 0,0 C -0,6 C 93 % 1026,7 hPa 0,0 l/m 15,2 km/h (3 Bft) S-SW 202 0 min 0,0 UV-I 8 W/m -1,0 C -7,1 C 27,4 km/h (4 Bft)
31.01.2023 08:18 0,0 C -0,6 C 93 % 1026,8 hPa 0,0 l/m 11,1 km/h (2 Bft) S 186 0 min 0,0 UV-I 11 W/m -1,0 C -4,3 C 22,5 km/h (4 Bft)
31.01.2023 08:21 -0,1 C -0,6 C 93 % 1026,9 hPa 0,0 l/m 13,7 km/h (3 Bft) S-SW 212 0 min 0,0 UV-I 14 W/m -1,1 C -6,3 C 22,5 km/h (4 Bft)
31.01.2023 08:24 -0,1 C -0,6 C 93 % 1026,9 hPa 0,0 l/m 15,6 km/h (3 Bft) S-SW 203 0 min 0,0 UV-I 14 W/m -1,1 C -7,5 C 25,7 km/h (4 Bft)
31.01.2023 08:27 0,0 C -0,6 C 93 % 1026,7 hPa 0,0 l/m 16,9 km/h (3 Bft) S-SW 210 0 min 0,0 UV-I 12 W/m -1,0 C -8,1 C 24,1 km/h (4 Bft)
31.01.2023 08:30 0,0 C -0,6 C 93 % 1026,8 hPa 0,0 l/m 18,5 km/h (3 Bft) S-SW 196 0 min 0,0 UV-I 14 W/m -1,0 C -8,9 C 29,0 km/h (5 Bft)
31.01.2023 08:33 0,0 C -0,6 C 93 % 1026,8 hPa 0,0 l/m 20,1 km/h (4 Bft) S-SW 195 0 min 0,0 UV-I 19 W/m -1,0 C -9,7 C 29,0 km/h (5 Bft)
31.01.2023 08:36 0,0 C 0,0 C 93 % 1026,8 hPa 0,0 l/m 16,7 km/h (3 Bft) SW 219 0 min 0,0 UV-I 20 W/m -1,0 C -8,0 C 24,1 km/h (4 Bft)
31.01.2023 08:39 0,0 C 0,0 C 93 % 1026,9 hPa 0,0 l/m 20,1 km/h (4 Bft) SW 219 0 min 0,0 UV-I 26 W/m -1,0 C -9,7 C 27,4 km/h (4 Bft)
31.01.2023 08:42 0,1 C 0,0 C 93 % 1026,9 hPa 0,0 l/m 13,9 km/h (3 Bft) S-SW 202 0 min 0,0 UV-I 33 W/m -0,9 C -6,2 C 25,7 km/h (4 Bft)
31.01.2023 08:45 0,1 C 0,0 C 93 % 1026,9 hPa 0,0 l/m 17,2 km/h (3 Bft) SW 224 0 min 0,0 UV-I 35 W/m -0,9 C -8,1 C 27,4 km/h (4 Bft)
31.01.2023 08:48 0,1 C 0,0 C 93 % 1027,0 hPa 0,0 l/m 16,9 km/h (3 Bft) S-SW 209 0 min 0,0 UV-I 32 W/m -0,9 C -7,9 C 25,7 km/h (4 Bft)
31.01.2023 08:51 0,1 C 0,0 C 93 % 1026,8 hPa 0,0 l/m 18,1 km/h (3 Bft) S 191 0 min 0,0 UV-I 28 W/m -0,9 C -8,6 C 27,4 km/h (4 Bft)
31.01.2023 08:54 0,2 C 0,0 C 93 % 1027,0 hPa 0,0 l/m 18,2 km/h (3 Bft) S-SW 200 0 min 0,0 UV-I 27 W/m -0,8 C -8,5 C 29,0 km/h (5 Bft)
31.01.2023 08:57 0,2 C 0,0 C 93 % 1027,0 hPa 0,0 l/m 18,6 km/h (3 Bft) SW 233 0 min 0,0 UV-I 27 W/m -0,8 C -8,7 C 27,4 km/h (4 Bft)
31.01.2023 09:00 0,2 C 0,0 C 93 % 1027,1 hPa 0,0 l/m 21,1 km/h (4 Bft) W 262 0 min 0,0 UV-I 26 W/m -0,8 C -9,9 C 33,8 km/h (5 Bft)
31.01.2023 09:03 0,2 C 0,0 C 93 % 1027,1 hPa 0,0 l/m 14,4 km/h (3 Bft) S-SW 199 0 min 0,0 UV-I 26 W/m -0,8 C -6,4 C 22,5 km/h (4 Bft)
31.01.2023 09:06 0,3 C 0,0 C 93 % 1027,1 hPa 0,0 l/m 15,4 km/h (3 Bft) S-SW 211 0 min 0,0 UV-I 29 W/m -0,7 C -6,9 C 22,5 km/h (4 Bft)
31.01.2023 09:09 0,3 C 0,0 C 93 % 1027,2 hPa 0,0 l/m 18,3 km/h (3 Bft) S-SW 196 0 min 0,0 UV-I 38 W/m -0,7 C -8,4 C 29,0 km/h (5 Bft)
31.01.2023 09:12 0,3 C 0,0 C 93 % 1027,2 hPa 0,0 l/m 17,2 km/h (3 Bft) S-SW 195 0 min 0,0 UV-I 43 W/m -0,7 C -7,9 C 27,4 km/h (4 Bft)
31.01.2023 09:15 0,3 C 0,0 C 93 % 1027,1 hPa 0,0 l/m 18,5 km/h (3 Bft) S-SW 213 0 min 0,0 UV-I 51 W/m -0,7 C -8,5 C 27,4 km/h (4 Bft)
31.01.2023 09:18 0,3 C 0,0 C 93 % 1027,1 hPa 0,0 l/m 16,4 km/h (3 Bft) SW 230 0 min 0,0 UV-I 68 W/m -0,7 C -7,4 C 24,1 km/h (4 Bft)
31.01.2023 09:21 0,3 C 0,6 C 93 % 1027,0 hPa 0,0 l/m 16,8 km/h (3 Bft) S-SW 196 0 min 0,0 UV-I 76 W/m -0,7 C -7,6 C 25,7 km/h (4 Bft)
31.01.2023 09:24 0,4 C 0,6 C 93 % 1027,1 hPa 0,0 l/m 17,3 km/h (3 Bft) SW 215 0 min 0,0 UV-I 60 W/m -0,6 C -7,8 C 30,6 km/h (5 Bft)
31.01.2023 09:27 0,4 C 0,0 C 93 % 1027,2 hPa 0,0 l/m 15,0 km/h (3 Bft) SW 226 0 min 0,0 UV-I 61 W/m -0,6 C -6,5 C 20,9 km/h (4 Bft)
31.01.2023 09:30 0,4 C 0,6 C 93 % 1027,1 hPa 0,0 l/m 12,5 km/h (3 Bft) S-SW 196 0 min 0,0 UV-I 68 W/m -0,6 C -4,9 C 20,9 km/h (4 Bft)
31.01.2023 09:33 0,4 C 0,6 C 93 % 1027,1 hPa 0,0 l/m 11,6 km/h (2 Bft) S-SW 209 0 min 0,0 UV-I 81 W/m -0,6 C -4,3 C 17,7 km/h (3 Bft)
31.01.2023 09:36 0,4 C 0,6 C 93 % 1026,8 hPa 0,0 l/m 11,2 km/h (2 Bft) S 177 0 min 0,0 UV-I 67 W/m -0,6 C -4,0 C 17,7 km/h (3 Bft)
31.01.2023 09:39 0,4 C 0,6 C 93 % 1026,8 hPa 0,0 l/m 11,4 km/h (2 Bft) S-SW 212 0 min 0,0 UV-I 55 W/m -0,6 C -4,1 C 17,7 km/h (3 Bft)
31.01.2023 09:42 0,4 C 0,6 C 93 % 1027,0 hPa 0,0 l/m 12,9 km/h (3 Bft) S-SW 194 0 min 0,0 UV-I 44 W/m -0,6 C -5,2 C 25,7 km/h (4 Bft)
31.01.2023 09:45 0,4 C 0,6 C 93 % 1027,0 hPa 0,0 l/m 13,5 km/h (3 Bft) S-SW 199 0 min 0,0 UV-I 44 W/m -0,6 C -5,6 C 25,7 km/h (4 Bft)
31.01.2023 09:48 0,4 C 0,6 C 93 % 1027,0 hPa 0,0 l/m 11,0 km/h (2 Bft) S 171 0 min 0,0 UV-I 43 W/m -0,6 C -3,8 C 25,7 km/h (4 Bft)
31.01.2023 09:51 0,4 C 0,6 C 93 % 1026,9 hPa 0,0 l/m 10,4 km/h (2 Bft) S-SW 194 0 min 0,0 UV-I 41 W/m -0,6 C -3,3 C 22,5 km/h (4 Bft)
31.01.2023 09:54 0,4 C 0,6 C 93 % 1026,9 hPa 0,0 l/m 14,5 km/h (3 Bft) SW 222 0 min 0,0 UV-I 42 W/m -0,6 C -6,2 C 25,7 km/h (4 Bft)
31.01.2023 09:57 0,4 C 0,6 C 92 % 1027,0 hPa 0,0 l/m 9,7 km/h (2 Bft) S-SW 198 0 min 0,0 UV-I 40 W/m -0,7 C -2,8 C 16,1 km/h (3 Bft)
31.01.2023 10:00 0,5 C 0,6 C 93 % 1026,9 hPa 0,0 l/m 11,4 km/h (2 Bft) S-SW 201 0 min 0,0 UV-I 41 W/m -0,5 C -4,0 C 25,7 km/h (4 Bft)
31.01.2023 10:03 0,5 C 0,6 C 93 % 1027,1 hPa 0,0 l/m 8,8 km/h (2 Bft) S-SW 209 0 min 0,0 UV-I 46 W/m -0,5 C -1,9 C 14,5 km/h (3 Bft)
31.01.2023 10:06 0,6 C 0,6 C 93 % 1027,1 hPa 0,0 l/m 13,5 km/h (3 Bft) SW 217 0 min 0,0 UV-I 53 W/m -0,4 C -5,3 C 20,9 km/h (4 Bft)
31.01.2023 10:09 0,6 C 0,6 C 93 % 1027,0 hPa 0,0 l/m 14,4 km/h (3 Bft) W-SW 241 0 min 0,0 UV-I 60 W/m -0,4 C -5,9 C 25,7 km/h (4 Bft)
31.01.2023 10:12 0,6 C 0,6 C 93 % 1027,0 hPa 0,0 l/m 12,3 km/h (3 Bft) S 182 0 min 0,0 UV-I 65 W/m -0,4 C -4,5 C 20,9 km/h (4 Bft)
31.01.2023 10:15 0,7 C 0,6 C 93 % 1027,0 hPa 0,0 l/m 14,1 km/h (3 Bft) S-SW 196 0 min 0,3 UV-I 73 W/m -0,3 C -5,6 C 22,5 km/h (4 Bft)
31.01.2023 10:18 0,7 C 0,6 C 93 % 1027,0 hPa 0,0 l/m 13,5 km/h (3 Bft) S-SW 198 0 min 0,0 UV-I 76 W/m -0,3 C -5,2 C 25,7 km/h (4 Bft)
31.01.2023 10:21 0,7 C 0,6 C 92 % 1026,9 hPa 0,0 l/m 18,7 km/h (3 Bft) S-SW 205 0 min 0,0 UV-I 68 W/m -0,4 C -8,1 C 25,7 km/h (4 Bft)
31.01.2023 10:24 0,8 C 0,6 C 92 % 1026,9 hPa 0,0 l/m 15,7 km/h (3 Bft) S-SW 202 0 min 0,3 UV-I 79 W/m -0,3 C -6,4 C 22,5 km/h (4 Bft)
31.01.2023 10:27 0,8 C 0,6 C 92 % 1027,0 hPa 0,0 l/m 17,8 km/h (3 Bft) SW 232 0 min 0,4 UV-I 81 W/m -0,3 C -7,5 C 27,4 km/h (4 Bft)
31.01.2023 10:30 0,8 C 0,6 C 92 % 1027,0 hPa 0,0 l/m 18,6 km/h (3 Bft) S-SW 208 0 min 0,4 UV-I 79 W/m -0,3 C -7,9 C 27,4 km/h (4 Bft)
31.01.2023 10:33 0,8 C 0,6 C 92 % 1027,2 hPa 0,0 l/m 16,4 km/h (3 Bft) S 187 0 min 0,0 UV-I 62 W/m -0,3 C -6,8 C 24,1 km/h (4 Bft)
31.01.2023 10:36 0,8 C 0,6 C 92 % 1027,3 hPa 0,0 l/m 15,6 km/h (3 Bft) S-SW 194 0 min 0,0 UV-I 49 W/m -0,3 C -6,4 C 24,1 km/h (4 Bft)
31.01.2023 10:39 0,8 C 0,6 C 92 % 1027,3 hPa 0,0 l/m 16,8 km/h (3 Bft) S-SW 205 0 min 0,0 UV-I 41 W/m -0,3 C -7,0 C 25,7 km/h (4 Bft)
31.01.2023 10:42 0,8 C 0,6 C 92 % 1027,4 hPa 0,0 l/m 17,7 km/h (3 Bft) SW 215 0 min 0,0 UV-I 40 W/m -0,3 C -7,5 C 25,7 km/h (4 Bft)
31.01.2023 10:45 0,8 C 0,6 C 92 % 1027,1 hPa 0,0 l/m 14,7 km/h (3 Bft) S 188 0 min 0,0 UV-I 37 W/m -0,3 C -5,8 C 22,5 km/h (4 Bft)
31.01.2023 10:48 0,8 C 0,6 C 92 % 1027,2 hPa 0,0 l/m 16,8 km/h (3 Bft) SW 214 0 min 0,0 UV-I 40 W/m -0,3 C -7,0 C 25,7 km/h (4 Bft)
31.01.2023 10:51 0,8 C 0,6 C 92 % 1027,2 hPa 0,0 l/m 17,4 km/h (3 Bft) S-SW 198 0 min 0,0 UV-I 34 W/m -0,3 C -7,3 C 25,7 km/h (4 Bft)
31.01.2023 10:54 0,8 C 0,6 C 92 % 1027,1 hPa 0,0 l/m 16,9 km/h (3 Bft) S-SW 198 0 min 0,0 UV-I 38 W/m -0,3 C -7,1 C 24,1 km/h (4 Bft)
31.01.2023 10:57 0,8 C 0,6 C 92 % 1027,0 hPa 0,0 l/m 14,1 km/h (3 Bft) S-SW 200 0 min 0,0 UV-I 44 W/m -0,3 C -5,5 C 22,5 km/h (4 Bft)
31.01.2023 11:00 0,8 C 0,6 C 92 % 1027,0 hPa 0,0 l/m 13,9 km/h (3 Bft) S-SW 192 0 min 0,0 UV-I 48 W/m -0,3 C -5,3 C 22,5 km/h (4 Bft)
31.01.2023 11:03 0,8 C 0,6 C 92 % 1027,0 hPa 0,0 l/m 17,1 km/h (3 Bft) S-SW 209 0 min 0,0 UV-I 50 W/m -0,3 C -7,2 C 29,0 km/h (5 Bft)
31.01.2023 11:06 0,9 C 0,6 C 92 % 1027,1 hPa 0,0 l/m 16,9 km/h (3 Bft) S-SW 197 0 min 0,0 UV-I 43 W/m -0,2 C -6,9 C 24,1 km/h (4 Bft)
31.01.2023 11:09 0,9 C 0,6 C 92 % 1027,1 hPa 0,0 l/m 15,8 km/h (3 Bft) S-SW 192 0 min 0,0 UV-I 42 W/m -0,2 C -6,4 C 30,6 km/h (5 Bft)
31.01.2023 11:12 0,9 C 0,6 C 92 % 1027,1 hPa 0,0 l/m 13,9 km/h (3 Bft) SW 223 0 min 0,0 UV-I 44 W/m -0,2 C -5,2 C 24,1 km/h (4 Bft)
31.01.2023 11:15 0,9 C 0,6 C 92 % 1027,0 hPa 0,0 l/m 17,6 km/h (3 Bft) S 174 0 min 0,0 UV-I 44 W/m -0,2 C -7,3 C 22,5 km/h (4 Bft)
31.01.2023 11:18 0,9 C 0,6 C 92 % 1027,1 hPa 0,0 l/m 16,3 km/h (3 Bft) S-SW 213 0 min 0,0 UV-I 26 W/m -0,2 C -6,6 C 25,7 km/h (4 Bft)
31.01.2023 11:21 0,9 C 0,6 C 92 % 1026,9 hPa 0,0 l/m 17,5 km/h (3 Bft) S-SO 165 0 min 0,0 UV-I 40 W/m -0,2 C -7,3 C 30,6 km/h (5 Bft)
31.01.2023 11:24 1,0 C 0,6 C 92 % 1026,8 hPa 0,0 l/m 18,9 km/h (3 Bft) S 186 0 min 0,1 UV-I 66 W/m -0,2 C -7,8 C 27,4 km/h (4 Bft)
31.01.2023 11:27 1,0 C 0,6 C 92 % 1026,8 hPa 0,0 l/m 16,2 km/h (3 Bft) S-SO 153 0 min 0,0 UV-I 52 W/m -0,2 C -6,4 C 20,9 km/h (4 Bft)
31.01.2023 11:30 1,1 C 0,6 C 92 % 1026,9 hPa 0,0 l/m 16,3 km/h (3 Bft) S 190 0 min 0,0 UV-I 57 W/m -0,1 C -6,4 C 27,4 km/h (4 Bft)
31.01.2023 11:33 1,1 C 0,6 C 92 % 1026,9 hPa 0,0 l/m 16,8 km/h (3 Bft) S 174 0 min 0,0 UV-I 40 W/m -0,1 C -6,6 C 24,1 km/h (4 Bft)
31.01.2023 11:36 1,1 C 0,6 C 92 % 1026,7 hPa 0,0 l/m 14,9 km/h (3 Bft) S 188 0 min 0,0 UV-I 41 W/m -0,1 C -5,6 C 27,4 km/h (4 Bft)
31.01.2023 11:39 1,1 C 0,6 C 92 % 1026,8 hPa 0,0 l/m 16,1 km/h (3 Bft) SW 216 0 min 0,0 UV-I 50 W/m -0,1 C -6,3 C 25,7 km/h (4 Bft)
31.01.2023 11:42 1,1 C 1,1 C 92 % 1026,9 hPa 0,0 l/m 16,2 km/h (3 Bft) SW 219 0 min 0,5 UV-I 81 W/m -0,1 C -6,3 C 25,7 km/h (4 Bft)
31.01.2023 11:45 1,1 C 1,1 C 92 % 1026,8 hPa 0,0 l/m 13,7 km/h (3 Bft) S-SW 195 0 min 0,5 UV-I 96 W/m -0,1 C -4,9 C 20,9 km/h (4 Bft)
31.01.2023 11:48 1,1 C 1,1 C 92 % 1026,7 hPa 0,0 l/m 15,8 km/h (3 Bft) S 170 0 min 0,1 UV-I 57 W/m -0,1 C -6,1 C 30,6 km/h (5 Bft)
31.01.2023 11:51 1,1 C 1,1 C 92 % 1026,6 hPa 0,0 l/m 16,6 km/h (3 Bft) S-SW 209 0 min 0,2 UV-I 62 W/m -0,1 C -6,5 C 30,6 km/h (5 Bft)
31.01.2023 11:54 1,1 C 1,1 C 92 % 1026,7 hPa 0,0 l/m 18,6 km/h (3 Bft) SW 221 0 min 0,0 UV-I 57 W/m -0,1 C -7,6 C 27,4 km/h (4 Bft)
31.01.2023 11:57 1,1 C 1,1 C 92 % 1026,5 hPa 0,0 l/m 17,8 km/h (3 Bft) S 182 0 min 0,0 UV-I 58 W/m -0,1 C -7,2 C 29,0 km/h (5 Bft)
31.01.2023 12:00 1,1 C 1,1 C 92 % 1026,6 hPa 0,0 l/m 17,5 km/h (3 Bft) S-SW 194 0 min 0,0 UV-I 63 W/m -0,1 C -7,0 C 24,1 km/h (4 Bft)
31.01.2023 12:03 1,2 C 1,1 C 92 % 1026,5 hPa 0,0 l/m 15,7 km/h (3 Bft) S-SW 196 0 min 0,0 UV-I 57 W/m 0,0 C -5,9 C 25,7 km/h (4 Bft)
31.01.2023 12:06 1,2 C 1,1 C 92 % 1026,5 hPa 0,0 l/m 17,1 km/h (3 Bft) SW 224 0 min 0,0 UV-I 56 W/m 0,0 C -6,7 C 25,7 km/h (4 Bft)
31.01.2023 12:09 1,2 C 1,1 C 92 % 1026,5 hPa 0,0 l/m 15,1 km/h (3 Bft) S-SW 198 0 min 0,0 UV-I 59 W/m 0,0 C -5,6 C 22,5 km/h (4 Bft)
31.01.2023 12:12 1,3 C 1,1 C 92 % 1026,4 hPa 0,0 l/m 17,0 km/h (3 Bft) SW 216 0 min 0,0 UV-I 65 W/m 0,1 C -6,5 C 27,4 km/h (4 Bft)
31.01.2023 12:15 1,3 C 1,1 C 92 % 1026,3 hPa 0,0 l/m 16,9 km/h (3 Bft) S-SW 194 0 min 0,3 UV-I 69 W/m 0,1 C -6,5 C 24,1 km/h (4 Bft)
31.01.2023 12:18 1,3 C 1,1 C 93 % 1026,3 hPa 0,0 l/m 14,5 km/h (3 Bft) S-SW 203 0 min 0,6 UV-I 92 W/m 0,3 C -5,1 C 24,1 km/h (4 Bft)
31.01.2023 12:21 1,3 C 1,1 C 93 % 1026,2 hPa 0,0 l/m 17,5 km/h (3 Bft) S-SO 160 0 min 0,7 UV-I 113 W/m 0,3 C -6,8 C 27,4 km/h (4 Bft)
31.01.2023 12:24 1,3 C 1,1 C 93 % 1026,0 hPa 0,0 l/m 18,8 km/h (3 Bft) S-SW 193 0 min 0,7 UV-I 119 W/m 0,3 C -7,4 C 32,2 km/h (5 Bft)
31.01.2023 12:27 1,4 C 1,1 C 93 % 1025,8 hPa 0,0 l/m 17,7 km/h (3 Bft) S-SW 199 0 min 0,7 UV-I 108 W/m 0,4 C -6,7 C 27,4 km/h (4 Bft)
31.01.2023 12:30 1,4 C 1,7 C 93 % 1025,8 hPa 0,0 l/m 16,8 km/h (3 Bft) S 173 0 min 0,8 UV-I 146 W/m 0,4 C -6,3 C 27,4 km/h (4 Bft)
31.01.2023 12:33 1,4 C 1,7 C 93 % 1025,8 hPa 0,0 l/m 20,0 km/h (4 Bft) S 187 0 min 0,8 UV-I 127 W/m 0,4 C -7,8 C 32,2 km/h (5 Bft)
31.01.2023 12:36 1,5 C 1,7 C 93 % 1025,8 hPa 0,0 l/m 17,9 km/h (3 Bft) SW 217 0 min 0,7 UV-I 104 W/m 0,5 C -6,7 C 25,7 km/h (4 Bft)
31.01.2023 12:39 1,5 C 1,7 C 93 % 1025,7 hPa 0,0 l/m 17,5 km/h (3 Bft) S-SW 198 0 min 0,7 UV-I 107 W/m 0,5 C -6,5 C 27,4 km/h (4 Bft)
31.01.2023 12:42 1,6 C 1,7 C 93 % 1025,6 hPa 0,0 l/m 16,4 km/h (3 Bft) S-SW 194 0 min 0,7 UV-I 99 W/m 0,6 C -5,8 C 24,1 km/h (4 Bft)
31.01.2023 12:45 1,6 C 1,7 C 93 % 1025,6 hPa 0,0 l/m 17,0 km/h (3 Bft) S-SW 194 0 min 0,6 UV-I 90 W/m 0,6 C -6,1 C 22,5 km/h (4 Bft)
31.01.2023 12:48 1,6 C 1,7 C 93 % 1025,5 hPa 0,0 l/m 15,4 km/h (3 Bft) S-SW 192 0 min 0,7 UV-I 107 W/m 0,6 C -5,3 C 30,6 km/h (5 Bft)
31.01.2023 12:51 1,7 C 1,7 C 93 % 1025,4 hPa 0,0 l/m 13,9 km/h (3 Bft) S 183 0 min 0,8 UV-I 122 W/m 0,7 C -4,3 C 25,7 km/h (4 Bft)
31.01.2023 12:54 1,7 C 1,7 C 93 % 1025,5 hPa 0,0 l/m 12,2 km/h (2 Bft) S 190 0 min 0,8 UV-I 133 W/m 0,7 C -3,2 C 17,7 km/h (3 Bft)
31.01.2023 12:57 1,7 C 1,7 C 93 % 1025,3 hPa 0,0 l/m 16,1 km/h (3 Bft) S 189 0 min 0,7 UV-I 116 W/m 0,7 C -5,5 C 22,5 km/h (4 Bft)
31.01.2023 13:00 1,7 C 1,1 C 93 % 1025,4 hPa 0,0 l/m 13,9 km/h (3 Bft) S-SW 204 0 min 0,6 UV-I 100 W/m 0,7 C -4,3 C 19,3 km/h (3 Bft)
31.01.2023 13:03 1,8 C 1,7 C 93 % 1025,3 hPa 0,0 l/m 14,5 km/h (3 Bft) S 188 0 min 0,7 UV-I 117 W/m 0,8 C -4,5 C 24,1 km/h (4 Bft)
31.01.2023 13:06 1,8 C 1,7 C 93 % 1025,3 hPa 0,0 l/m 12,2 km/h (2 Bft) S 180 0 min 0,7 UV-I 110 W/m 0,8 C -3,1 C 20,9 km/h (4 Bft)
31.01.2023 13:09 1,7 C 1,1 C 93 % 1025,2 hPa 0,0 l/m 15,0 km/h (3 Bft) S 184 0 min 0,7 UV-I 103 W/m 0,7 C -4,9 C 29,0 km/h (5 Bft)
31.01.2023 13:12 1,7 C 1,7 C 93 % 1025,2 hPa 0,0 l/m 13,4 km/h (3 Bft) S 187 0 min 0,7 UV-I 117 W/m 0,7 C -4,0 C 20,9 km/h (4 Bft)
31.01.2023 13:15 1,8 C 1,7 C 93 % 1025,2 hPa 0,0 l/m 12,4 km/h (3 Bft) SW 214 0 min 0,8 UV-I 138 W/m 0,8 C -3,2 C 19,3 km/h (3 Bft)
31.01.2023 13:18 1,7 C 1,7 C 93 % 1024,9 hPa 0,0 l/m 17,3 km/h (3 Bft) S-SW 197 0 min 0,7 UV-I 116 W/m 0,7 C -6,2 C 24,1 km/h (4 Bft)
31.01.2023 13:21 1,8 C 1,7 C 93 % 1024,9 hPa 0,0 l/m 17,6 km/h (3 Bft) S-SW 206 0 min 0,9 UV-I 146 W/m 0,8 C -6,2 C 30,6 km/h (5 Bft)
31.01.2023 13:24 1,8 C 1,1 C 93 % 1024,8 hPa 0,0 l/m 19,0 km/h (3 Bft) S 188 0 min 0,9 UV-I 131 W/m 0,8 C -6,9 C 29,0 km/h (5 Bft)
31.01.2023 13:27 1,8 C 1,7 C 93 % 1024,9 hPa 0,0 l/m 16,3 km/h (3 Bft) S 190 0 min 0,9 UV-I 145 W/m 0,8 C -5,5 C 30,6 km/h (5 Bft)
31.01.2023 13:30 1,8 C 1,7 C 93 % 1025,0 hPa 0,0 l/m 18,9 km/h (3 Bft) S 179 0 min 0,9 UV-I 161 W/m 0,8 C -6,8 C 29,0 km/h (5 Bft)
31.01.2023 13:33 1,8 C 1,7 C 93 % 1024,9 hPa 0,0 l/m 18,1 km/h (3 Bft) S-SW 196 0 min 0,9 UV-I 151 W/m 0,8 C -6,4 C 27,4 km/h (4 Bft)
31.01.2023 13:36 1,8 C 1,7 C 93 % 1024,7 hPa 0,0 l/m 15,4 km/h (3 Bft) S-SW 194 0 min 0,8 UV-I 130 W/m 0,8 C -5,0 C 33,8 km/h (5 Bft)
31.01.2023 13:39 1,8 C 1,7 C 93 % 1024,7 hPa 0,0 l/m 15,6 km/h (3 Bft) S-SW 205 0 min 0,9 UV-I 140 W/m 0,8 C -5,1 C 27,4 km/h (4 Bft)
31.01.2023 13:42 1,9 C 1,7 C 93 % 1024,6 hPa 0,0 l/m 17,1 km/h (3 Bft) SW 229 0 min 0,8 UV-I 134 W/m 0,9 C -5,8 C 25,7 km/h (4 Bft)
31.01.2023 13:45 1,9 C 1,7 C 93 % 1024,7 hPa 0,0 l/m 15,5 km/h (3 Bft) S-SW 200 0 min 0,7 UV-I 123 W/m 0,9 C -5,0 C 24,1 km/h (4 Bft)
31.01.2023 13:48 1,8 C 1,7 C 93 % 1024,7 hPa 0,0 l/m 17,6 km/h (3 Bft) S-SW 200 0 min 0,7 UV-I 112 W/m 0,8 C -6,2 C 29,0 km/h (5 Bft)
31.01.2023 13:51 1,9 C 1,7 C 93 % 1024,6 hPa 0,0 l/m 14,6 km/h (3 Bft) S 184 0 min 0,6 UV-I 109 W/m 0,9 C -4,4 C 25,7 km/h (4 Bft)
31.01.2023 13:54 1,9 C 1,7 C 93 % 1024,7 hPa 0,0 l/m 13,3 km/h (3 Bft) SW 234 0 min 0,6 UV-I 103 W/m 0,9 C -3,7 C 29,0 km/h (5 Bft)
31.01.2023 13:57 1,9 C 1,7 C 93 % 1024,6 hPa 0,0 l/m 14,5 km/h (3 Bft) SW 215 0 min 0,5 UV-I 90 W/m 0,9 C -4,4 C 22,5 km/h (4 Bft)
31.01.2023 14:00 1,9 C 1,1 C 93 % 1024,7 hPa 0,0 l/m 15,2 km/h (3 Bft) S 178 0 min 0,0 UV-I 62 W/m 0,9 C -4,8 C 22,5 km/h (4 Bft)
31.01.2023 14:03 1,9 C 1,1 C 93 % 1024,6 hPa 0,0 l/m 18,8 km/h (3 Bft) S-SW 192 0 min 0,0 UV-I 61 W/m 0,9 C -6,6 C 27,4 km/h (4 Bft)
31.01.2023 14:06 1,8 C 1,1 C 93 % 1024,5 hPa 0,0 l/m 16,0 km/h (3 Bft) S-SW 205 0 min 0,0 UV-I 58 W/m 0,8 C -5,4 C 22,5 km/h (4 Bft)
31.01.2023 14:09 1,9 C 1,1 C 93 % 1024,7 hPa 0,0 l/m 18,2 km/h (3 Bft) SW 225 0 min 0,0 UV-I 69 W/m 0,9 C -6,4 C 32,2 km/h (5 Bft)
31.01.2023 14:12 1,8 C 1,1 C 93 % 1024,6 hPa 0,0 l/m 15,0 km/h (3 Bft) S 183 0 min 0,0 UV-I 58 W/m 0,8 C -4,8 C 22,5 km/h (4 Bft)
31.01.2023 14:15 1,9 C 1,1 C 93 % 1024,6 hPa 0,0 l/m 12,8 km/h (3 Bft) W-SW 244 0 min 0,0 UV-I 47 W/m 0,9 C -3,3 C 19,3 km/h (3 Bft)
31.01.2023 14:18 1,9 C 1,1 C 93 % 1024,6 hPa 0,0 l/m 13,7 km/h (3 Bft) S-SW 201 0 min 0,0 UV-I 44 W/m 0,9 C -3,9 C 25,7 km/h (4 Bft)
31.01.2023 14:21 1,8 C 1,1 C 93 % 1024,7 hPa 0,0 l/m 16,0 km/h (3 Bft) S-SW 213 0 min 0,0 UV-I 43 W/m 0,8 C -5,4 C 29,0 km/h (5 Bft)
31.01.2023 14:24 1,9 C 1,1 C 93 % 1024,7 hPa 0,0 l/m 16,4 km/h (3 Bft) S 169 0 min 0,0 UV-I 41 W/m 0,9 C -5,4 C 24,1 km/h (4 Bft)
31.01.2023 14:27 1,8 C 1,1 C 93 % 1024,8 hPa 0,0 l/m 17,6 km/h (3 Bft) S-SW 196 0 min 0,0 UV-I 40 W/m 0,8 C -6,2 C 24,1 km/h (4 Bft)
31.01.2023 14:30 1,9 C 1,1 C 93 % 1024,8 hPa 0,0 l/m 15,8 km/h (3 Bft) SW 218 0 min 0,0 UV-I 36 W/m 0,9 C -5,1 C 20,9 km/h (4 Bft)
31.01.2023 14:33 1,9 C 1,1 C 93 % 1024,8 hPa 0,0 l/m 16,8 km/h (3 Bft) S-SW 205 0 min 0,0 UV-I 38 W/m 0,9 C -5,7 C 27,4 km/h (4 Bft)
31.01.2023 14:36 1,9 C 1,1 C 93 % 1024,8 hPa 0,0 l/m 15,3 km/h (3 Bft) S-SW 209 0 min 0,0 UV-I 39 W/m 0,9 C -4,8 C 22,5 km/h (4 Bft)
31.01.2023 14:39 1,9 C 1,1 C 93 % 1024,7 hPa 0,0 l/m 16,1 km/h (3 Bft) S-SW 194 0 min 0,0 UV-I 33 W/m 0,9 C -5,3 C 24,1 km/h (4 Bft)
31.01.2023 14:42 1,8 C 1,1 C 93 % 1024,8 hPa 0,0 l/m 14,7 km/h (3 Bft) S-SW 194 0 min 0,0 UV-I 40 W/m 0,8 C -4,6 C 25,7 km/h (4 Bft)
31.01.2023 14:45 1,8 C 1,1 C 93 % 1024,8 hPa 0,0 l/m 14,0 km/h (3 Bft) S-SW 211 0 min 0,0 UV-I 43 W/m 0,8 C -4,2 C 24,1 km/h (4 Bft)
31.01.2023 14:48 1,8 C 1,1 C 93 % 1024,9 hPa 0,0 l/m 10,6 km/h (2 Bft) S 190 0 min 0,0 UV-I 45 W/m 0,8 C -1,9 C 16,1 km/h (3 Bft)
31.01.2023 14:51 1,8 C 1,1 C 93 % 1024,9 hPa 0,0 l/m 11,1 km/h (2 Bft) S 191 0 min 0,0 UV-I 43 W/m 0,8 C -2,3 C 17,7 km/h (3 Bft)
31.01.2023 14:54 1,8 C 1,1 C 93 % 1024,8 hPa 0,0 l/m 15,7 km/h (3 Bft) S 191 0 min 0,0 UV-I 37 W/m 0,8 C -5,2 C 22,5 km/h (4 Bft)
31.01.2023 14:57 1,9 C 1,1 C 93 % 1024,9 hPa 0,0 l/m 14,8 km/h (3 Bft) S 177 0 min 0,0 UV-I 41 W/m 0,9 C -4,6 C 27,4 km/h (4 Bft)
31.01.2023 15:00 1,9 C 1,1 C 93 % 1024,8 hPa 0,0 l/m 14,0 km/h (3 Bft) S-SO 167 0 min 0,0 UV-I 47 W/m 0,9 C -4,1 C 22,5 km/h (4 Bft)
31.01.2023 15:03 1,9 C 1,1 C 93 % 1024,8 hPa 0,0 l/m 14,9 km/h (3 Bft) S-SW 198 0 min 0,0 UV-I 45 W/m 0,9 C -4,6 C 27,4 km/h (4 Bft)
31.01.2023 15:06 1,8 C 1,1 C 93 % 1024,8 hPa 0,0 l/m 13,0 km/h (3 Bft) S 180 0 min 0,0 UV-I 39 W/m 0,8 C -3,6 C 24,1 km/h (4 Bft)
31.01.2023 15:09 1,8 C 1,1 C 93 % 1024,8 hPa 0,0 l/m 12,0 km/h (2 Bft) S 178 0 min 0,0 UV-I 34 W/m 0,8 C -2,9 C 17,7 km/h (3 Bft)
31.01.2023 15:12 1,8 C 1,1 C 93 % 1024,8 hPa 0,0 l/m 12,3 km/h (3 Bft) S 171 0 min 0,0 UV-I 25 W/m 0,8 C -3,1 C 22,5 km/h (4 Bft)
31.01.2023 15:15 1,8 C 1,1 C 93 % 1024,7 hPa 0,0 l/m 10,4 km/h (2 Bft) S 187 0 min 0,0 UV-I 22 W/m 0,8 C -1,8 C 22,5 km/h (4 Bft)
31.01.2023 15:18 1,8 C 1,1 C 93 % 1024,7 hPa 0,0 l/m 11,9 km/h (2 Bft) S 190 0 min 0,0 UV-I 21 W/m 0,8 C -2,9 C 20,9 km/h (4 Bft)
31.01.2023 15:21 1,8 C 1,1 C 93 % 1024,8 hPa 0,0 l/m 10,3 km/h (2 Bft) S 185 0 min 0,0 UV-I 20 W/m 0,8 C -1,7 C 17,7 km/h (3 Bft)
31.01.2023 15:24 1,8 C 1,1 C 93 % 1024,7 hPa 0,0 l/m 12,8 km/h (3 Bft) S-SW 199 0 min 0,0 UV-I 25 W/m 0,8 C -3,5 C 20,9 km/h (4 Bft)
31.01.2023 15:27 1,8 C 1,1 C 93 % 1024,9 hPa 0,0 l/m 11,7 km/h (2 Bft) S 186 0 min 0,0 UV-I 26 W/m 0,8 C -2,7 C 20,9 km/h (4 Bft)
31.01.2023 15:30 1,8 C 1,1 C 93 % 1024,9 hPa 0,0 l/m 11,1 km/h (2 Bft) SW 215 0 min 0,0 UV-I 25 W/m 0,8 C -2,3 C 17,7 km/h (3 Bft)
31.01.2023 15:33 1,9 C 1,7 C 93 % 1024,8 hPa 0,0 l/m 11,8 km/h (2 Bft) S-SW 205 0 min 0,0 UV-I 25 W/m 0,9 C -2,7 C 19,3 km/h (3 Bft)
31.01.2023 15:36 1,9 C 1,7 C 94 % 1024,9 hPa 0,0 l/m 11,0 km/h (2 Bft) S-SW 196 0 min 0,0 UV-I 18 W/m 1,0 C -2,1 C 19,3 km/h (3 Bft)
31.01.2023 15:39 2,0 C 1,7 C 94 % 1024,8 hPa 0,0 l/m 8,9 km/h (2 Bft) S 187 0 min 0,0 UV-I 19 W/m 1,1 C -0,3 C 19,3 km/h (3 Bft)
31.01.2023 15:42 2,0 C 1,7 C 93 % 1024,8 hPa 0,0 l/m 11,0 km/h (2 Bft) S 191 0 min 0,0 UV-I 26 W/m 1,0 C -2,0 C 19,3 km/h (3 Bft)
31.01.2023 15:45 2,1 C 1,7 C 94 % 1024,8 hPa 0,0 l/m 12,9 km/h (3 Bft) S-SO 161 0 min 0,0 UV-I 33 W/m 1,2 C -3,2 C 17,7 km/h (3 Bft)
31.01.2023 15:48 2,2 C 1,7 C 93 % 1024,8 hPa 0,0 l/m 9,6 km/h (2 Bft) S 179 0 min 0,0 UV-I 29 W/m 1,2 C -0,7 C 19,3 km/h (3 Bft)
31.01.2023 15:51 2,2 C 1,7 C 93 % 1024,7 hPa 0,0 l/m 11,1 km/h (2 Bft) S-SW 202 0 min 0,0 UV-I 31 W/m 1,2 C -1,8 C 19,3 km/h (3 Bft)
31.01.2023 15:54 2,2 C 1,7 C 93 % 1024,8 hPa 0,0 l/m 8,5 km/h (2 Bft) S 184 0 min 0,0 UV-I 24 W/m 1,2 C 0,2 C 14,5 km/h (3 Bft)
31.01.2023 15:57 2,2 C 1,7 C 93 % 1024,9 hPa 0,0 l/m 10,6 km/h (2 Bft) S-SW 209 0 min 0,0 UV-I 20 W/m 1,2 C -1,5 C 16,1 km/h (3 Bft)
31.01.2023 16:00 2,2 C 1,7 C 94 % 1024,9 hPa 0,0 l/m 11,3 km/h (2 Bft) S-SW 199 0 min 0,0 UV-I 14 W/m 1,3 C -2,0 C 16,1 km/h (3 Bft)
31.01.2023 16:03 2,3 C 1,7 C 94 % 1025,0 hPa 0,0 l/m 14,8 km/h (3 Bft) S-SO 168 0 min 0,0 UV-I 15 W/m 1,4 C -4,1 C 24,1 km/h (4 Bft)
31.01.2023 16:06 2,4 C 1,7 C 94 % 1024,9 hPa 0,0 l/m 12,5 km/h (3 Bft) S 186 0 min 0,0 UV-I 21 W/m 1,5 C -2,6 C 19,3 km/h (3 Bft)
31.01.2023 16:09 2,4 C 1,7 C 94 % 1024,9 hPa 0,0 l/m 10,5 km/h (2 Bft) S-SW 202 0 min 0,0 UV-I 23 W/m 1,5 C -1,2 C 17,7 km/h (3 Bft)
31.01.2023 16:12 2,4 C 1,7 C 94 % 1024,9 hPa 0,0 l/m 12,8 km/h (3 Bft) S-SW 210 0 min 0,0 UV-I 24 W/m 1,5 C -2,8 C 22,5 km/h (4 Bft)
31.01.2023 16:15 2,4 C 1,7 C 94 % 1024,9 hPa 0,0 l/m 11,0 km/h (2 Bft) W-SW 245 0 min 0,0 UV-I 19 W/m 1,5 C -1,5 C 22,5 km/h (4 Bft)
31.01.2023 16:18 2,5 C 1,7 C 94 % 1024,9 hPa 0,0 l/m 14,0 km/h (3 Bft) W-SW 239 0 min 0,0 UV-I 27 W/m 1,6 C -3,4 C 24,1 km/h (4 Bft)
31.01.2023 16:21 2,5 C 1,7 C 94 % 1024,8 hPa 0,0 l/m 14,2 km/h (3 Bft) W-SW 248 0 min 0,0 UV-I 25 W/m 1,6 C -3,5 C 24,1 km/h (4 Bft)
31.01.2023 16:24 2,6 C 1,7 C 94 % 1024,7 hPa 0,0 l/m 11,7 km/h (2 Bft) SW 222 0 min 0,0 UV-I 24 W/m 1,7 C -1,8 C 19,3 km/h (3 Bft)
31.01.2023 16:27 2,6 C 1,7 C 94 % 1024,7 hPa 0,0 l/m 12,9 km/h (3 Bft) S-SW 211 0 min 0,0 UV-I 19 W/m 1,7 C -2,6 C 22,5 km/h (4 Bft)
31.01.2023 16:30 2,6 C 1,7 C 94 % 1024,7 hPa 0,0 l/m 15,3 km/h (3 Bft) SW 218 0 min 0,0 UV-I 16 W/m 1,7 C -4,0 C 32,2 km/h (5 Bft)
31.01.2023 16:33 2,6 C 1,7 C 94 % 1024,7 hPa 0,0 l/m 13,0 km/h (3 Bft) W-SW 240 0 min 0,0 UV-I 13 W/m 1,7 C -2,7 C 19,3 km/h (3 Bft)
31.01.2023 16:36 2,6 C 1,7 C 94 % 1024,6 hPa 0,0 l/m 17,3 km/h (3 Bft) S-SW 204 0 min 0,0 UV-I 12 W/m 1,7 C -5,0 C 24,1 km/h (4 Bft)
31.01.2023 16:39 2,6 C 1,7 C 94 % 1024,6 hPa 0,0 l/m 17,9 km/h (3 Bft) SW 232 0 min 0,0 UV-I 13 W/m 1,7 C -5,3 C 29,0 km/h (5 Bft)
31.01.2023 16:42 2,6 C 1,7 C 94 % 1024,8 hPa 0,0 l/m 12,9 km/h (3 Bft) S 189 0 min 0,0 UV-I 14 W/m 1,7 C -2,6 C 24,1 km/h (4 Bft)
31.01.2023 16:45 2,6 C 1,7 C 94 % 1024,9 hPa 0,0 l/m 9,7 km/h (2 Bft) S 178 0 min 0,0 UV-I 14 W/m 1,7 C -0,3 C 17,7 km/h (3 Bft)
31.01.2023 16:48 2,6 C 1,7 C 94 % 1024,9 hPa 0,0 l/m 12,4 km/h (3 Bft) S-SW 201 0 min 0,0 UV-I 9 W/m 1,7 C -2,3 C 25,7 km/h (4 Bft)
31.01.2023 16:51 2,6 C 1,7 C 94 % 1024,9 hPa 0,0 l/m 13,8 km/h (3 Bft) S-SW 204 0 min 0,0 UV-I 10 W/m 1,7 C -3,1 C 25,7 km/h (4 Bft)
31.01.2023 16:54 2,6 C 1,7 C 94 % 1025,0 hPa 0,0 l/m 13,3 km/h (3 Bft) W-SW 247 0 min 0,0 UV-I 10 W/m 1,7 C -2,8 C 24,1 km/h (4 Bft)
31.01.2023 16:57 2,6 C 1,7 C 94 % 1024,9 hPa 0,0 l/m 13,5 km/h (3 Bft) S-SW 200 0 min 0,0 UV-I 5 W/m 1,7 C -3,0 C 25,7 km/h (4 Bft)
31.01.2023 17:00 2,6 C 1,7 C 94 % 1025,0 hPa 0,0 l/m 13,8 km/h (3 Bft) SW 229 0 min 0,0 UV-I 0 W/m 1,7 C -3,1 C 22,5 km/h (4 Bft)
31.01.2023 17:03 2,6 C 1,7 C 94 % 1024,9 hPa 0,0 l/m 13,7 km/h (3 Bft) SW 229 0 min 0,0 UV-I 0 W/m 1,7 C -3,1 C 22,5 km/h (4 Bft)
31.01.2023 17:06 2,6 C 1,7 C 94 % 1025,0 hPa 0,0 l/m 10,5 km/h (2 Bft) S-SW 195 0 min 0,0 UV-I 0 W/m 1,7 C -1,0 C 24,1 km/h (4 Bft)
31.01.2023 17:09 2,6 C 1,7 C 94 % 1025,0 hPa 0,0 l/m 12,8 km/h (3 Bft) S-SW 196 0 min 0,0 UV-I 0 W/m 1,7 C -2,5 C 22,5 km/h (4 Bft)
31.01.2023 17:12 2,6 C 1,7 C 94 % 1024,9 hPa 0,0 l/m 14,0 km/h (3 Bft) SW 218 0 min 0,0 UV-I 0 W/m 1,7 C -3,3 C 25,7 km/h (4 Bft)
31.01.2023 17:15 2,6 C 1,7 C 94 % 1025,0 hPa 0,0 l/m 11,9 km/h (2 Bft) S-SW 205 0 min 0,0 UV-I 0 W/m 1,7 C -1,9 C 17,7 km/h (3 Bft)
31.01.2023 17:18 2,6 C 1,7 C 94 % 1025,0 hPa 0,0 l/m 11,3 km/h (2 Bft) W-SW 254 0 min 0,0 UV-I 0 W/m 1,7 C -1,5 C 19,3 km/h (3 Bft)
31.01.2023 17:21 2,7 C 1,7 C 94 % 1025,1 hPa 0,0 l/m 11,0 km/h (2 Bft) W 261 0 min 0,0 UV-I 0 W/m 1,8 C -1,2 C 22,5 km/h (4 Bft)
31.01.2023 17:24 2,7 C 1,7 C 94 % 1025,1 hPa 0,0 l/m 11,4 km/h (2 Bft) SW 227 0 min 0,0 UV-I 0 W/m 1,8 C -1,5 C 20,9 km/h (4 Bft)
31.01.2023 17:27 2,7 C 1,7 C 94 % 1025,1 hPa 0,0 l/m 9,5 km/h (2 Bft) W-SW 238 0 min 0,0 UV-I 0 W/m 1,8 C -0,1 C 17,7 km/h (3 Bft)
31.01.2023 17:30 2,7 C 1,7 C 94 % 1025,0 hPa 0,0 l/m 10,1 km/h (2 Bft) W-SW 241 0 min 0,0 UV-I 0 W/m 1,8 C -0,5 C 17,7 km/h (3 Bft)
31.01.2023 17:33 2,6 C 1,7 C 94 % 1025,0 hPa 0,0 l/m 8,0 km/h (2 Bft) SW 217 0 min 0,0 UV-I 0 W/m 1,7 C 1,1 C 20,9 km/h (4 Bft)
31.01.2023 17:36 2,6 C 2,2 C 94 % 1025,2 hPa 0,0 l/m 7,7 km/h (2 Bft) SW 236 0 min 0,0 UV-I 0 W/m 1,7 C 1,4 C 16,1 km/h (3 Bft)
31.01.2023 17:39 2,7 C 2,2 C 94 % 1025,2 hPa 0,0 l/m 10,6 km/h (2 Bft) W-SW 252 0 min 0,0 UV-I 0 W/m 1,8 C -0,9 C 16,1 km/h (3 Bft)
31.01.2023 17:42 2,7 C 2,2 C 94 % 1025,1 hPa 0,0 l/m 6,9 km/h (2 Bft) SW 221 0 min 0,0 UV-I 0 W/m 1,8 C 2,2 C 19,3 km/h (3 Bft)
31.01.2023 17:45 2,7 C 2,2 C 94 % 1025,3 hPa 0,0 l/m 7,8 km/h (2 Bft) SW 217 0 min 0,0 UV-I 0 W/m 1,8 C 1,4 C 16,1 km/h (3 Bft)
31.01.2023 17:48 2,7 C 1,7 C 94 % 1025,2 hPa 0,0 l/m 5,7 km/h (1 Bft) SW 225 0 min 0,0 UV-I 0 W/m 1,8 C 2,7 C 11,3 km/h (2 Bft)
31.01.2023 17:51 2,7 C 1,7 C 94 % 1025,1 hPa 0,0 l/m 6,3 km/h (2 Bft) SW 226 0 min 0,0 UV-I 0 W/m 1,8 C 2,7 C 12,9 km/h (3 Bft)
31.01.2023 17:54 2,7 C 1,7 C 94 % 1025,2 hPa 0,2 l/m 7,3 km/h (2 Bft) W-SW 242 0 min 0,0 UV-I 0 W/m 1,8 C 1,8 C 12,9 km/h (3 Bft)
31.01.2023 17:57 2,7 C 2,2 C 94 % 1025,3 hPa 0,0 l/m 6,1 km/h (2 Bft) S-SW 204 0 min 0,0 UV-I 0 W/m 1,8 C 2,7 C 11,3 km/h (2 Bft)
31.01.2023 18:00 2,7 C 2,2 C 94 % 1025,2 hPa 0,0 l/m 6,8 km/h (2 Bft) S-SW 201 0 min 0,0 UV-I 0 W/m 1,8 C 2,3 C 16,1 km/h (3 Bft)
31.01.2023 18:03 2,7 C 2,2 C 94 % 1025,2 hPa 0,0 l/m 8,8 km/h (2 Bft) W 267 0 min 0,0 UV-I 0 W/m 1,8 C 0,5 C 14,5 km/h (3 Bft)
31.01.2023 18:06 2,7 C 2,2 C 94 % 1025,2 hPa 0,0 l/m 7,2 km/h (2 Bft) S-SW 213 0 min 0,0 UV-I 0 W/m 1,8 C 1,9 C 16,1 km/h (3 Bft)
31.01.2023 18:09 2,7 C 2,2 C 94 % 1025,3 hPa 0,0 l/m 7,7 km/h (2 Bft) SW 229 0 min 0,0 UV-I 0 W/m 1,8 C 1,5 C 14,5 km/h (3 Bft)
31.01.2023 18:12 2,7 C 2,2 C 94 % 1025,3 hPa 0,0 l/m 7,8 km/h (2 Bft) SW 221 0 min 0,0 UV-I 0 W/m 1,8 C 1,4 C 16,1 km/h (3 Bft)
31.01.2023 18:15 2,8 C 2,2 C 94 % 1025,3 hPa 0,0 l/m 8,2 km/h (2 Bft) W-SW 237 0 min 0,0 UV-I 0 W/m 1,9 C 1,1 C 14,5 km/h (3 Bft)
31.01.2023 18:18 2,8 C 2,2 C 94 % 1025,4 hPa 0,0 l/m 6,5 km/h (2 Bft) S-SW 205 0 min 0,0 UV-I 0 W/m 1,9 C 2,7 C 12,9 km/h (3 Bft)
31.01.2023 18:21 2,8 C 2,2 C 94 % 1025,5 hPa 0,0 l/m 6,6 km/h (2 Bft) SW 225 0 min 0,0 UV-I 0 W/m 1,9 C 2,6 C 12,9 km/h (3 Bft)
31.01.2023 18:24 2,8 C 2,2 C 94 % 1025,6 hPa 0,0 l/m 7,8 km/h (2 Bft) SW 223 0 min 0,0 UV-I 0 W/m 1,9 C 1,5 C 17,7 km/h (3 Bft)
31.01.2023 18:27 2,8 C 2,2 C 94 % 1025,5 hPa 0,0 l/m 6,7 km/h (2 Bft) SW 218 0 min 0,0 UV-I 0 W/m 1,9 C 2,5 C 11,3 km/h (2 Bft)
31.01.2023 18:30 2,8 C 2,2 C 94 % 1025,5 hPa 0,0 l/m 8,2 km/h (2 Bft) W-SW 254 0 min 0,0 UV-I 0 W/m 1,9 C 1,1 C 17,7 km/h (3 Bft)
31.01.2023 18:33 2,8 C 2,2 C 94 % 1025,6 hPa 0,0 l/m 7,5 km/h (2 Bft) SW 236 0 min 0,0 UV-I 0 W/m 1,9 C 1,8 C 17,7 km/h (3 Bft)
31.01.2023 18:36 2,8 C 2,2 C 94 % 1025,5 hPa 0,0 l/m 8,3 km/h (2 Bft) SW 223 0 min 0,0 UV-I 0 W/m 1,9 C 1,0 C 14,5 km/h (3 Bft)
31.01.2023 18:39 2,8 C 2,2 C 94 % 1025,5 hPa 0,0 l/m 7,0 km/h (2 Bft) SW 224 0 min 0,0 UV-I 0 W/m 1,9 C 2,2 C 14,5 km/h (3 Bft)
31.01.2023 18:42 2,9 C 2,2 C 94 % 1025,3 hPa 0,0 l/m 9,1 km/h (2 Bft) SW 230 0 min 0,0 UV-I 0 W/m 2,0 C 0,5 C 20,9 km/h (4 Bft)
31.01.2023 18:45 2,9 C 2,2 C 94 % 1025,4 hPa 0,0 l/m 9,0 km/h (2 Bft) SW 227 0 min 0,0 UV-I 0 W/m 2,0 C 0,5 C 20,9 km/h (4 Bft)
31.01.2023 18:48 2,9 C 2,2 C 94 % 1025,4 hPa 0,0 l/m 9,3 km/h (2 Bft) W-SW 244 0 min 0,0 UV-I 0 W/m 2,0 C 0,3 C 19,3 km/h (3 Bft)
31.01.2023 18:51 2,9 C 2,2 C 94 % 1025,4 hPa 0,0 l/m 7,8 km/h (2 Bft) SW 214 0 min 0,0 UV-I 0 W/m 2,0 C 1,6 C 19,3 km/h (3 Bft)
31.01.2023 18:54 3,0 C 2,2 C 94 % 1025,5 hPa 0,0 l/m 7,8 km/h (2 Bft) SW 214 0 min 0,0 UV-I 0 W/m 2,1 C 1,7 C 19,3 km/h (3 Bft)
31.01.2023 18:57 2,9 C 2,2 C 94 % 1025,5 hPa 0,0 l/m 9,8 km/h (2 Bft) SW 215 0 min 0,0 UV-I 0 W/m 2,0 C -0,1 C 17,7 km/h (3 Bft)
31.01.2023 19:00 3,0 C 2,2 C 94 % 1025,6 hPa 0,0 l/m 9,5 km/h (2 Bft) W-SW 241 0 min 0,0 UV-I 0 W/m 2,1 C 0,2 C 17,7 km/h (3 Bft)
31.01.2023 19:03 3,0 C 2,2 C 94 % 1025,6 hPa 0,0 l/m 7,4 km/h (2 Bft) W-SW 248 0 min 0,0 UV-I 0 W/m 2,1 C 2,1 C 17,7 km/h (3 Bft)
31.01.2023 19:06 3,1 C 2,2 C 94 % 1025,6 hPa 0,0 l/m 6,3 km/h (2 Bft) SW 231 0 min 0,0 UV-I 0 W/m 2,2 C 3,1 C 11,3 km/h (2 Bft)
31.01.2023 19:09 3,1 C 2,2 C 94 % 1025,6 hPa 0,0 l/m 8,6 km/h (2 Bft) SW 226 0 min 0,0 UV-I 0 W/m 2,2 C 1,1 C 17,7 km/h (3 Bft)
31.01.2023 19:12 3,1 C 2,2 C 94 % 1025,6 hPa 0,0 l/m 8,4 km/h (2 Bft) S-SW 208 0 min 0,0 UV-I 0 W/m 2,2 C 1,3 C 19,3 km/h (3 Bft)
31.01.2023 19:15 3,1 C 2,2 C 94 % 1025,5 hPa 0,0 l/m 11,4 km/h (2 Bft) SW 228 0 min 0,0 UV-I 0 W/m 2,2 C -1,0 C 24,1 km/h (4 Bft)
31.01.2023 19:18 3,1 C 2,2 C 94 % 1025,6 hPa 0,0 l/m 9,2 km/h (2 Bft) SW 233 0 min 0,0 UV-I 0 W/m 2,2 C 0,6 C 16,1 km/h (3 Bft)
31.01.2023 19:21 3,1 C 2,2 C 94 % 1025,5 hPa 0,0 l/m 7,6 km/h (2 Bft) SW 231 0 min 0,0 UV-I 0 W/m 2,2 C 2,0 C 12,9 km/h (3 Bft)
31.01.2023 19:24 3,1 C 2,2 C 94 % 1025,6 hPa 0,0 l/m 9,0 km/h (2 Bft) W-SW 250 0 min 0,0 UV-I 0 W/m 2,2 C 0,8 C 16,1 km/h (3 Bft)
31.01.2023 19:27 3,1 C 2,8 C 94 % 1025,6 hPa 0,0 l/m 11,9 km/h (2 Bft) W-SW 238 0 min 0,0 UV-I 0 W/m 2,2 C -1,4 C 22,5 km/h (4 Bft)
31.01.2023 19:30 3,1 C 2,2 C 94 % 1025,6 hPa 0,0 l/m 10,3 km/h (2 Bft) SW 227 0 min 0,0 UV-I 0 W/m 2,2 C -0,2 C 17,7 km/h (3 Bft)
31.01.2023 19:33 3,1 C 2,2 C 94 % 1025,4 hPa 0,0 l/m 10,6 km/h (2 Bft) W-SW 247 0 min 0,0 UV-I 0 W/m 2,2 C -0,5 C 17,7 km/h (3 Bft)
31.01.2023 19:36 3,2 C 2,2 C 94 % 1025,4 hPa 0,0 l/m 10,6 km/h (2 Bft) SW 217 0 min 0,0 UV-I 0 W/m 2,3 C -0,4 C 17,7 km/h (3 Bft)
31.01.2023 19:39 3,2 C 2,8 C 94 % 1025,3 hPa 0,0 l/m 10,4 km/h (2 Bft) SW 235 0 min 0,0 UV-I 0 W/m 2,3 C -0,2 C 20,9 km/h (4 Bft)
31.01.2023 19:42 3,2 C 2,8 C 94 % 1025,4 hPa 0,0 l/m 7,6 km/h (2 Bft) S-SW 193 0 min 0,0 UV-I 0 W/m 2,3 C 2,1 C 12,9 km/h (3 Bft)
31.01.2023 19:45 3,2 C 2,2 C 94 % 1025,1 hPa 0,0 l/m 8,0 km/h (2 Bft) S 187 0 min 0,0 UV-I 0 W/m 2,3 C 1,7 C 14,5 km/h (3 Bft)
31.01.2023 19:48 3,2 C 2,2 C 94 % 1025,1 hPa 0,0 l/m 10,9 km/h (2 Bft) S-SW 196 0 min 0,0 UV-I 0 W/m 2,3 C -0,6 C 17,7 km/h (3 Bft)
31.01.2023 19:51 3,2 C 2,2 C 94 % 1025,0 hPa 0,0 l/m 6,0 km/h (2 Bft) W-SW 249 0 min 0,0 UV-I 0 W/m 2,3 C 3,2 C 12,9 km/h (3 Bft)
31.01.2023 19:54 3,2 C 2,2 C 94 % 1025,0 hPa 0,0 l/m 6,9 km/h (2 Bft) S 186 0 min 0,0 UV-I 0 W/m 2,3 C 2,7 C 20,9 km/h (4 Bft)
31.01.2023 19:57 3,2 C 2,2 C 94 % 1025,1 hPa 0,0 l/m 7,6 km/h (2 Bft) W-SW 254 0 min 0,0 UV-I 0 W/m 2,3 C 2,1 C 16,1 km/h (3 Bft)
31.01.2023 20:00 3,2 C 2,8 C 94 % 1025,2 hPa 0,0 l/m 9,6 km/h (2 Bft) W-SW 257 0 min 0,0 UV-I 0 W/m 2,3 C 0,4 C 20,9 km/h (4 Bft)
31.01.2023 20:03 3,2 C 2,8 C 94 % 1025,3 hPa 0,0 l/m 7,7 km/h (2 Bft) SW 233 0 min 0,0 UV-I 0 W/m 2,3 C 2,0 C 14,5 km/h (3 Bft)
31.01.2023 20:06 3,2 C 2,8 C 94 % 1025,2 hPa 0,0 l/m 7,8 km/h (2 Bft) S-SW 213 0 min 0,0 UV-I 0 W/m 2,3 C 1,9 C 14,5 km/h (3 Bft)
31.01.2023 20:09 3,2 C 2,2 C 94 % 1025,3 hPa 0,0 l/m 6,1 km/h (2 Bft) SW 222 0 min 0,0 UV-I 0 W/m 2,3 C 3,2 C 11,3 km/h (2 Bft)
31.01.2023 20:12 3,2 C 2,8 C 94 % 1025,3 hPa 0,0 l/m 10,0 km/h (2 Bft) SW 234 0 min 0,0 UV-I 0 W/m 2,3 C 0,1 C 20,9 km/h (4 Bft)
31.01.2023 20:15 3,2 C 2,8 C 94 % 1025,3 hPa 0,0 l/m 6,6 km/h (2 Bft) S-SW 212 0 min 0,0 UV-I 0 W/m 2,3 C 3,0 C 14,5 km/h (3 Bft)
31.01.2023 20:18 3,2 C 2,8 C 94 % 1025,3 hPa 0,0 l/m 5,6 km/h (1 Bft) W-SW 242 0 min 0,0 UV-I 0 W/m 2,3 C 3,2 C 12,9 km/h (3 Bft)
31.01.2023 20:21 3,2 C 2,8 C 94 % 1025,2 hPa 0,0 l/m 5,7 km/h (1 Bft) SW 219 0 min 0,0 UV-I 0 W/m 2,3 C 3,2 C 9,7 km/h (2 Bft)
31.01.2023 20:24 3,2 C 2,8 C 94 % 1025,3 hPa 0,0 l/m 8,7 km/h (2 Bft) S 178 0 min 0,0 UV-I 0 W/m 2,3 C 1,1 C 17,7 km/h (3 Bft)
31.01.2023 20:27 3,2 C 2,8 C 94 % 1025,1 hPa 0,0 l/m 5,3 km/h (1 Bft) S-SW 193 0 min 0,0 UV-I 0 W/m 2,3 C 3,2 C 12,9 km/h (3 Bft)
31.01.2023 20:30 3,2 C 2,8 C 94 % 1025,1 hPa 0,0 l/m 6,3 km/h (2 Bft) S-SW 203 0 min 0,0 UV-I 0 W/m 2,3 C 3,2 C 16,1 km/h (3 Bft)
31.01.2023 20:33 3,2 C 2,8 C 94 % 1025,2 hPa 0,0 l/m 9,8 km/h (2 Bft) S-SW 206 0 min 0,0 UV-I 0 W/m 2,3 C 0,2 C 24,1 km/h (4 Bft)
31.01.2023 20:36 3,3 C 2,8 C 94 % 1025,1 hPa 0,0 l/m 10,6 km/h (2 Bft) S-SW 201 0 min 0,0 UV-I 0 W/m 2,4 C -0,2 C 17,7 km/h (3 Bft)
31.01.2023 20:39 3,3 C 2,8 C 94 % 1025,2 hPa 0,0 l/m 7,5 km/h (2 Bft) SW 228 0 min 0,0 UV-I 0 W/m 2,4 C 2,3 C 14,5 km/h (3 Bft)
31.01.2023 20:42 3,3 C 2,8 C 94 % 1025,1 hPa 0,0 l/m 8,2 km/h (2 Bft) S-SW 195 0 min 0,0 UV-I 0 W/m 2,4 C 1,6 C 14,5 km/h (3 Bft)
31.01.2023 20:45 3,3 C 2,8 C 94 % 1025,1 hPa 0,0 l/m 10,3 km/h (2 Bft) SW 222 0 min 0,0 UV-I 0 W/m 2,4 C -0,0 C 19,3 km/h (3 Bft)
31.01.2023 20:48 3,3 C 2,8 C 94 % 1025,2 hPa 0,0 l/m 6,2 km/h (2 Bft) SW 216 0 min 0,0 UV-I 0 W/m 2,4 C 3,3 C 11,3 km/h (2 Bft)
31.01.2023 20:51 3,3 C 2,8 C 94 % 1025,1 hPa 0,0 l/m 6,5 km/h (2 Bft) S-SW 211 0 min 0,0 UV-I 0 W/m 2,4 C 3,2 C 12,9 km/h (3 Bft)
31.01.2023 20:54 3,3 C 2,8 C 94 % 1025,2 hPa 0,0 l/m 5,4 km/h (1 Bft) S-SW 205 0 min 0,0 UV-I 0 W/m 2,4 C 3,3 C 12,9 km/h (3 Bft)
31.01.2023 20:57 3,3 C 2,8 C 94 % 1025,2 hPa 0,0 l/m 7,0 km/h (2 Bft) SW 226 0 min 0,0 UV-I 0 W/m 2,4 C 2,7 C 14,5 km/h (3 Bft)
31.01.2023 21:00 3,3 C 2,8 C 94 % 1025,2 hPa 0,0 l/m 5,4 km/h (1 Bft) SW 229 0 min 0,0 UV-I 0 W/m 2,4 C 3,3 C 11,3 km/h (2 Bft)
31.01.2023 21:03 3,3 C 2,8 C 94 % 1025,1 hPa 0,0 l/m 8,7 km/h (2 Bft) W-SW 245 0 min 0,0 UV-I 0 W/m 2,4 C 1,2 C 16,1 km/h (3 Bft)
31.01.2023 21:06 3,3 C 2,8 C 94 % 1025,1 hPa 0,0 l/m 7,4 km/h (2 Bft) SW 233 0 min 0,0 UV-I 0 W/m 2,4 C 2,4 C 12,9 km/h (3 Bft)
31.01.2023 21:09 3,4 C 2,8 C 94 % 1025,2 hPa 0,0 l/m 9,5 km/h (2 Bft) W-SW 248 0 min 0,0 UV-I 0 W/m 2,5 C 0,7 C 22,5 km/h (4 Bft)
31.01.2023 21:12 3,4 C 2,8 C 94 % 1025,2 hPa 0,0 l/m 8,6 km/h (2 Bft) W-SW 249 0 min 0,0 UV-I 0 W/m 2,5 C 1,4 C 16,1 km/h (3 Bft)
31.01.2023 21:15 3,4 C 2,8 C 94 % 1025,2 hPa 0,0 l/m 11,4 km/h (2 Bft) W-SW 254 0 min 0,0 UV-I 0 W/m 2,5 C -0,7 C 17,7 km/h (3 Bft)
31.01.2023 21:18 3,4 C 2,8 C 94 % 1025,0 hPa 0,0 l/m 11,4 km/h (2 Bft) W-NW 283 0 min 0,0 UV-I 0 W/m 2,5 C -0,7 C 24,1 km/h (4 Bft)
31.01.2023 21:21 3,4 C 2,8 C 94 % 1025,1 hPa 0,0 l/m 7,9 km/h (2 Bft) SW 225 0 min 0,0 UV-I 0 W/m 2,5 C 2,0 C 22,5 km/h (4 Bft)
31.01.2023 21:24 3,5 C 2,8 C 94 % 1025,0 hPa 0,0 l/m 9,4 km/h (2 Bft) SW 227 0 min 0,0 UV-I 0 W/m 2,6 C 0,9 C 14,5 km/h (3 Bft)
31.01.2023 21:27 3,5 C 2,8 C 94 % 1025,1 hPa 0,0 l/m 8,6 km/h (2 Bft) W-SW 238 0 min 0,0 UV-I 0 W/m 2,6 C 1,5 C 19,3 km/h (3 Bft)
31.01.2023 21:30 3,5 C 2,8 C 94 % 1025,1 hPa 0,0 l/m 12,1 km/h (2 Bft) SW 236 0 min 0,0 UV-I 0 W/m 2,6 C -1,0 C 22,5 km/h (4 Bft)
31.01.2023 21:33 3,6 C 2,8 C 94 % 1025,2 hPa 0,0 l/m 10,5 km/h (2 Bft) SW 227 0 min 0,0 UV-I 0 W/m 2,7 C 0,2 C 19,3 km/h (3 Bft)
31.01.2023 21:36 3,6 C 2,8 C 94 % 1025,2 hPa 0,0 l/m 13,1 km/h (3 Bft) SW 222 0 min 0,0 UV-I 0 W/m 2,7 C -1,5 C 25,7 km/h (4 Bft)
31.01.2023 21:39 3,6 C 2,8 C 94 % 1025,2 hPa 0,0 l/m 15,9 km/h (3 Bft) W 265 0 min 0,0 UV-I 0 W/m 2,7 C -3,1 C 30,6 km/h (5 Bft)
31.01.2023 21:42 3,6 C 2,8 C 94 % 1025,1 hPa 0,0 l/m 12,0 km/h (2 Bft) W-SW 246 0 min 0,0 UV-I 0 W/m 2,7 C -0,9 C 19,3 km/h (3 Bft)
31.01.2023 21:45 3,6 C 2,8 C 94 % 1025,1 hPa 0,0 l/m 11,0 km/h (2 Bft) W-SW 244 0 min 0,0 UV-I 0 W/m 2,7 C -0,2 C 19,3 km/h (3 Bft)
31.01.2023 21:48 3,6 C 2,8 C 94 % 1025,1 hPa 0,0 l/m 10,5 km/h (2 Bft) W 265 0 min 0,0 UV-I 0 W/m 2,7 C 0,2 C 17,7 km/h (3 Bft)
31.01.2023 21:51 3,6 C 2,8 C 94 % 1025,2 hPa 0,0 l/m 9,7 km/h (2 Bft) W 260 0 min 0,0 UV-I 0 W/m 2,7 C 0,8 C 16,1 km/h (3 Bft)
31.01.2023 21:54 3,6 C 2,8 C 94 % 1025,3 hPa 0,0 l/m 8,7 km/h (2 Bft) W-SW 247 0 min 0,0 UV-I 0 W/m 2,7 C 1,5 C 16,1 km/h (3 Bft)
31.01.2023 21:57 3,5 C 2,8 C 94 % 1025,4 hPa 0,0 l/m 8,3 km/h (2 Bft) W-SW 256 0 min 0,0 UV-I 0 W/m 2,6 C 1,8 C 12,9 km/h (3 Bft)
31.01.2023 22:00 3,5 C 2,8 C 94 % 1025,2 hPa 0,0 l/m 9,4 km/h (2 Bft) W-SW 248 0 min 0,0 UV-I 0 W/m 2,6 C 0,9 C 16,1 km/h (3 Bft)
31.01.2023 22:03 3,4 C 2,8 C 94 % 1025,2 hPa 0,0 l/m 7,6 km/h (2 Bft) SW 220 0 min 0,0 UV-I 0 W/m 2,5 C 2,3 C 14,5 km/h (3 Bft)
31.01.2023 22:06 3,4 C 2,8 C 94 % 1025,1 hPa 0,0 l/m 8,3 km/h (2 Bft) W-SW 250 0 min 0,0 UV-I 0 W/m 2,5 C 1,7 C 16,1 km/h (3 Bft)
31.01.2023 22:09 3,4 C 2,8 C 94 % 1025,0 hPa 0,0 l/m 6,1 km/h (2 Bft) SW 225 0 min 0,0 UV-I 0 W/m 2,5 C 3,4 C 11,3 km/h (2 Bft)
31.01.2023 22:12 3,4 C 2,8 C 94 % 1025,1 hPa 0,2 l/m 5,1 km/h (1 Bft) W-SW 241 0 min 0,0 UV-I 0 W/m 2,5 C 3,4 C 12,9 km/h (3 Bft)
31.01.2023 22:15 3,4 C 2,8 C 94 % 1025,2 hPa 0,0 l/m 9,2 km/h (2 Bft) W-SW 248 0 min 0,0 UV-I 0 W/m 2,5 C 0,9 C 17,7 km/h (3 Bft)
31.01.2023 22:18 3,3 C 2,8 C 94 % 1025,3 hPa 0,0 l/m 6,8 km/h (2 Bft) SW 236 0 min 0,0 UV-I 0 W/m 2,4 C 2,9 C 14,5 km/h (3 Bft)
31.01.2023 22:21 3,3 C 2,8 C 94 % 1025,1 hPa 0,0 l/m 7,8 km/h (2 Bft) SW 236 0 min 0,0 UV-I 0 W/m 2,4 C 2,0 C 14,5 km/h (3 Bft)
31.01.2023 22:24 3,2 C 2,2 C 94 % 1025,1 hPa 0,2 l/m 6,3 km/h (2 Bft) W-SW 250 0 min 0,0 UV-I 0 W/m 2,3 C 3,2 C 12,9 km/h (3 Bft)
31.01.2023 22:27 3,2 C 2,2 C 94 % 1025,1 hPa 0,0 l/m 7,3 km/h (2 Bft) S-SW 202 0 min 0,0 UV-I 0 W/m 2,3 C 2,4 C 19,3 km/h (3 Bft)
31.01.2023 22:30 3,2 C 2,2 C 94 % 1025,2 hPa 0,0 l/m 7,9 km/h (2 Bft) W-SW 238 0 min 0,0 UV-I 0 W/m 2,3 C 1,8 C 14,5 km/h (3 Bft)
31.01.2023 22:33 3,2 C 2,2 C 93 % 1025,1 hPa 0,0 l/m 10,3 km/h (2 Bft) W-SW 251 0 min 0,0 UV-I 0 W/m 2,2 C -0,1 C 20,9 km/h (4 Bft)
31.01.2023 22:36 3,1 C 2,2 C 93 % 1025,1 hPa 0,0 l/m 11,4 km/h (2 Bft) W 273 0 min 0,0 UV-I 0 W/m 2,1 C -1,0 C 22,5 km/h (4 Bft)
31.01.2023 22:39 3,1 C 2,2 C 93 % 1025,0 hPa 0,2 l/m 13,4 km/h (3 Bft) W 261 0 min 0,0 UV-I 0 W/m 2,1 C -2,3 C 22,5 km/h (4 Bft)
31.01.2023 22:42 3,1 C 2,2 C 93 % 1025,0 hPa 0,0 l/m 7,3 km/h (2 Bft) W-SW 239 0 min 0,0 UV-I 0 W/m 2,1 C 2,2 C 14,5 km/h (3 Bft)
31.01.2023 22:45 3,1 C 2,2 C 93 % 1025,0 hPa 0,0 l/m 9,1 km/h (2 Bft) W-SW 241 0 min 0,0 UV-I 0 W/m 2,1 C 0,7 C 16,1 km/h (3 Bft)
31.01.2023 22:48 3,1 C 2,2 C 93 % 1025,0 hPa 0,0 l/m 9,8 km/h (2 Bft) W-SW 237 0 min 0,0 UV-I 0 W/m 2,1 C 0,1 C 22,5 km/h (4 Bft)
31.01.2023 22:49 3,1 C 2,2 C 93 % 1025,0 hPa 0,0 l/m 8,0 km/h (2 Bft) W-SW 247 0 min 0,0 UV-I 0 W/m 2,1 C 1,6 C 12,9 km/h (3 Bft)
31.01.2023 22:50 3,1 C 2,2 C 93 % 1024,9 hPa 0,0 l/m 9,7 km/h (2 Bft) W-SW 247 0 min 0,0 UV-I 0 W/m 2,1 C 0,2 C 16,1 km/h (3 Bft)
31.01.2023 22:51 3,1 C 2,2 C 93 % 1024,9 hPa 0,0 l/m 6,4 km/h (2 Bft) SW 225 0 min 0,0 UV-I 0 W/m 2,1 C 3,1 C 9,7 km/h (2 Bft)
31.01.2023 22:52 3,1 C 2,2 C 93 % 1025,0 hPa 0,0 l/m 6,4 km/h (2 Bft) SW 225 0 min 0,0 UV-I 0 W/m 2,1 C 3,1 C 11,3 km/h (2 Bft)
31.01.2023 22:54 3,1 C 2,2 C 93 % 1025,0 hPa 0,0 l/m 3,3 km/h (1 Bft) W-SW 244 0 min 0,0 UV-I 0 W/m 2,1 C 3,1 C 4,8 km/h (1 Bft)
31.01.2023 22:57 3,1 C 1,7 C 93 % 1025,0 hPa 0,0 l/m 5,7 km/h (1 Bft) SW 218 0 min 0,0 UV-I 0 W/m 2,1 C 3,1 C 11,3 km/h (2 Bft)
31.01.2023 23:00 3,1 C 2,2 C 93 % 1025,0 hPa 0,0 l/m 5,8 km/h (2 Bft) SW 234 0 min 0,0 UV-I 0 W/m 2,1 C 3,1 C 11,3 km/h (2 Bft)
31.01.2023 23:03 3,0 C 1,7 C 93 % 1025,0 hPa 0,0 l/m 4,7 km/h (1 Bft) SW 233 0 min 0,0 UV-I 0 W/m 2,0 C 3,0 C 8,0 km/h (2 Bft)
31.01.2023 23:06 3,0 C 1,7 C 93 % 1025,0 hPa 0,0 l/m 3,1 km/h (1 Bft) W-SW 248 0 min 0,0 UV-I 0 W/m 2,0 C 3,0 C 6,4 km/h (2 Bft)
31.01.2023 23:09 2,9 C 1,7 C 93 % 1024,9 hPa 0,0 l/m 3,1 km/h (1 Bft) SW 235 0 min 0,0 UV-I 0 W/m 1,9 C 2,9 C 6,4 km/h (2 Bft)
31.01.2023 23:12 2,9 C 1,7 C 93 % 1024,8 hPa 0,0 l/m 3,7 km/h (1 Bft) W-SW 237 0 min 0,0 UV-I 0 W/m 1,9 C 2,9 C 6,4 km/h (2 Bft)
31.01.2023 23:15 2,9 C 2,2 C 93 % 1024,7 hPa 0,0 l/m 3,9 km/h (1 Bft) SW 217 0 min 0,0 UV-I 0 W/m 1,9 C 2,9 C 9,7 km/h (2 Bft)
31.01.2023 23:18 2,9 C 2,2 C 93 % 1024,8 hPa 0,0 l/m 2,3 km/h (1 Bft) SW 219 0 min 0,0 UV-I 0 W/m 1,9 C 2,9 C 6,4 km/h (2 Bft)
31.01.2023 23:21 2,9 C 2,2 C 93 % 1024,7 hPa 0,0 l/m 3,7 km/h (1 Bft) SW 217 0 min 0,0 UV-I 0 W/m 1,9 C 2,9 C 6,4 km/h (2 Bft)
31.01.2023 23:24 2,9 C 2,2 C 94 % 1024,7 hPa 0,0 l/m 4,4 km/h (1 Bft) S-SW 205 0 min 0,0 UV-I 0 W/m 2,0 C 2,9 C 8,0 km/h (2 Bft)
31.01.2023 23:27 2,9 C 2,2 C 94 % 1024,6 hPa 0,0 l/m 4,8 km/h (1 Bft) S-SW 203 0 min 0,0 UV-I 0 W/m 2,0 C 2,9 C 8,0 km/h (2 Bft)
31.01.2023 23:30 2,9 C 2,2 C 94 % 1024,6 hPa 0,0 l/m 5,5 km/h (1 Bft) SW 219 0 min 0,0 UV-I 0 W/m 2,0 C 2,9 C 12,9 km/h (3 Bft)
31.01.2023 23:33 3,0 C 2,2 C 93 % 1024,6 hPa 0,0 l/m 3,5 km/h (1 Bft) SW 219 0 min 0,0 UV-I 0 W/m 2,0 C 3,0 C 11,3 km/h (2 Bft)
31.01.2023 23:36 3,0 C 2,2 C 93 % 1024,6 hPa 0,0 l/m 5,2 km/h (1 Bft) SW 228 0 min 0,0 UV-I 0 W/m 2,0 C 3,0 C 9,7 km/h (2 Bft)
31.01.2023 23:39 3,1 C 2,2 C 93 % 1024,5 hPa 0,0 l/m 9,2 km/h (2 Bft) W 259 0 min 0,0 UV-I 0 W/m 2,1 C 0,6 C 24,1 km/h (4 Bft)
31.01.2023 23:42 3,1 C 2,2 C 93 % 1024,6 hPa 0,0 l/m 7,6 km/h (2 Bft) W-SW 242 0 min 0,0 UV-I 0 W/m 2,1 C 2,0 C 20,9 km/h (4 Bft)
31.01.2023 23:45 3,1 C 2,2 C 93 % 1024,6 hPa 0,0 l/m 4,4 km/h (1 Bft) SW 225 0 min 0,0 UV-I 0 W/m 2,1 C 3,1 C 11,3 km/h (2 Bft)
31.01.2023 23:48 3,1 C 2,2 C 93 % 1024,5 hPa 0,0 l/m 2,5 km/h (1 Bft) SW 225 0 min 0,0 UV-I 0 W/m 2,1 C 3,1 C 4,8 km/h (1 Bft)
31.01.2023 23:51 3,1 C 2,2 C 93 % 1024,6 hPa 0,0 l/m 3,1 km/h (1 Bft) SW 228 0 min 0,0 UV-I 0 W/m 2,1 C 3,1 C 8,0 km/h (2 Bft)
31.01.2023 23:54 3,1 C 2,2 C 93 % 1024,5 hPa 0,0 l/m 4,1 km/h (1 Bft) W 274 0 min 0,0 UV-I 0 W/m 2,1 C 3,1 C 9,7 km/h (2 Bft)
31.01.2023 23:57 3,1 C 2,2 C 93 % 1024,2 hPa 0,0 l/m 5,2 km/h (1 Bft) SW 233 0 min 0,0 UV-I 0 W/m 2,1 C 3,1 C 11,3 km/h (2 Bft)
31.01.2023 23:58 3,1 C 2,2 C 93 % 1024,2 hPa 0,0 l/m 4,8 km/h (1 Bft) SW 225 0 min 0,0 UV-I 0 W/m 2,1 C 3,1 C 11,3 km/h (2 Bft)
31.01.2023 23:59 3,1 C 2,2 C 93 % 1024,2 hPa 0,0 l/m 3,2 km/h (1 Bft) SW 225 0 min 0,0 UV-I 0 W/m 2,1 C 3,1 C 6,4 km/h (2 Bft)
_ Min-Zeit 03:43 03:08 00:09 23:57 - 01:25 - - - - - 03:43 09:00 01:25
Minimum _ -0,7 C -2,2 C 88 % 1024,2 hPa - 0,0 km/h (0 Bft) - - - - - -2,1 C -9,9 C 1,6 km/h (1 Bft)
_ Max-Zeit 21:30 19:27 15:36 00:02 17:54 09:00 - - 00:00 13:21 13:30 21:33 22:09 09:00
Maximum _ 3,6 C 2,8 C 94 % 1028,5 hPa 0,2 l/m 21,1 km/h
W (4 Bft)
- - 0 min 0,9 UV-I 161 W/m 2,7 C 3,4 C 33,8 km/h
W-SW (5 Bft)
Durchschnitt _ 1,5 C 0,9 C 93 % 1026,3 hPa #0,8 l/m 10,3 km/h (2 Bft) S-SW - #0 min. 0,6 UV-I 55 W/m 0,4 C -2,1 C 17,4 km/h (3 Bft)